<?xml version="1.0" encoding="UTF-8" standalone="no" ?>
<gpx xmlns="http://www.topografix.com/GPX/1/1" xmlns:xsi="http://www.w3.org/2001/XMLSchema-instance" xsi:schemaLocation="http://www.topografix.com/GPX/1/1 http://www.topografix.com/GPX/1/1/gpx.xsd" version="1.1" creator="VisuGPX - https://www.visugpx.com">
  <metadata>
    <name>HRP - PEDESTRE - 65 - Du refuge de Bayssellance à Gavarnie</name>
    <desc><![CDATA[Notre cinquième et dernière étape]]></desc>
  </metadata>
  <trk>
    <name><![CDATA[ACTIVE LOG 014]]></name>
    <trkseg>
      <trkpt lat="42.7805" lon="-0.1249">
        <ele>2630.78515625</ele>
        <time>2015-09-10T05:44:27Z</time>
      </trkpt>
      <trkpt lat="42.7805" lon="-0.1249">
        <ele>2630.78515625</ele>
        <time>2015-09-10T05:44:28Z</time>
      </trkpt>
      <trkpt lat="42.78047" lon="-0.12491">
        <ele>2630.3041992188</ele>
        <time>2015-09-10T05:44:29Z</time>
      </trkpt>
      <trkpt lat="42.77929" lon="-0.12541">
        <ele>2627.4204101562</ele>
        <time>2015-09-10T05:45:15Z</time>
      </trkpt>
      <trkpt lat="42.77927" lon="-0.12539">
        <ele>2630.3041992188</ele>
        <time>2015-09-10T05:45:21Z</time>
      </trkpt>
      <trkpt lat="42.77926" lon="-0.12539">
        <ele>2628.3818359375</ele>
        <time>2015-09-10T05:45:24Z</time>
      </trkpt>
      <trkpt lat="42.77933" lon="-0.12548">
        <ele>2627.9008789062</ele>
        <time>2015-09-10T05:45:51Z</time>
      </trkpt>
      <trkpt lat="42.77935" lon="-0.1254">
        <ele>2629.3432617188</ele>
        <time>2015-09-10T05:46:03Z</time>
      </trkpt>
      <trkpt lat="42.77932" lon="-0.12535">
        <ele>2628.8623046875</ele>
        <time>2015-09-10T05:46:07Z</time>
      </trkpt>
      <trkpt lat="42.77923" lon="-0.12516">
        <ele>2632.7075195312</ele>
        <time>2015-09-10T05:46:21Z</time>
      </trkpt>
      <trkpt lat="42.77923" lon="-0.12512">
        <ele>2632.7075195312</ele>
        <time>2015-09-10T05:46:24Z</time>
      </trkpt>
      <trkpt lat="42.77918" lon="-0.12487">
        <ele>2632.7075195312</ele>
        <time>2015-09-10T05:46:41Z</time>
      </trkpt>
      <trkpt lat="42.77915" lon="-0.12465">
        <ele>2635.5913085938</ele>
        <time>2015-09-10T05:46:58Z</time>
      </trkpt>
      <trkpt lat="42.77914" lon="-0.12465">
        <ele>2637.0336914062</ele>
        <time>2015-09-10T05:47:01Z</time>
      </trkpt>
      <trkpt lat="42.77915" lon="-0.12451">
        <ele>2638.4755859375</ele>
        <time>2015-09-10T05:47:16Z</time>
      </trkpt>
      <trkpt lat="42.77918" lon="-0.1243">
        <ele>2639.4370117188</ele>
        <time>2015-09-10T05:47:33Z</time>
      </trkpt>
      <trkpt lat="42.77917" lon="-0.12428">
        <ele>2640.3979492188</ele>
        <time>2015-09-10T05:47:35Z</time>
      </trkpt>
      <trkpt lat="42.77921" lon="-0.12417">
        <ele>2641.359375</ele>
        <time>2015-09-10T05:47:51Z</time>
      </trkpt>
      <trkpt lat="42.77916" lon="-0.12414">
        <ele>2640.3979492188</ele>
        <time>2015-09-10T05:48:03Z</time>
      </trkpt>
      <trkpt lat="42.77909" lon="-0.12404">
        <ele>2637.5141601562</ele>
        <time>2015-09-10T05:48:18Z</time>
      </trkpt>
      <trkpt lat="42.77904" lon="-0.12396">
        <ele>2634.6303710938</ele>
        <time>2015-09-10T05:48:32Z</time>
      </trkpt>
      <trkpt lat="42.77903" lon="-0.12395">
        <ele>2633.6689453125</ele>
        <time>2015-09-10T05:48:34Z</time>
      </trkpt>
      <trkpt lat="42.77902" lon="-0.12391">
        <ele>2634.6303710938</ele>
        <time>2015-09-10T05:48:41Z</time>
      </trkpt>
      <trkpt lat="42.77902" lon="-0.1239">
        <ele>2633.1884765625</ele>
        <time>2015-09-10T05:48:43Z</time>
      </trkpt>
      <trkpt lat="42.77894" lon="-0.12385">
        <ele>2630.3041992188</ele>
        <time>2015-09-10T05:49:01Z</time>
      </trkpt>
      <trkpt lat="42.77891" lon="-0.12395">
        <ele>2628.8623046875</ele>
        <time>2015-09-10T05:49:13Z</time>
      </trkpt>
      <trkpt lat="42.77889" lon="-0.12396">
        <ele>2626.458984375</ele>
        <time>2015-09-10T05:49:25Z</time>
      </trkpt>
      <trkpt lat="42.77886" lon="-0.12407">
        <ele>2622.6137695312</ele>
        <time>2015-09-10T05:49:38Z</time>
      </trkpt>
      <trkpt lat="42.77878" lon="-0.12409">
        <ele>2620.69140625</ele>
        <time>2015-09-10T05:49:51Z</time>
      </trkpt>
      <trkpt lat="42.77871" lon="-0.12395">
        <ele>2617.8076171875</ele>
        <time>2015-09-10T05:50:07Z</time>
      </trkpt>
      <trkpt lat="42.77868" lon="-0.12377">
        <ele>2614.4428710938</ele>
        <time>2015-09-10T05:50:24Z</time>
      </trkpt>
      <trkpt lat="42.77865" lon="-0.12356">
        <ele>2612.0395507812</ele>
        <time>2015-09-10T05:50:43Z</time>
      </trkpt>
      <trkpt lat="42.77856" lon="-0.12342">
        <ele>2609.1552734375</ele>
        <time>2015-09-10T05:51:00Z</time>
      </trkpt>
      <trkpt lat="42.77855" lon="-0.12332">
        <ele>2607.232421875</ele>
        <time>2015-09-10T05:51:09Z</time>
      </trkpt>
      <trkpt lat="42.77849" lon="-0.12312">
        <ele>2605.3100585938</ele>
        <time>2015-09-10T05:51:29Z</time>
      </trkpt>
      <trkpt lat="42.77845" lon="-0.12301">
        <ele>2602.9067382812</ele>
        <time>2015-09-10T05:51:42Z</time>
      </trkpt>
      <trkpt lat="42.77845" lon="-0.12291">
        <ele>2600.0229492188</ele>
        <time>2015-09-10T05:51:57Z</time>
      </trkpt>
      <trkpt lat="42.77842" lon="-0.12282">
        <ele>2597.6196289062</ele>
        <time>2015-09-10T05:52:10Z</time>
      </trkpt>
      <trkpt lat="42.77838" lon="-0.12277">
        <ele>2596.177734375</ele>
        <time>2015-09-10T05:52:25Z</time>
      </trkpt>
      <trkpt lat="42.77836" lon="-0.12274">
        <ele>2594.2548828125</ele>
        <time>2015-09-10T05:52:33Z</time>
      </trkpt>
      <trkpt lat="42.77836" lon="-0.12264">
        <ele>2590.8903808594</ele>
        <time>2015-09-10T05:52:48Z</time>
      </trkpt>
      <trkpt lat="42.77836" lon="-0.12255">
        <ele>2588.9677734375</ele>
        <time>2015-09-10T05:52:59Z</time>
      </trkpt>
      <trkpt lat="42.77831" lon="-0.12248">
        <ele>2586.5642089844</ele>
        <time>2015-09-10T05:53:14Z</time>
      </trkpt>
      <trkpt lat="42.77823" lon="-0.12245">
        <ele>2583.6804199219</ele>
        <time>2015-09-10T05:53:30Z</time>
      </trkpt>
      <trkpt lat="42.77816" lon="-0.12234">
        <ele>2581.2770996094</ele>
        <time>2015-09-10T05:53:43Z</time>
      </trkpt>
      <trkpt lat="42.77811" lon="-0.12233">
        <ele>2579.3544921875</ele>
        <time>2015-09-10T05:53:56Z</time>
      </trkpt>
      <trkpt lat="42.77806" lon="-0.12235">
        <ele>2577.9125976562</ele>
        <time>2015-09-10T05:54:07Z</time>
      </trkpt>
      <trkpt lat="42.77801" lon="-0.1222">
        <ele>2575.0285644531</ele>
        <time>2015-09-10T05:54:20Z</time>
      </trkpt>
      <trkpt lat="42.77792" lon="-0.1221">
        <ele>2573.5866699219</ele>
        <time>2015-09-10T05:54:34Z</time>
      </trkpt>
      <trkpt lat="42.77787" lon="-0.12206">
        <ele>2573.5866699219</ele>
        <time>2015-09-10T05:54:38Z</time>
      </trkpt>
      <trkpt lat="42.77784" lon="-0.122">
        <ele>2574.0673828125</ele>
        <time>2015-09-10T05:54:42Z</time>
      </trkpt>
      <trkpt lat="42.77778" lon="-0.12172">
        <ele>2572.1447753906</ele>
        <time>2015-09-10T05:54:59Z</time>
      </trkpt>
      <trkpt lat="42.77772" lon="-0.12152">
        <ele>2569.2607421875</ele>
        <time>2015-09-10T05:55:17Z</time>
      </trkpt>
      <trkpt lat="42.77766" lon="-0.12145">
        <ele>2566.3767089844</ele>
        <time>2015-09-10T05:55:27Z</time>
      </trkpt>
      <trkpt lat="42.77756" lon="-0.12132">
        <ele>2564.9348144531</ele>
        <time>2015-09-10T05:55:44Z</time>
      </trkpt>
      <trkpt lat="42.77751" lon="-0.12123">
        <ele>2563.4926757812</ele>
        <time>2015-09-10T05:55:54Z</time>
      </trkpt>
      <trkpt lat="42.77749" lon="-0.12119">
        <ele>2563.4926757812</ele>
        <time>2015-09-10T05:55:58Z</time>
      </trkpt>
      <trkpt lat="42.77745" lon="-0.12105">
        <ele>2559.6474609375</ele>
        <time>2015-09-10T05:56:10Z</time>
      </trkpt>
      <trkpt lat="42.77742" lon="-0.12093">
        <ele>2557.2443847656</ele>
        <time>2015-09-10T05:56:27Z</time>
      </trkpt>
      <trkpt lat="42.77742" lon="-0.12089">
        <ele>2553.8796386719</ele>
        <time>2015-09-10T05:56:35Z</time>
      </trkpt>
      <trkpt lat="42.77741" lon="-0.12088">
        <ele>2553.8796386719</ele>
        <time>2015-09-10T05:56:36Z</time>
      </trkpt>
      <trkpt lat="42.7774" lon="-0.12077">
        <ele>2551.4763183594</ele>
        <time>2015-09-10T05:56:50Z</time>
      </trkpt>
      <trkpt lat="42.77744" lon="-0.12076">
        <ele>2549.0729980469</ele>
        <time>2015-09-10T05:56:57Z</time>
      </trkpt>
      <trkpt lat="42.77739" lon="-0.12068">
        <ele>2546.1892089844</ele>
        <time>2015-09-10T05:57:09Z</time>
      </trkpt>
      <trkpt lat="42.77736" lon="-0.12059">
        <ele>2543.3051757812</ele>
        <time>2015-09-10T05:57:25Z</time>
      </trkpt>
      <trkpt lat="42.7774" lon="-0.12053">
        <ele>2539.4597167969</ele>
        <time>2015-09-10T05:57:33Z</time>
      </trkpt>
      <trkpt lat="42.77736" lon="-0.1205">
        <ele>2537.537109375</ele>
        <time>2015-09-10T05:57:45Z</time>
      </trkpt>
      <trkpt lat="42.77725" lon="-0.12048">
        <ele>2534.1726074219</ele>
        <time>2015-09-10T05:57:58Z</time>
      </trkpt>
      <trkpt lat="42.77724" lon="-0.12049">
        <ele>2534.1726074219</ele>
        <time>2015-09-10T05:57:59Z</time>
      </trkpt>
      <trkpt lat="42.77716" lon="-0.12056">
        <ele>2530.8081054688</ele>
        <time>2015-09-10T05:58:13Z</time>
      </trkpt>
      <trkpt lat="42.77711" lon="-0.12062">
        <ele>2529.3659667969</ele>
        <time>2015-09-10T05:58:29Z</time>
      </trkpt>
      <trkpt lat="42.77708" lon="-0.12068">
        <ele>2528.8852539062</ele>
        <time>2015-09-10T05:58:57Z</time>
      </trkpt>
      <trkpt lat="42.77702" lon="-0.12073">
        <ele>2526.0014648438</ele>
        <time>2015-09-10T05:59:10Z</time>
      </trkpt>
      <trkpt lat="42.77702" lon="-0.12074">
        <ele>2525.5207519531</ele>
        <time>2015-09-10T05:59:12Z</time>
      </trkpt>
      <trkpt lat="42.77696" lon="-0.12088">
        <ele>2522.63671875</ele>
        <time>2015-09-10T05:59:29Z</time>
      </trkpt>
      <trkpt lat="42.77688" lon="-0.12099">
        <ele>2520.2333984375</ele>
        <time>2015-09-10T05:59:48Z</time>
      </trkpt>
      <trkpt lat="42.77684" lon="-0.12105">
        <ele>2518.7915039062</ele>
        <time>2015-09-10T06:00:03Z</time>
      </trkpt>
      <trkpt lat="42.77684" lon="-0.121">
        <ele>2516.8688964844</ele>
        <time>2015-09-10T06:00:25Z</time>
      </trkpt>
      <trkpt lat="42.77684" lon="-0.12087">
        <ele>2513.9848632812</ele>
        <time>2015-09-10T06:00:35Z</time>
      </trkpt>
      <trkpt lat="42.77682" lon="-0.12072">
        <ele>2510.6203613281</ele>
        <time>2015-09-10T06:00:53Z</time>
      </trkpt>
      <trkpt lat="42.77677" lon="-0.12081">
        <ele>2507.736328125</ele>
        <time>2015-09-10T06:01:03Z</time>
      </trkpt>
      <trkpt lat="42.7767" lon="-0.12091">
        <ele>2504.3715820312</ele>
        <time>2015-09-10T06:01:18Z</time>
      </trkpt>
      <trkpt lat="42.77669" lon="-0.12095">
        <ele>2503.4104003906</ele>
        <time>2015-09-10T06:01:23Z</time>
      </trkpt>
      <trkpt lat="42.77664" lon="-0.1211">
        <ele>2500.0458984375</ele>
        <time>2015-09-10T06:01:38Z</time>
      </trkpt>
      <trkpt lat="42.77662" lon="-0.12117">
        <ele>2499.0844726562</ele>
        <time>2015-09-10T06:01:44Z</time>
      </trkpt>
      <trkpt lat="42.77659" lon="-0.1213">
        <ele>2497.642578125</ele>
        <time>2015-09-10T06:01:57Z</time>
      </trkpt>
      <trkpt lat="42.77655" lon="-0.12138">
        <ele>2494.7585449219</ele>
        <time>2015-09-10T06:02:12Z</time>
      </trkpt>
      <trkpt lat="42.77651" lon="-0.12148">
        <ele>2493.7973632812</ele>
        <time>2015-09-10T06:02:26Z</time>
      </trkpt>
      <trkpt lat="42.77643" lon="-0.1216">
        <ele>2490.4323730469</ele>
        <time>2015-09-10T06:02:38Z</time>
      </trkpt>
      <trkpt lat="42.77637" lon="-0.12172">
        <ele>2488.029296875</ele>
        <time>2015-09-10T06:02:52Z</time>
      </trkpt>
      <trkpt lat="42.77631" lon="-0.1218">
        <ele>2484.6647949219</ele>
        <time>2015-09-10T06:03:03Z</time>
      </trkpt>
      <trkpt lat="42.77624" lon="-0.12194">
        <ele>2481.7807617188</ele>
        <time>2015-09-10T06:03:19Z</time>
      </trkpt>
      <trkpt lat="42.77614" lon="-0.12199">
        <ele>2478.4162597656</ele>
        <time>2015-09-10T06:03:34Z</time>
      </trkpt>
      <trkpt lat="42.77606" lon="-0.12207">
        <ele>2475.5319824219</ele>
        <time>2015-09-10T06:03:48Z</time>
      </trkpt>
      <trkpt lat="42.776" lon="-0.12212">
        <ele>2472.6481933594</ele>
        <time>2015-09-10T06:03:58Z</time>
      </trkpt>
      <trkpt lat="42.77593" lon="-0.12219">
        <ele>2471.2060546875</ele>
        <time>2015-09-10T06:04:10Z</time>
      </trkpt>
      <trkpt lat="42.77585" lon="-0.12227">
        <ele>2468.322265625</ele>
        <time>2015-09-10T06:04:24Z</time>
      </trkpt>
      <trkpt lat="42.77578" lon="-0.12231">
        <ele>2465.9189453125</ele>
        <time>2015-09-10T06:04:36Z</time>
      </trkpt>
      <trkpt lat="42.77569" lon="-0.1224">
        <ele>2463.9963378906</ele>
        <time>2015-09-10T06:04:49Z</time>
      </trkpt>
      <trkpt lat="42.77562" lon="-0.12247">
        <ele>2461.1125488281</ele>
        <time>2015-09-10T06:04:59Z</time>
      </trkpt>
      <trkpt lat="42.77559" lon="-0.12259">
        <ele>2459.1896972656</ele>
        <time>2015-09-10T06:05:12Z</time>
      </trkpt>
      <trkpt lat="42.77553" lon="-0.12266">
        <ele>2457.7478027344</ele>
        <time>2015-09-10T06:05:24Z</time>
      </trkpt>
      <trkpt lat="42.77548" lon="-0.12268">
        <ele>2454.3830566406</ele>
        <time>2015-09-10T06:05:39Z</time>
      </trkpt>
      <trkpt lat="42.77549" lon="-0.12258">
        <ele>2451.9797363281</ele>
        <time>2015-09-10T06:05:54Z</time>
      </trkpt>
      <trkpt lat="42.77541" lon="-0.12256">
        <ele>2449.5766601562</ele>
        <time>2015-09-10T06:06:08Z</time>
      </trkpt>
      <trkpt lat="42.77539" lon="-0.12247">
        <ele>2446.6926269531</ele>
        <time>2015-09-10T06:06:22Z</time>
      </trkpt>
      <trkpt lat="42.7754" lon="-0.12239">
        <ele>2445.2507324219</ele>
        <time>2015-09-10T06:06:37Z</time>
      </trkpt>
      <trkpt lat="42.77535" lon="-0.12237">
        <ele>2444.7700195312</ele>
        <time>2015-09-10T06:06:51Z</time>
      </trkpt>
      <trkpt lat="42.77533" lon="-0.12237">
        <ele>2442.8471679688</ele>
        <time>2015-09-10T06:06:56Z</time>
      </trkpt>
      <trkpt lat="42.77529" lon="-0.12233">
        <ele>2441.4052734375</ele>
        <time>2015-09-10T06:07:07Z</time>
      </trkpt>
      <trkpt lat="42.77533" lon="-0.12227">
        <ele>2438.0407714844</ele>
        <time>2015-09-10T06:07:16Z</time>
      </trkpt>
      <trkpt lat="42.77539" lon="-0.12216">
        <ele>2435.6374511719</ele>
        <time>2015-09-10T06:07:31Z</time>
      </trkpt>
      <trkpt lat="42.77544" lon="-0.12205">
        <ele>2433.71484375</ele>
        <time>2015-09-10T06:07:46Z</time>
      </trkpt>
      <trkpt lat="42.77547" lon="-0.12194">
        <ele>2431.3115234375</ele>
        <time>2015-09-10T06:07:58Z</time>
      </trkpt>
      <trkpt lat="42.77549" lon="-0.12184">
        <ele>2428.427734375</ele>
        <time>2015-09-10T06:08:10Z</time>
      </trkpt>
      <trkpt lat="42.77551" lon="-0.12181">
        <ele>2424.1015625</ele>
        <time>2015-09-10T06:08:22Z</time>
      </trkpt>
      <trkpt lat="42.77546" lon="-0.1218">
        <ele>2429.3889160156</ele>
        <time>2015-09-10T06:08:24Z</time>
      </trkpt>
      <trkpt lat="42.77519" lon="-0.12163">
        <ele>2428.908203125</ele>
        <time>2015-09-10T06:08:31Z</time>
      </trkpt>
      <trkpt lat="42.77539" lon="-0.12166">
        <ele>2428.908203125</ele>
        <time>2015-09-10T06:08:42Z</time>
      </trkpt>
      <trkpt lat="42.77545" lon="-0.12169">
        <ele>2428.427734375</ele>
        <time>2015-09-10T06:08:45Z</time>
      </trkpt>
      <trkpt lat="42.77548" lon="-0.12165">
        <ele>2428.427734375</ele>
        <time>2015-09-10T06:09:03Z</time>
      </trkpt>
      <trkpt lat="42.77546" lon="-0.12175">
        <ele>2429.3889160156</ele>
        <time>2015-09-10T06:09:17Z</time>
      </trkpt>
      <trkpt lat="42.7755" lon="-0.1218">
        <ele>2429.3889160156</ele>
        <time>2015-09-10T06:09:32Z</time>
      </trkpt>
      <trkpt lat="42.77539" lon="-0.1216">
        <ele>2430.3503417969</ele>
        <time>2015-09-10T06:10:05Z</time>
      </trkpt>
      <trkpt lat="42.77543" lon="-0.12176">
        <ele>2429.8696289062</ele>
        <time>2015-09-10T06:10:17Z</time>
      </trkpt>
      <trkpt lat="42.77543" lon="-0.12181">
        <ele>2430.3503417969</ele>
        <time>2015-09-10T06:10:33Z</time>
      </trkpt>
      <trkpt lat="42.77545" lon="-0.12172">
        <ele>2429.8696289062</ele>
        <time>2015-09-10T06:10:46Z</time>
      </trkpt>
      <trkpt lat="42.7755" lon="-0.12178">
        <ele>2428.427734375</ele>
        <time>2015-09-10T06:11:16Z</time>
      </trkpt>
      <trkpt lat="42.7755" lon="-0.1217">
        <ele>2427.9467773438</ele>
        <time>2015-09-10T06:11:27Z</time>
      </trkpt>
      <trkpt lat="42.77551" lon="-0.1216">
        <ele>2426.0241699219</ele>
        <time>2015-09-10T06:11:37Z</time>
      </trkpt>
      <trkpt lat="42.7755" lon="-0.12154">
        <ele>2425.5434570312</ele>
        <time>2015-09-10T06:11:41Z</time>
      </trkpt>
      <trkpt lat="42.77553" lon="-0.12131">
        <ele>2422.1789550781</ele>
        <time>2015-09-10T06:11:56Z</time>
      </trkpt>
      <trkpt lat="42.77553" lon="-0.12124">
        <ele>2420.2563476562</ele>
        <time>2015-09-10T06:12:02Z</time>
      </trkpt>
      <trkpt lat="42.77553" lon="-0.12113">
        <ele>2419.7756347656</ele>
        <time>2015-09-10T06:12:12Z</time>
      </trkpt>
      <trkpt lat="42.77555" lon="-0.12098">
        <ele>2416.4111328125</ele>
        <time>2015-09-10T06:12:24Z</time>
      </trkpt>
      <trkpt lat="42.77553" lon="-0.12089">
        <ele>2414.4885253906</ele>
        <time>2015-09-10T06:12:32Z</time>
      </trkpt>
      <trkpt lat="42.77555" lon="-0.12072">
        <ele>2410.6430664062</ele>
        <time>2015-09-10T06:12:49Z</time>
      </trkpt>
      <trkpt lat="42.77559" lon="-0.1206">
        <ele>2408.7204589844</ele>
        <time>2015-09-10T06:13:01Z</time>
      </trkpt>
      <trkpt lat="42.77558" lon="-0.12045">
        <ele>2405.3559570312</ele>
        <time>2015-09-10T06:13:15Z</time>
      </trkpt>
      <trkpt lat="42.77558" lon="-0.12042">
        <ele>2404.39453125</ele>
        <time>2015-09-10T06:13:17Z</time>
      </trkpt>
      <trkpt lat="42.77556" lon="-0.12027">
        <ele>2401.0300292969</ele>
        <time>2015-09-10T06:13:31Z</time>
      </trkpt>
      <trkpt lat="42.77556" lon="-0.12025">
        <ele>2400.0688476562</ele>
        <time>2015-09-10T06:13:33Z</time>
      </trkpt>
      <trkpt lat="42.77556" lon="-0.12019">
        <ele>2398.1459960938</ele>
        <time>2015-09-10T06:13:38Z</time>
      </trkpt>
      <trkpt lat="42.77555" lon="-0.11997">
        <ele>2395.2619628906</ele>
        <time>2015-09-10T06:13:55Z</time>
      </trkpt>
      <trkpt lat="42.77558" lon="-0.11982">
        <ele>2391.8974609375</ele>
        <time>2015-09-10T06:14:09Z</time>
      </trkpt>
      <trkpt lat="42.77557" lon="-0.1196">
        <ele>2389.494140625</ele>
        <time>2015-09-10T06:14:26Z</time>
      </trkpt>
      <trkpt lat="42.77556" lon="-0.1196">
        <ele>2389.494140625</ele>
        <time>2015-09-10T06:14:27Z</time>
      </trkpt>
      <trkpt lat="42.77556" lon="-0.11949">
        <ele>2386.6101074219</ele>
        <time>2015-09-10T06:14:36Z</time>
      </trkpt>
      <trkpt lat="42.77556" lon="-0.11942">
        <ele>2384.6877441406</ele>
        <time>2015-09-10T06:14:43Z</time>
      </trkpt>
      <trkpt lat="42.77558" lon="-0.11931">
        <ele>2382.7648925781</ele>
        <time>2015-09-10T06:14:52Z</time>
      </trkpt>
      <trkpt lat="42.77558" lon="-0.11921">
        <ele>2380.8425292969</ele>
        <time>2015-09-10T06:15:00Z</time>
      </trkpt>
      <trkpt lat="42.77557" lon="-0.11909">
        <ele>2379.880859375</ele>
        <time>2015-09-10T06:15:07Z</time>
      </trkpt>
      <trkpt lat="42.77556" lon="-0.11902">
        <ele>2378.4389648438</ele>
        <time>2015-09-10T06:15:11Z</time>
      </trkpt>
      <trkpt lat="42.77552" lon="-0.11877">
        <ele>2376.0356445312</ele>
        <time>2015-09-10T06:15:28Z</time>
      </trkpt>
      <trkpt lat="42.77556" lon="-0.11855">
        <ele>2372.6711425781</ele>
        <time>2015-09-10T06:15:45Z</time>
      </trkpt>
      <trkpt lat="42.77557" lon="-0.11852">
        <ele>2371.2290039062</ele>
        <time>2015-09-10T06:15:49Z</time>
      </trkpt>
      <trkpt lat="42.77556" lon="-0.11836">
        <ele>2367.3837890625</ele>
        <time>2015-09-10T06:16:05Z</time>
      </trkpt>
      <trkpt lat="42.77556" lon="-0.11835">
        <ele>2367.3837890625</ele>
        <time>2015-09-10T06:16:06Z</time>
      </trkpt>
      <trkpt lat="42.77558" lon="-0.11825">
        <ele>2365.4614257812</ele>
        <time>2015-09-10T06:16:18Z</time>
      </trkpt>
      <trkpt lat="42.77559" lon="-0.11822">
        <ele>2365.4614257812</ele>
        <time>2015-09-10T06:16:21Z</time>
      </trkpt>
      <trkpt lat="42.77571" lon="-0.11817">
        <ele>2363.0578613281</ele>
        <time>2015-09-10T06:16:34Z</time>
      </trkpt>
      <trkpt lat="42.77571" lon="-0.11808">
        <ele>2361.6159667969</ele>
        <time>2015-09-10T06:16:44Z</time>
      </trkpt>
      <trkpt lat="42.77566" lon="-0.11794">
        <ele>2359.2126464844</ele>
        <time>2015-09-10T06:16:59Z</time>
      </trkpt>
      <trkpt lat="42.77561" lon="-0.11783">
        <ele>2356.3286132812</ele>
        <time>2015-09-10T06:17:12Z</time>
      </trkpt>
      <trkpt lat="42.77557" lon="-0.11773">
        <ele>2354.4060058594</ele>
        <time>2015-09-10T06:17:23Z</time>
      </trkpt>
      <trkpt lat="42.77555" lon="-0.11767">
        <ele>2354.4060058594</ele>
        <time>2015-09-10T06:17:28Z</time>
      </trkpt>
      <trkpt lat="42.77566" lon="-0.1177">
        <ele>2351.0415039062</ele>
        <time>2015-09-10T06:17:40Z</time>
      </trkpt>
      <trkpt lat="42.77575" lon="-0.11764">
        <ele>2348.1574707031</ele>
        <time>2015-09-10T06:17:53Z</time>
      </trkpt>
      <trkpt lat="42.77587" lon="-0.11758">
        <ele>2345.2734375</ele>
        <time>2015-09-10T06:18:06Z</time>
      </trkpt>
      <trkpt lat="42.77585" lon="-0.11751">
        <ele>2342.3896484375</ele>
        <time>2015-09-10T06:18:19Z</time>
      </trkpt>
      <trkpt lat="42.77579" lon="-0.11745">
        <ele>2339.5056152344</ele>
        <time>2015-09-10T06:18:31Z</time>
      </trkpt>
      <trkpt lat="42.77568" lon="-0.11735">
        <ele>2337.1022949219</ele>
        <time>2015-09-10T06:18:47Z</time>
      </trkpt>
      <trkpt lat="42.77561" lon="-0.11727">
        <ele>2336.1411132812</ele>
        <time>2015-09-10T06:18:58Z</time>
      </trkpt>
      <trkpt lat="42.77557" lon="-0.11723">
        <ele>2335.1796875</ele>
        <time>2015-09-10T06:19:05Z</time>
      </trkpt>
      <trkpt lat="42.77554" lon="-0.11719">
        <ele>2333.2570800781</ele>
        <time>2015-09-10T06:19:11Z</time>
      </trkpt>
      <trkpt lat="42.77548" lon="-0.11713">
        <ele>2330.8537597656</ele>
        <time>2015-09-10T06:19:24Z</time>
      </trkpt>
      <trkpt lat="42.77542" lon="-0.11709">
        <ele>2327.4890136719</ele>
        <time>2015-09-10T06:19:33Z</time>
      </trkpt>
      <trkpt lat="42.77535" lon="-0.11703">
        <ele>2326.5278320312</ele>
        <time>2015-09-10T06:19:48Z</time>
      </trkpt>
      <trkpt lat="42.77527" lon="-0.11687">
        <ele>2323.1633300781</ele>
        <time>2015-09-10T06:20:04Z</time>
      </trkpt>
      <trkpt lat="42.77526" lon="-0.11679">
        <ele>2321.2404785156</ele>
        <time>2015-09-10T06:20:10Z</time>
      </trkpt>
      <trkpt lat="42.77523" lon="-0.11673">
        <ele>2319.3181152344</ele>
        <time>2015-09-10T06:20:15Z</time>
      </trkpt>
      <trkpt lat="42.77514" lon="-0.1166">
        <ele>2316.9147949219</ele>
        <time>2015-09-10T06:20:32Z</time>
      </trkpt>
      <trkpt lat="42.77507" lon="-0.1165">
        <ele>2313.5498046875</ele>
        <time>2015-09-10T06:20:47Z</time>
      </trkpt>
      <trkpt lat="42.77504" lon="-0.11639">
        <ele>2312.1079101562</ele>
        <time>2015-09-10T06:21:00Z</time>
      </trkpt>
      <trkpt lat="42.77503" lon="-0.1164">
        <ele>2311.1467285156</ele>
        <time>2015-09-10T06:21:01Z</time>
      </trkpt>
      <trkpt lat="42.77494" lon="-0.11645">
        <ele>2309.7045898438</ele>
        <time>2015-09-10T06:21:18Z</time>
      </trkpt>
      <trkpt lat="42.77493" lon="-0.11649">
        <ele>2307.7822265625</ele>
        <time>2015-09-10T06:21:34Z</time>
      </trkpt>
      <trkpt lat="42.77487" lon="-0.11652">
        <ele>2304.4174804688</ele>
        <time>2015-09-10T06:21:53Z</time>
      </trkpt>
      <trkpt lat="42.77482" lon="-0.11661">
        <ele>2303.4562988281</ele>
        <time>2015-09-10T06:22:04Z</time>
      </trkpt>
      <trkpt lat="42.77479" lon="-0.11654">
        <ele>2301.5336914062</ele>
        <time>2015-09-10T06:22:17Z</time>
      </trkpt>
      <trkpt lat="42.77475" lon="-0.11647">
        <ele>2300.572265625</ele>
        <time>2015-09-10T06:22:28Z</time>
      </trkpt>
      <trkpt lat="42.77471" lon="-0.11651">
        <ele>2297.2075195312</ele>
        <time>2015-09-10T06:22:49Z</time>
      </trkpt>
      <trkpt lat="42.77468" lon="-0.11656">
        <ele>2294.8041992188</ele>
        <time>2015-09-10T06:23:00Z</time>
      </trkpt>
      <trkpt lat="42.77464" lon="-0.11664">
        <ele>2292.8815917969</ele>
        <time>2015-09-10T06:23:12Z</time>
      </trkpt>
      <trkpt lat="42.77461" lon="-0.11671">
        <ele>2290.4782714844</ele>
        <time>2015-09-10T06:23:23Z</time>
      </trkpt>
      <trkpt lat="42.77453" lon="-0.1168">
        <ele>2286.6330566406</ele>
        <time>2015-09-10T06:23:36Z</time>
      </trkpt>
      <trkpt lat="42.77443" lon="-0.1169">
        <ele>2285.1911621094</ele>
        <time>2015-09-10T06:23:50Z</time>
      </trkpt>
      <trkpt lat="42.77436" lon="-0.117">
        <ele>2281.8264160156</ele>
        <time>2015-09-10T06:24:02Z</time>
      </trkpt>
      <trkpt lat="42.77434" lon="-0.11706">
        <ele>2280.3845214844</ele>
        <time>2015-09-10T06:24:08Z</time>
      </trkpt>
      <trkpt lat="42.77431" lon="-0.11726">
        <ele>2277.5004882812</ele>
        <time>2015-09-10T06:24:25Z</time>
      </trkpt>
      <trkpt lat="42.77428" lon="-0.11726">
        <ele>2276.5393066406</ele>
        <time>2015-09-10T06:24:29Z</time>
      </trkpt>
      <trkpt lat="42.77417" lon="-0.11707">
        <ele>2273.1748046875</ele>
        <time>2015-09-10T06:24:44Z</time>
      </trkpt>
      <trkpt lat="42.77414" lon="-0.11696">
        <ele>2270.771484375</ele>
        <time>2015-09-10T06:24:51Z</time>
      </trkpt>
      <trkpt lat="42.77412" lon="-0.11673">
        <ele>2268.8488769531</ele>
        <time>2015-09-10T06:25:08Z</time>
      </trkpt>
      <trkpt lat="42.77412" lon="-0.11652">
        <ele>2265.4841308594</ele>
        <time>2015-09-10T06:25:23Z</time>
      </trkpt>
      <trkpt lat="42.77413" lon="-0.1165">
        <ele>2263.0808105469</ele>
        <time>2015-09-10T06:25:36Z</time>
      </trkpt>
      <trkpt lat="42.77407" lon="-0.11659">
        <ele>2260.1967773438</ele>
        <time>2015-09-10T06:25:46Z</time>
      </trkpt>
      <trkpt lat="42.77406" lon="-0.1166">
        <ele>2260.1967773438</ele>
        <time>2015-09-10T06:25:47Z</time>
      </trkpt>
      <trkpt lat="42.77399" lon="-0.11668">
        <ele>2258.2741699219</ele>
        <time>2015-09-10T06:25:58Z</time>
      </trkpt>
      <trkpt lat="42.77391" lon="-0.11675">
        <ele>2255.3903808594</ele>
        <time>2015-09-10T06:26:12Z</time>
      </trkpt>
      <trkpt lat="42.77383" lon="-0.11684">
        <ele>2252.0256347656</ele>
        <time>2015-09-10T06:26:25Z</time>
      </trkpt>
      <trkpt lat="42.7738" lon="-0.11698">
        <ele>2249.6223144531</ele>
        <time>2015-09-10T06:26:38Z</time>
      </trkpt>
      <trkpt lat="42.77373" lon="-0.11689">
        <ele>2247.2189941406</ele>
        <time>2015-09-10T06:26:52Z</time>
      </trkpt>
      <trkpt lat="42.77368" lon="-0.11674">
        <ele>2244.3349609375</ele>
        <time>2015-09-10T06:27:06Z</time>
      </trkpt>
      <trkpt lat="42.77368" lon="-0.11673">
        <ele>2243.8544921875</ele>
        <time>2015-09-10T06:27:07Z</time>
      </trkpt>
      <trkpt lat="42.77361" lon="-0.11681">
        <ele>2240.9704589844</ele>
        <time>2015-09-10T06:27:22Z</time>
      </trkpt>
      <trkpt lat="42.77363" lon="-0.11703">
        <ele>2238.0866699219</ele>
        <time>2015-09-10T06:27:39Z</time>
      </trkpt>
      <trkpt lat="42.77364" lon="-0.11714">
        <ele>2236.1640625</ele>
        <time>2015-09-10T06:27:47Z</time>
      </trkpt>
      <trkpt lat="42.77368" lon="-0.11734">
        <ele>2233.7604980469</ele>
        <time>2015-09-10T06:28:05Z</time>
      </trkpt>
      <trkpt lat="42.77371" lon="-0.11754">
        <ele>2229.9152832031</ele>
        <time>2015-09-10T06:28:20Z</time>
      </trkpt>
      <trkpt lat="42.77372" lon="-0.11767">
        <ele>2226.55078125</ele>
        <time>2015-09-10T06:28:32Z</time>
      </trkpt>
      <trkpt lat="42.77371" lon="-0.11793">
        <ele>2225.1086425781</ele>
        <time>2015-09-10T06:28:50Z</time>
      </trkpt>
      <trkpt lat="42.77371" lon="-0.11804">
        <ele>2224.6281738281</ele>
        <time>2015-09-10T06:28:57Z</time>
      </trkpt>
      <trkpt lat="42.7737" lon="-0.11821">
        <ele>2223.6667480469</ele>
        <time>2015-09-10T06:29:09Z</time>
      </trkpt>
      <trkpt lat="42.77367" lon="-0.1184">
        <ele>2223.6667480469</ele>
        <time>2015-09-10T06:29:21Z</time>
      </trkpt>
      <trkpt lat="42.7736" lon="-0.11854">
        <ele>2222.7055664062</ele>
        <time>2015-09-10T06:29:35Z</time>
      </trkpt>
      <trkpt lat="42.77356" lon="-0.11858">
        <ele>2222.7055664062</ele>
        <time>2015-09-10T06:29:41Z</time>
      </trkpt>
      <trkpt lat="42.77349" lon="-0.11867">
        <ele>2224.6281738281</ele>
        <time>2015-09-10T06:29:53Z</time>
      </trkpt>
      <trkpt lat="42.77347" lon="-0.11876">
        <ele>2226.0700683594</ele>
        <time>2015-09-10T06:30:06Z</time>
      </trkpt>
      <trkpt lat="42.77343" lon="-0.11888">
        <ele>2225.5893554688</ele>
        <time>2015-09-10T06:30:27Z</time>
      </trkpt>
      <trkpt lat="42.77334" lon="-0.11891">
        <ele>2224.6281738281</ele>
        <time>2015-09-10T06:30:43Z</time>
      </trkpt>
      <trkpt lat="42.77325" lon="-0.11895">
        <ele>2224.6281738281</ele>
        <time>2015-09-10T06:30:57Z</time>
      </trkpt>
      <trkpt lat="42.77316" lon="-0.11901">
        <ele>2224.1474609375</ele>
        <time>2015-09-10T06:31:10Z</time>
      </trkpt>
      <trkpt lat="42.77312" lon="-0.11903">
        <ele>2223.6667480469</ele>
        <time>2015-09-10T06:31:14Z</time>
      </trkpt>
      <trkpt lat="42.77299" lon="-0.11908">
        <ele>2223.1862792969</ele>
        <time>2015-09-10T06:31:26Z</time>
      </trkpt>
      <trkpt lat="42.77297" lon="-0.11907">
        <ele>2222.7055664062</ele>
        <time>2015-09-10T06:31:28Z</time>
      </trkpt>
      <trkpt lat="42.77282" lon="-0.11911">
        <ele>2222.7055664062</ele>
        <time>2015-09-10T06:31:41Z</time>
      </trkpt>
      <trkpt lat="42.77272" lon="-0.11911">
        <ele>2221.2634277344</ele>
        <time>2015-09-10T06:31:52Z</time>
      </trkpt>
      <trkpt lat="42.77265" lon="-0.11906">
        <ele>2221.2634277344</ele>
        <time>2015-09-10T06:31:58Z</time>
      </trkpt>
      <trkpt lat="42.77261" lon="-0.11907">
        <ele>2221.744140625</ele>
        <time>2015-09-10T06:32:02Z</time>
      </trkpt>
      <trkpt lat="42.77259" lon="-0.11909">
        <ele>2221.744140625</ele>
        <time>2015-09-10T06:32:05Z</time>
      </trkpt>
      <trkpt lat="42.7725" lon="-0.1191">
        <ele>2222.7055664062</ele>
        <time>2015-09-10T06:32:16Z</time>
      </trkpt>
      <trkpt lat="42.77246" lon="-0.11912">
        <ele>2223.1862792969</ele>
        <time>2015-09-10T06:32:23Z</time>
      </trkpt>
      <trkpt lat="42.7723" lon="-0.11889">
        <ele>2224.1474609375</ele>
        <time>2015-09-10T06:32:41Z</time>
      </trkpt>
      <trkpt lat="42.77215" lon="-0.11872">
        <ele>2227.0314941406</ele>
        <time>2015-09-10T06:32:59Z</time>
      </trkpt>
      <trkpt lat="42.77208" lon="-0.11869">
        <ele>2227.5119628906</ele>
        <time>2015-09-10T06:33:14Z</time>
      </trkpt>
      <trkpt lat="42.77201" lon="-0.11861">
        <ele>2227.0314941406</ele>
        <time>2015-09-10T06:33:41Z</time>
      </trkpt>
      <trkpt lat="42.7719" lon="-0.11854">
        <ele>2230.3959960938</ele>
        <time>2015-09-10T06:34:02Z</time>
      </trkpt>
      <trkpt lat="42.77183" lon="-0.11849">
        <ele>2231.837890625</ele>
        <time>2015-09-10T06:34:13Z</time>
      </trkpt>
      <trkpt lat="42.77171" lon="-0.11838">
        <ele>2235.2023925781</ele>
        <time>2015-09-10T06:34:38Z</time>
      </trkpt>
      <trkpt lat="42.77166" lon="-0.11827">
        <ele>2238.5673828125</ele>
        <time>2015-09-10T06:34:50Z</time>
      </trkpt>
      <trkpt lat="42.77165" lon="-0.11825">
        <ele>2238.5673828125</ele>
        <time>2015-09-10T06:34:52Z</time>
      </trkpt>
      <trkpt lat="42.77156" lon="-0.11824">
        <ele>2239.5285644531</ele>
        <time>2015-09-10T06:35:05Z</time>
      </trkpt>
      <trkpt lat="42.77149" lon="-0.11825">
        <ele>2241.9318847656</ele>
        <time>2015-09-10T06:35:17Z</time>
      </trkpt>
      <trkpt lat="42.77137" lon="-0.11826">
        <ele>2241.451171875</ele>
        <time>2015-09-10T06:35:30Z</time>
      </trkpt>
      <trkpt lat="42.77133" lon="-0.11826">
        <ele>2238.0866699219</ele>
        <time>2015-09-10T06:35:47Z</time>
      </trkpt>
      <trkpt lat="42.77132" lon="-0.11825">
        <ele>2238.5673828125</ele>
        <time>2015-09-10T06:35:51Z</time>
      </trkpt>
      <trkpt lat="42.77123" lon="-0.11831">
        <ele>2236.1640625</ele>
        <time>2015-09-10T06:36:09Z</time>
      </trkpt>
      <trkpt lat="42.77115" lon="-0.11829">
        <ele>2233.2797851562</ele>
        <time>2015-09-10T06:36:25Z</time>
      </trkpt>
      <trkpt lat="42.77108" lon="-0.1182">
        <ele>2230.8767089844</ele>
        <time>2015-09-10T06:36:40Z</time>
      </trkpt>
      <trkpt lat="42.771" lon="-0.11814">
        <ele>2228.4733886719</ele>
        <time>2015-09-10T06:36:55Z</time>
      </trkpt>
      <trkpt lat="42.77092" lon="-0.11817">
        <ele>2225.5893554688</ele>
        <time>2015-09-10T06:37:07Z</time>
      </trkpt>
      <trkpt lat="42.77083" lon="-0.1182">
        <ele>2224.1474609375</ele>
        <time>2015-09-10T06:37:18Z</time>
      </trkpt>
      <trkpt lat="42.77075" lon="-0.11819">
        <ele>2222.7055664062</ele>
        <time>2015-09-10T06:37:33Z</time>
      </trkpt>
      <trkpt lat="42.77068" lon="-0.1182">
        <ele>2220.3022460938</ele>
        <time>2015-09-10T06:37:45Z</time>
      </trkpt>
      <trkpt lat="42.77059" lon="-0.11823">
        <ele>2218.8601074219</ele>
        <time>2015-09-10T06:38:03Z</time>
      </trkpt>
      <trkpt lat="42.77054" lon="-0.11823">
        <ele>2215.4956054688</ele>
        <time>2015-09-10T06:38:18Z</time>
      </trkpt>
      <trkpt lat="42.77047" lon="-0.11826">
        <ele>2213.5727539062</ele>
        <time>2015-09-10T06:38:31Z</time>
      </trkpt>
      <trkpt lat="42.7704" lon="-0.11827">
        <ele>2211.1696777344</ele>
        <time>2015-09-10T06:38:44Z</time>
      </trkpt>
      <trkpt lat="42.77042" lon="-0.11819">
        <ele>2208.2856445312</ele>
        <time>2015-09-10T06:38:57Z</time>
      </trkpt>
      <trkpt lat="42.77047" lon="-0.11813">
        <ele>2206.84375</ele>
        <time>2015-09-10T06:39:08Z</time>
      </trkpt>
      <trkpt lat="42.7705" lon="-0.11809">
        <ele>2204.9211425781</ele>
        <time>2015-09-10T06:39:24Z</time>
      </trkpt>
      <trkpt lat="42.77042" lon="-0.11808">
        <ele>2202.9982910156</ele>
        <time>2015-09-10T06:39:36Z</time>
      </trkpt>
      <trkpt lat="42.77036" lon="-0.11812">
        <ele>2199.6337890625</ele>
        <time>2015-09-10T06:39:45Z</time>
      </trkpt>
      <trkpt lat="42.77027" lon="-0.11818">
        <ele>2198.1916503906</ele>
        <time>2015-09-10T06:39:54Z</time>
      </trkpt>
      <trkpt lat="42.77019" lon="-0.11815">
        <ele>2194.8271484375</ele>
        <time>2015-09-10T06:40:07Z</time>
      </trkpt>
      <trkpt lat="42.77014" lon="-0.11806">
        <ele>2191.943359375</ele>
        <time>2015-09-10T06:40:23Z</time>
      </trkpt>
      <trkpt lat="42.77014" lon="-0.11818">
        <ele>2189.5400390625</ele>
        <time>2015-09-10T06:40:38Z</time>
      </trkpt>
      <trkpt lat="42.77015" lon="-0.11828">
        <ele>2186.1752929688</ele>
        <time>2015-09-10T06:40:54Z</time>
      </trkpt>
      <trkpt lat="42.77018" lon="-0.11841">
        <ele>2182.810546875</ele>
        <time>2015-09-10T06:41:18Z</time>
      </trkpt>
      <trkpt lat="42.77015" lon="-0.11852">
        <ele>2180.8881835938</ele>
        <time>2015-09-10T06:41:32Z</time>
      </trkpt>
      <trkpt lat="42.77009" lon="-0.1186">
        <ele>2178.9653320312</ele>
        <time>2015-09-10T06:41:47Z</time>
      </trkpt>
      <trkpt lat="42.77008" lon="-0.11861">
        <ele>2178.4848632812</ele>
        <time>2015-09-10T06:41:49Z</time>
      </trkpt>
      <trkpt lat="42.77003" lon="-0.1187">
        <ele>2175.1201171875</ele>
        <time>2015-09-10T06:42:00Z</time>
      </trkpt>
      <trkpt lat="42.76997" lon="-0.11876">
        <ele>2174.1589355469</ele>
        <time>2015-09-10T06:42:11Z</time>
      </trkpt>
      <trkpt lat="42.76997" lon="-0.11869">
        <ele>2173.6782226562</ele>
        <time>2015-09-10T06:42:16Z</time>
      </trkpt>
      <trkpt lat="42.76992" lon="-0.11848">
        <ele>2170.3134765625</ele>
        <time>2015-09-10T06:42:28Z</time>
      </trkpt>
      <trkpt lat="42.76988" lon="-0.11836">
        <ele>2168.3908691406</ele>
        <time>2015-09-10T06:42:40Z</time>
      </trkpt>
      <trkpt lat="42.76987" lon="-0.11821">
        <ele>2166.4682617188</ele>
        <time>2015-09-10T06:42:53Z</time>
      </trkpt>
      <trkpt lat="42.76986" lon="-0.11819">
        <ele>2164.0649414062</ele>
        <time>2015-09-10T06:42:59Z</time>
      </trkpt>
      <trkpt lat="42.76987" lon="-0.11813">
        <ele>2161.1811523438</ele>
        <time>2015-09-10T06:43:11Z</time>
      </trkpt>
      <trkpt lat="42.76985" lon="-0.11799">
        <ele>2157.8166503906</ele>
        <time>2015-09-10T06:43:22Z</time>
      </trkpt>
      <trkpt lat="42.76984" lon="-0.1179">
        <ele>2155.4130859375</ele>
        <time>2015-09-10T06:43:33Z</time>
      </trkpt>
      <trkpt lat="42.76983" lon="-0.11777">
        <ele>2153.009765625</ele>
        <time>2015-09-10T06:43:46Z</time>
      </trkpt>
      <trkpt lat="42.7698" lon="-0.11764">
        <ele>2150.1259765625</ele>
        <time>2015-09-10T06:43:57Z</time>
      </trkpt>
      <trkpt lat="42.76979" lon="-0.11762">
        <ele>2149.1645507812</ele>
        <time>2015-09-10T06:44:00Z</time>
      </trkpt>
      <trkpt lat="42.76974" lon="-0.11753">
        <ele>2148.203125</ele>
        <time>2015-09-10T06:44:07Z</time>
      </trkpt>
      <trkpt lat="42.76971" lon="-0.11754">
        <ele>2144.3579101562</ele>
        <time>2015-09-10T06:44:19Z</time>
      </trkpt>
      <trkpt lat="42.7697" lon="-0.11755">
        <ele>2144.3579101562</ele>
        <time>2015-09-10T06:44:20Z</time>
      </trkpt>
      <trkpt lat="42.7697" lon="-0.11757">
        <ele>2144.3579101562</ele>
        <time>2015-09-10T06:44:21Z</time>
      </trkpt>
      <trkpt lat="42.76966" lon="-0.11772">
        <ele>2141.4741210938</ele>
        <time>2015-09-10T06:44:33Z</time>
      </trkpt>
      <trkpt lat="42.76964" lon="-0.11776">
        <ele>2140.5126953125</ele>
        <time>2015-09-10T06:44:36Z</time>
      </trkpt>
      <trkpt lat="42.7696" lon="-0.11786">
        <ele>2138.109375</ele>
        <time>2015-09-10T06:44:46Z</time>
      </trkpt>
      <trkpt lat="42.76956" lon="-0.11792">
        <ele>2136.6672363281</ele>
        <time>2015-09-10T06:44:55Z</time>
      </trkpt>
      <trkpt lat="42.76952" lon="-0.11802">
        <ele>2134.2641601562</ele>
        <time>2015-09-10T06:45:06Z</time>
      </trkpt>
      <trkpt lat="42.76947" lon="-0.11811">
        <ele>2131.3801269531</ele>
        <time>2015-09-10T06:45:17Z</time>
      </trkpt>
      <trkpt lat="42.76944" lon="-0.1182">
        <ele>2128.9768066406</ele>
        <time>2015-09-10T06:45:25Z</time>
      </trkpt>
      <trkpt lat="42.76939" lon="-0.11831">
        <ele>2127.0544433594</ele>
        <time>2015-09-10T06:45:37Z</time>
      </trkpt>
      <trkpt lat="42.76934" lon="-0.11839">
        <ele>2124.6511230469</ele>
        <time>2015-09-10T06:45:48Z</time>
      </trkpt>
      <trkpt lat="42.76927" lon="-0.11852">
        <ele>2121.2861328125</ele>
        <time>2015-09-10T06:46:01Z</time>
      </trkpt>
      <trkpt lat="42.76926" lon="-0.11855">
        <ele>2121.2861328125</ele>
        <time>2015-09-10T06:46:04Z</time>
      </trkpt>
      <trkpt lat="42.76922" lon="-0.11863">
        <ele>2118.8830566406</ele>
        <time>2015-09-10T06:46:13Z</time>
      </trkpt>
      <trkpt lat="42.76919" lon="-0.1185">
        <ele>2115.5185546875</ele>
        <time>2015-09-10T06:46:22Z</time>
      </trkpt>
      <trkpt lat="42.76919" lon="-0.11849">
        <ele>2116.4797363281</ele>
        <time>2015-09-10T06:46:23Z</time>
      </trkpt>
      <trkpt lat="42.76913" lon="-0.1183">
        <ele>2113.595703125</ele>
        <time>2015-09-10T06:46:39Z</time>
      </trkpt>
      <trkpt lat="42.76913" lon="-0.11831">
        <ele>2112.6345214844</ele>
        <time>2015-09-10T06:46:41Z</time>
      </trkpt>
      <trkpt lat="42.76902" lon="-0.1185">
        <ele>2110.2312011719</ele>
        <time>2015-09-10T06:46:56Z</time>
      </trkpt>
      <trkpt lat="42.76894" lon="-0.11863">
        <ele>2109.2700195312</ele>
        <time>2015-09-10T06:47:09Z</time>
      </trkpt>
      <trkpt lat="42.76893" lon="-0.11866">
        <ele>2107.8278808594</ele>
        <time>2015-09-10T06:47:12Z</time>
      </trkpt>
      <trkpt lat="42.76891" lon="-0.11872">
        <ele>2106.8664550781</ele>
        <time>2015-09-10T06:47:19Z</time>
      </trkpt>
      <trkpt lat="42.76893" lon="-0.11882">
        <ele>2106.3857421875</ele>
        <time>2015-09-10T06:47:27Z</time>
      </trkpt>
      <trkpt lat="42.76887" lon="-0.11887">
        <ele>2105.9050292969</ele>
        <time>2015-09-10T06:47:36Z</time>
      </trkpt>
      <trkpt lat="42.7688" lon="-0.11891">
        <ele>2104.4631347656</ele>
        <time>2015-09-10T06:47:47Z</time>
      </trkpt>
      <trkpt lat="42.76872" lon="-0.11902">
        <ele>2103.9826660156</ele>
        <time>2015-09-10T06:48:03Z</time>
      </trkpt>
      <trkpt lat="42.76866" lon="-0.11904">
        <ele>2103.0212402344</ele>
        <time>2015-09-10T06:48:27Z</time>
      </trkpt>
      <trkpt lat="42.76865" lon="-0.11904">
        <ele>2103.501953125</ele>
        <time>2015-09-10T06:48:29Z</time>
      </trkpt>
      <trkpt lat="42.7686" lon="-0.11896">
        <ele>2102.0598144531</ele>
        <time>2015-09-10T06:48:39Z</time>
      </trkpt>
      <trkpt lat="42.76848" lon="-0.11881">
        <ele>2102.0598144531</ele>
        <time>2015-09-10T06:48:54Z</time>
      </trkpt>
      <trkpt lat="42.76845" lon="-0.11878">
        <ele>2101.5793457031</ele>
        <time>2015-09-10T06:48:57Z</time>
      </trkpt>
      <trkpt lat="42.76829" lon="-0.11867">
        <ele>2099.1760253906</ele>
        <time>2015-09-10T06:49:16Z</time>
      </trkpt>
      <trkpt lat="42.76817" lon="-0.11858">
        <ele>2096.2922363281</ele>
        <time>2015-09-10T06:49:29Z</time>
      </trkpt>
      <trkpt lat="42.76801" lon="-0.11852">
        <ele>2093.408203125</ele>
        <time>2015-09-10T06:49:45Z</time>
      </trkpt>
      <trkpt lat="42.76791" lon="-0.11852">
        <ele>2092.4470214844</ele>
        <time>2015-09-10T06:49:56Z</time>
      </trkpt>
      <trkpt lat="42.76783" lon="-0.11844">
        <ele>2090.0434570312</ele>
        <time>2015-09-10T06:50:10Z</time>
      </trkpt>
      <trkpt lat="42.76792" lon="-0.1183">
        <ele>2088.1208496094</ele>
        <time>2015-09-10T06:50:25Z</time>
      </trkpt>
      <trkpt lat="42.76785" lon="-0.1183">
        <ele>2085.2368164062</ele>
        <time>2015-09-10T06:50:34Z</time>
      </trkpt>
      <trkpt lat="42.76784" lon="-0.1183">
        <ele>2085.2368164062</ele>
        <time>2015-09-10T06:50:35Z</time>
      </trkpt>
      <trkpt lat="42.76779" lon="-0.11829">
        <ele>2083.794921875</ele>
        <time>2015-09-10T06:50:46Z</time>
      </trkpt>
      <trkpt lat="42.76769" lon="-0.11829">
        <ele>2080.4304199219</ele>
        <time>2015-09-10T06:51:00Z</time>
      </trkpt>
      <trkpt lat="42.76761" lon="-0.11828">
        <ele>2077.0659179688</ele>
        <time>2015-09-10T06:51:10Z</time>
      </trkpt>
      <trkpt lat="42.76755" lon="-0.11819">
        <ele>2075.1428222656</ele>
        <time>2015-09-10T06:51:26Z</time>
      </trkpt>
      <trkpt lat="42.76752" lon="-0.1181">
        <ele>2074.6623535156</ele>
        <time>2015-09-10T06:51:39Z</time>
      </trkpt>
      <trkpt lat="42.76753" lon="-0.11802">
        <ele>2074.181640625</ele>
        <time>2015-09-10T06:51:52Z</time>
      </trkpt>
      <trkpt lat="42.76753" lon="-0.11798">
        <ele>2073.7009277344</ele>
        <time>2015-09-10T06:51:55Z</time>
      </trkpt>
      <trkpt lat="42.76751" lon="-0.11782">
        <ele>2072.7397460938</ele>
        <time>2015-09-10T06:52:09Z</time>
      </trkpt>
      <trkpt lat="42.76741" lon="-0.11767">
        <ele>2072.2590332031</ele>
        <time>2015-09-10T06:52:25Z</time>
      </trkpt>
      <trkpt lat="42.76735" lon="-0.11751">
        <ele>2071.2976074219</ele>
        <time>2015-09-10T06:52:37Z</time>
      </trkpt>
      <trkpt lat="42.7673" lon="-0.11725">
        <ele>2069.8557128906</ele>
        <time>2015-09-10T06:52:53Z</time>
      </trkpt>
      <trkpt lat="42.76726" lon="-0.11716">
        <ele>2068.89453125</ele>
        <time>2015-09-10T06:53:03Z</time>
      </trkpt>
      <trkpt lat="42.76727" lon="-0.11694">
        <ele>2067.9331054688</ele>
        <time>2015-09-10T06:53:17Z</time>
      </trkpt>
      <trkpt lat="42.7672" lon="-0.11662">
        <ele>2068.4138183594</ele>
        <time>2015-09-10T06:53:37Z</time>
      </trkpt>
      <trkpt lat="42.76724" lon="-0.11646">
        <ele>2066.4912109375</ele>
        <time>2015-09-10T06:53:54Z</time>
      </trkpt>
      <trkpt lat="42.76724" lon="-0.11631">
        <ele>2063.1267089844</ele>
        <time>2015-09-10T06:54:08Z</time>
      </trkpt>
      <trkpt lat="42.76724" lon="-0.11627">
        <ele>2062.6459960938</ele>
        <time>2015-09-10T06:54:14Z</time>
      </trkpt>
      <trkpt lat="42.76721" lon="-0.11606">
        <ele>2061.2041015625</ele>
        <time>2015-09-10T06:54:32Z</time>
      </trkpt>
      <trkpt lat="42.76716" lon="-0.11594">
        <ele>2060.2426757812</ele>
        <time>2015-09-10T06:54:45Z</time>
      </trkpt>
      <trkpt lat="42.76714" lon="-0.11589">
        <ele>2058.3198242188</ele>
        <time>2015-09-10T06:54:50Z</time>
      </trkpt>
      <trkpt lat="42.7671" lon="-0.11574">
        <ele>2056.3972167969</ele>
        <time>2015-09-10T06:55:04Z</time>
      </trkpt>
      <trkpt lat="42.7671" lon="-0.1157">
        <ele>2055.9165039062</ele>
        <time>2015-09-10T06:55:08Z</time>
      </trkpt>
      <trkpt lat="42.76723" lon="-0.11593">
        <ele>2053.5134277344</ele>
        <time>2015-09-10T06:55:25Z</time>
      </trkpt>
      <trkpt lat="42.76724" lon="-0.11591">
        <ele>2051.5908203125</ele>
        <time>2015-09-10T06:55:38Z</time>
      </trkpt>
      <trkpt lat="42.76723" lon="-0.11581">
        <ele>2048.7067871094</ele>
        <time>2015-09-10T06:55:48Z</time>
      </trkpt>
      <trkpt lat="42.7672" lon="-0.11562">
        <ele>2044.8615722656</ele>
        <time>2015-09-10T06:56:06Z</time>
      </trkpt>
      <trkpt lat="42.76719" lon="-0.11561">
        <ele>2045.3422851562</ele>
        <time>2015-09-10T06:56:07Z</time>
      </trkpt>
      <trkpt lat="42.76717" lon="-0.11556">
        <ele>2043.4194335938</ele>
        <time>2015-09-10T06:56:11Z</time>
      </trkpt>
      <trkpt lat="42.7671" lon="-0.11551">
        <ele>2042.9387207031</ele>
        <time>2015-09-10T06:56:25Z</time>
      </trkpt>
      <trkpt lat="42.76703" lon="-0.11556">
        <ele>2041.4968261719</ele>
        <time>2015-09-10T06:56:38Z</time>
      </trkpt>
      <trkpt lat="42.76691" lon="-0.11553">
        <ele>2039.57421875</ele>
        <time>2015-09-10T06:56:52Z</time>
      </trkpt>
      <trkpt lat="42.7668" lon="-0.11539">
        <ele>2036.2097167969</ele>
        <time>2015-09-10T06:57:04Z</time>
      </trkpt>
      <trkpt lat="42.76673" lon="-0.11521">
        <ele>2033.3256835938</ele>
        <time>2015-09-10T06:57:17Z</time>
      </trkpt>
      <trkpt lat="42.76661" lon="-0.11498">
        <ele>2031.4030761719</ele>
        <time>2015-09-10T06:57:36Z</time>
      </trkpt>
      <trkpt lat="42.76659" lon="-0.11493">
        <ele>2031.4030761719</ele>
        <time>2015-09-10T06:57:40Z</time>
      </trkpt>
      <trkpt lat="42.76657" lon="-0.11492">
        <ele>2030.4418945312</ele>
        <time>2015-09-10T06:57:42Z</time>
      </trkpt>
      <trkpt lat="42.76645" lon="-0.11468">
        <ele>2028.9997558594</ele>
        <time>2015-09-10T06:58:01Z</time>
      </trkpt>
      <trkpt lat="42.76644" lon="-0.11466">
        <ele>2029.48046875</ele>
        <time>2015-09-10T06:58:03Z</time>
      </trkpt>
      <trkpt lat="42.76634" lon="-0.11459">
        <ele>2027.0771484375</ele>
        <time>2015-09-10T06:58:15Z</time>
      </trkpt>
      <trkpt lat="42.76623" lon="-0.11439">
        <ele>2025.6350097656</ele>
        <time>2015-09-10T06:58:32Z</time>
      </trkpt>
      <trkpt lat="42.76608" lon="-0.11423">
        <ele>2025.6350097656</ele>
        <time>2015-09-10T06:58:47Z</time>
      </trkpt>
      <trkpt lat="42.76599" lon="-0.11415">
        <ele>2025.154296875</ele>
        <time>2015-09-10T06:59:00Z</time>
      </trkpt>
      <trkpt lat="42.76587" lon="-0.11387">
        <ele>2024.1931152344</ele>
        <time>2015-09-10T06:59:18Z</time>
      </trkpt>
      <trkpt lat="42.7658" lon="-0.11369">
        <ele>2021.7897949219</ele>
        <time>2015-09-10T06:59:33Z</time>
      </trkpt>
      <trkpt lat="42.76577" lon="-0.11359">
        <ele>2018.4252929688</ele>
        <time>2015-09-10T06:59:44Z</time>
      </trkpt>
      <trkpt lat="42.76577" lon="-0.11359">
        <ele>2018.4252929688</ele>
        <time>2015-09-10T06:59:45Z</time>
      </trkpt>
      <trkpt lat="42.76578" lon="-0.11358">
        <ele>2020.3479003906</ele>
        <time>2015-09-10T06:59:49Z</time>
      </trkpt>
      <trkpt lat="42.76577" lon="-0.11356">
        <ele>2018.9060058594</ele>
        <time>2015-09-10T06:59:51Z</time>
      </trkpt>
      <trkpt lat="42.76577" lon="-0.11346">
        <ele>2015.5415039062</ele>
        <time>2015-09-10T07:00:06Z</time>
      </trkpt>
      <trkpt lat="42.76576" lon="-0.11336">
        <ele>2013.1381835938</ele>
        <time>2015-09-10T07:00:21Z</time>
      </trkpt>
      <trkpt lat="42.76575" lon="-0.11334">
        <ele>2012.1767578125</ele>
        <time>2015-09-10T07:00:23Z</time>
      </trkpt>
      <trkpt lat="42.76573" lon="-0.11325">
        <ele>2008.8120117188</ele>
        <time>2015-09-10T07:00:36Z</time>
      </trkpt>
      <trkpt lat="42.76572" lon="-0.11323">
        <ele>2008.8120117188</ele>
        <time>2015-09-10T07:00:38Z</time>
      </trkpt>
      <trkpt lat="42.76566" lon="-0.11297">
        <ele>2006.4086914062</ele>
        <time>2015-09-10T07:00:53Z</time>
      </trkpt>
      <trkpt lat="42.76567" lon="-0.11278">
        <ele>2004.0056152344</ele>
        <time>2015-09-10T07:01:08Z</time>
      </trkpt>
      <trkpt lat="42.76566" lon="-0.11267">
        <ele>2002.0827636719</ele>
        <time>2015-09-10T07:01:23Z</time>
      </trkpt>
      <trkpt lat="42.76563" lon="-0.11261">
        <ele>1999.6796875</ele>
        <time>2015-09-10T07:01:38Z</time>
      </trkpt>
      <trkpt lat="42.76562" lon="-0.1126">
        <ele>1999.1989746094</ele>
        <time>2015-09-10T07:01:39Z</time>
      </trkpt>
      <trkpt lat="42.76547" lon="-0.11253">
        <ele>1999.1989746094</ele>
        <time>2015-09-10T07:01:54Z</time>
      </trkpt>
      <trkpt lat="42.76537" lon="-0.11253">
        <ele>2000.6408691406</ele>
        <time>2015-09-10T07:02:07Z</time>
      </trkpt>
      <trkpt lat="42.76526" lon="-0.11249">
        <ele>2001.6022949219</ele>
        <time>2015-09-10T07:02:23Z</time>
      </trkpt>
      <trkpt lat="42.7652" lon="-0.11247">
        <ele>2004.0056152344</ele>
        <time>2015-09-10T07:02:34Z</time>
      </trkpt>
      <trkpt lat="42.76512" lon="-0.11244">
        <ele>2006.4086914062</ele>
        <time>2015-09-10T07:02:48Z</time>
      </trkpt>
      <trkpt lat="42.76506" lon="-0.11245">
        <ele>2009.2927246094</ele>
        <time>2015-09-10T07:03:04Z</time>
      </trkpt>
      <trkpt lat="42.76497" lon="-0.11251">
        <ele>2010.7346191406</ele>
        <time>2015-09-10T07:03:23Z</time>
      </trkpt>
      <trkpt lat="42.76487" lon="-0.11252">
        <ele>2010.25390625</ele>
        <time>2015-09-10T07:03:36Z</time>
      </trkpt>
      <trkpt lat="42.76479" lon="-0.11253">
        <ele>2007.8508300781</ele>
        <time>2015-09-10T07:03:48Z</time>
      </trkpt>
      <trkpt lat="42.76471" lon="-0.11255">
        <ele>2004.966796875</ele>
        <time>2015-09-10T07:04:05Z</time>
      </trkpt>
      <trkpt lat="42.76462" lon="-0.11257">
        <ele>2003.0441894531</ele>
        <time>2015-09-10T07:04:23Z</time>
      </trkpt>
      <trkpt lat="42.76453" lon="-0.11257">
        <ele>1999.1989746094</ele>
        <time>2015-09-10T07:04:42Z</time>
      </trkpt>
      <trkpt lat="42.76442" lon="-0.11267">
        <ele>1995.8342285156</ele>
        <time>2015-09-10T07:05:01Z</time>
      </trkpt>
      <trkpt lat="42.76435" lon="-0.11283">
        <ele>1992.4697265625</ele>
        <time>2015-09-10T07:05:21Z</time>
      </trkpt>
      <trkpt lat="42.76435" lon="-0.11292">
        <ele>1991.0275878906</ele>
        <time>2015-09-10T07:05:38Z</time>
      </trkpt>
      <trkpt lat="42.76434" lon="-0.11293">
        <ele>1987.6630859375</ele>
        <time>2015-09-10T07:05:48Z</time>
      </trkpt>
      <trkpt lat="42.76425" lon="-0.11295">
        <ele>1984.2985839844</ele>
        <time>2015-09-10T07:06:01Z</time>
      </trkpt>
      <trkpt lat="42.76403" lon="-0.11303">
        <ele>1981.4145507812</ele>
        <time>2015-09-10T07:06:28Z</time>
      </trkpt>
      <trkpt lat="42.76401" lon="-0.11286">
        <ele>1980.4533691406</ele>
        <time>2015-09-10T07:06:50Z</time>
      </trkpt>
      <trkpt lat="42.764" lon="-0.11276">
        <ele>1977.5690917969</ele>
        <time>2015-09-10T07:07:00Z</time>
      </trkpt>
      <trkpt lat="42.76408" lon="-0.11279">
        <ele>1980.9340820312</ele>
        <time>2015-09-10T07:07:26Z</time>
      </trkpt>
      <trkpt lat="42.76407" lon="-0.11279">
        <ele>1977.5690917969</ele>
        <time>2015-09-10T07:07:27Z</time>
      </trkpt>
      <trkpt lat="42.76409" lon="-0.11277">
        <ele>1979.9724121094</ele>
        <time>2015-09-10T07:07:35Z</time>
      </trkpt>
      <trkpt lat="42.76408" lon="-0.11275">
        <ele>1977.5690917969</ele>
        <time>2015-09-10T07:07:44Z</time>
      </trkpt>
      <trkpt lat="42.76407" lon="-0.11262">
        <ele>1975.646484375</ele>
        <time>2015-09-10T07:07:57Z</time>
      </trkpt>
      <trkpt lat="42.76409" lon="-0.11253">
        <ele>1973.7238769531</ele>
        <time>2015-09-10T07:08:07Z</time>
      </trkpt>
      <trkpt lat="42.76409" lon="-0.1124">
        <ele>1970.359375</ele>
        <time>2015-09-10T07:08:39Z</time>
      </trkpt>
      <trkpt lat="42.76405" lon="-0.11244">
        <ele>1967.9560546875</ele>
        <time>2015-09-10T07:08:54Z</time>
      </trkpt>
      <trkpt lat="42.76402" lon="-0.11255">
        <ele>1965.5529785156</ele>
        <time>2015-09-10T07:09:04Z</time>
      </trkpt>
      <trkpt lat="42.76403" lon="-0.11265">
        <ele>1965.072265625</ele>
        <time>2015-09-10T07:09:09Z</time>
      </trkpt>
      <trkpt lat="42.76394" lon="-0.11267">
        <ele>1961.7075195312</ele>
        <time>2015-09-10T07:09:25Z</time>
      </trkpt>
      <trkpt lat="42.76396" lon="-0.11252">
        <ele>1958.8234863281</ele>
        <time>2015-09-10T07:09:43Z</time>
      </trkpt>
      <trkpt lat="42.76401" lon="-0.11238">
        <ele>1955.939453125</ele>
        <time>2015-09-10T07:09:59Z</time>
      </trkpt>
      <trkpt lat="42.76402" lon="-0.11229">
        <ele>1953.5363769531</ele>
        <time>2015-09-10T07:10:10Z</time>
      </trkpt>
      <trkpt lat="42.76406" lon="-0.11218">
        <ele>1951.1330566406</ele>
        <time>2015-09-10T07:10:26Z</time>
      </trkpt>
      <trkpt lat="42.76408" lon="-0.11221">
        <ele>1948.7297363281</ele>
        <time>2015-09-10T07:10:40Z</time>
      </trkpt>
      <trkpt lat="42.76402" lon="-0.11215">
        <ele>1945.3649902344</ele>
        <time>2015-09-10T07:10:50Z</time>
      </trkpt>
      <trkpt lat="42.76394" lon="-0.11207">
        <ele>1943.4423828125</ele>
        <time>2015-09-10T07:11:03Z</time>
      </trkpt>
      <trkpt lat="42.76386" lon="-0.11203">
        <ele>1941.0390625</ele>
        <time>2015-09-10T07:11:13Z</time>
      </trkpt>
      <trkpt lat="42.7638" lon="-0.1119">
        <ele>1939.5971679688</ele>
        <time>2015-09-10T07:11:25Z</time>
      </trkpt>
      <trkpt lat="42.76374" lon="-0.11177">
        <ele>1936.2326660156</ele>
        <time>2015-09-10T07:11:38Z</time>
      </trkpt>
      <trkpt lat="42.76376" lon="-0.11175">
        <ele>1933.8293457031</ele>
        <time>2015-09-10T07:11:49Z</time>
      </trkpt>
      <trkpt lat="42.76372" lon="-0.11166">
        <ele>1931.9064941406</ele>
        <time>2015-09-10T07:12:04Z</time>
      </trkpt>
      <trkpt lat="42.76364" lon="-0.11168">
        <ele>1929.0224609375</ele>
        <time>2015-09-10T07:12:15Z</time>
      </trkpt>
      <trkpt lat="42.76355" lon="-0.11167">
        <ele>1927.1000976562</ele>
        <time>2015-09-10T07:12:27Z</time>
      </trkpt>
      <trkpt lat="42.76346" lon="-0.11167">
        <ele>1925.1772460938</ele>
        <time>2015-09-10T07:12:48Z</time>
      </trkpt>
      <trkpt lat="42.76346" lon="-0.11167">
        <ele>1921.33203125</ele>
        <time>2015-09-10T07:12:51Z</time>
      </trkpt>
      <trkpt lat="42.76346" lon="-0.11165">
        <ele>1933.8293457031</ele>
        <time>2015-09-10T07:12:54Z</time>
      </trkpt>
      <trkpt lat="42.76346" lon="-0.11164">
        <ele>1929.0224609375</ele>
        <time>2015-09-10T07:12:55Z</time>
      </trkpt>
      <trkpt lat="42.76346" lon="-0.11164">
        <ele>1925.6579589844</ele>
        <time>2015-09-10T07:12:56Z</time>
      </trkpt>
      <trkpt lat="42.76343" lon="-0.11161">
        <ele>1924.2160644531</ele>
        <time>2015-09-10T07:13:16Z</time>
      </trkpt>
      <trkpt lat="42.76349" lon="-0.11146">
        <ele>1922.7741699219</ele>
        <time>2015-09-10T07:13:30Z</time>
      </trkpt>
      <trkpt lat="42.76349" lon="-0.11141">
        <ele>1922.2934570312</ele>
        <time>2015-09-10T07:13:34Z</time>
      </trkpt>
      <trkpt lat="42.76351" lon="-0.11124">
        <ele>1920.3708496094</ele>
        <time>2015-09-10T07:13:48Z</time>
      </trkpt>
      <trkpt lat="42.76349" lon="-0.11103">
        <ele>1916.5256347656</ele>
        <time>2015-09-10T07:14:05Z</time>
      </trkpt>
      <trkpt lat="42.76342" lon="-0.11093">
        <ele>1913.6413574219</ele>
        <time>2015-09-10T07:14:18Z</time>
      </trkpt>
      <trkpt lat="42.76338" lon="-0.11081">
        <ele>1910.7575683594</ele>
        <time>2015-09-10T07:14:29Z</time>
      </trkpt>
      <trkpt lat="42.76335" lon="-0.11074">
        <ele>1909.7961425781</ele>
        <time>2015-09-10T07:14:37Z</time>
      </trkpt>
      <trkpt lat="42.76333" lon="-0.11068">
        <ele>1909.3156738281</ele>
        <time>2015-09-10T07:14:43Z</time>
      </trkpt>
      <trkpt lat="42.76328" lon="-0.11055">
        <ele>1907.8737792969</ele>
        <time>2015-09-10T07:14:53Z</time>
      </trkpt>
      <trkpt lat="42.76325" lon="-0.11041">
        <ele>1904.9897460938</ele>
        <time>2015-09-10T07:15:06Z</time>
      </trkpt>
      <trkpt lat="42.76319" lon="-0.11032">
        <ele>1903.0671386719</ele>
        <time>2015-09-10T07:15:19Z</time>
      </trkpt>
      <trkpt lat="42.76318" lon="-0.11031">
        <ele>1902.5864257812</ele>
        <time>2015-09-10T07:15:20Z</time>
      </trkpt>
      <trkpt lat="42.76312" lon="-0.11025">
        <ele>1902.1057128906</ele>
        <time>2015-09-10T07:15:34Z</time>
      </trkpt>
      <trkpt lat="42.76313" lon="-0.1102">
        <ele>1900.1833496094</ele>
        <time>2015-09-10T07:15:48Z</time>
      </trkpt>
      <trkpt lat="42.76312" lon="-0.11006">
        <ele>1897.7797851562</ele>
        <time>2015-09-10T07:15:59Z</time>
      </trkpt>
      <trkpt lat="42.76306" lon="-0.10995">
        <ele>1893.9345703125</ele>
        <time>2015-09-10T07:16:10Z</time>
      </trkpt>
      <trkpt lat="42.76305" lon="-0.10994">
        <ele>1894.8957519531</ele>
        <time>2015-09-10T07:16:11Z</time>
      </trkpt>
      <trkpt lat="42.76298" lon="-0.10981">
        <ele>1892.9731445312</ele>
        <time>2015-09-10T07:16:24Z</time>
      </trkpt>
      <trkpt lat="42.76295" lon="-0.10977">
        <ele>1892.9731445312</ele>
        <time>2015-09-10T07:16:39Z</time>
      </trkpt>
      <trkpt lat="42.76292" lon="-0.10972">
        <ele>1889.6086425781</ele>
        <time>2015-09-10T07:16:53Z</time>
      </trkpt>
      <trkpt lat="42.76296" lon="-0.10962">
        <ele>1886.724609375</ele>
        <time>2015-09-10T07:17:07Z</time>
      </trkpt>
      <trkpt lat="42.76298" lon="-0.10945">
        <ele>1884.8022460938</ele>
        <time>2015-09-10T07:17:20Z</time>
      </trkpt>
      <trkpt lat="42.76301" lon="-0.10934">
        <ele>1882.3986816406</ele>
        <time>2015-09-10T07:17:33Z</time>
      </trkpt>
      <trkpt lat="42.76297" lon="-0.10923">
        <ele>1879.9953613281</ele>
        <time>2015-09-10T07:17:45Z</time>
      </trkpt>
      <trkpt lat="42.76298" lon="-0.10913">
        <ele>1877.5920410156</ele>
        <time>2015-09-10T07:17:57Z</time>
      </trkpt>
      <trkpt lat="42.76296" lon="-0.10903">
        <ele>1876.630859375</ele>
        <time>2015-09-10T07:18:06Z</time>
      </trkpt>
      <trkpt lat="42.76281" lon="-0.10886">
        <ele>1875.1887207031</ele>
        <time>2015-09-10T07:18:22Z</time>
      </trkpt>
      <trkpt lat="42.76276" lon="-0.10882">
        <ele>1874.7082519531</ele>
        <time>2015-09-10T07:18:26Z</time>
      </trkpt>
      <trkpt lat="42.76265" lon="-0.10875">
        <ele>1872.7856445312</ele>
        <time>2015-09-10T07:18:40Z</time>
      </trkpt>
      <trkpt lat="42.76253" lon="-0.10857">
        <ele>1871.3435058594</ele>
        <time>2015-09-10T07:18:57Z</time>
      </trkpt>
      <trkpt lat="42.76255" lon="-0.10854">
        <ele>1871.3435058594</ele>
        <time>2015-09-10T07:19:00Z</time>
      </trkpt>
      <trkpt lat="42.76263" lon="-0.10821">
        <ele>1872.7856445312</ele>
        <time>2015-09-10T07:19:21Z</time>
      </trkpt>
      <trkpt lat="42.76262" lon="-0.10817">
        <ele>1872.3049316406</ele>
        <time>2015-09-10T07:19:26Z</time>
      </trkpt>
      <trkpt lat="42.76252" lon="-0.10794">
        <ele>1871.3435058594</ele>
        <time>2015-09-10T07:19:45Z</time>
      </trkpt>
      <trkpt lat="42.76247" lon="-0.10781">
        <ele>1870.3823242188</ele>
        <time>2015-09-10T07:19:56Z</time>
      </trkpt>
      <trkpt lat="42.76234" lon="-0.10759">
        <ele>1869.9016113281</ele>
        <time>2015-09-10T07:20:14Z</time>
      </trkpt>
      <trkpt lat="42.76231" lon="-0.10752">
        <ele>1869.4211425781</ele>
        <time>2015-09-10T07:20:19Z</time>
      </trkpt>
      <trkpt lat="42.76222" lon="-0.1073">
        <ele>1867.9787597656</ele>
        <time>2015-09-10T07:20:34Z</time>
      </trkpt>
      <trkpt lat="42.7622" lon="-0.10725">
        <ele>1867.9787597656</ele>
        <time>2015-09-10T07:20:38Z</time>
      </trkpt>
      <trkpt lat="42.76216" lon="-0.10692">
        <ele>1866.5368652344</ele>
        <time>2015-09-10T07:20:58Z</time>
      </trkpt>
      <trkpt lat="42.76216" lon="-0.10688">
        <ele>1866.0561523438</ele>
        <time>2015-09-10T07:21:01Z</time>
      </trkpt>
      <trkpt lat="42.76207" lon="-0.10663">
        <ele>1865.0949707031</ele>
        <time>2015-09-10T07:21:17Z</time>
      </trkpt>
      <trkpt lat="42.76191" lon="-0.10635">
        <ele>1865.0949707031</ele>
        <time>2015-09-10T07:21:36Z</time>
      </trkpt>
      <trkpt lat="42.76183" lon="-0.10613">
        <ele>1864.1335449219</ele>
        <time>2015-09-10T07:21:54Z</time>
      </trkpt>
      <trkpt lat="42.76177" lon="-0.106">
        <ele>1863.6528320312</ele>
        <time>2015-09-10T07:22:05Z</time>
      </trkpt>
      <trkpt lat="42.76166" lon="-0.10572">
        <ele>1863.6528320312</ele>
        <time>2015-09-10T07:22:20Z</time>
      </trkpt>
      <trkpt lat="42.76153" lon="-0.10549">
        <ele>1862.6916503906</ele>
        <time>2015-09-10T07:22:37Z</time>
      </trkpt>
      <trkpt lat="42.76148" lon="-0.10538">
        <ele>1861.73046875</ele>
        <time>2015-09-10T07:22:44Z</time>
      </trkpt>
      <trkpt lat="42.76135" lon="-0.10511">
        <ele>1861.73046875</ele>
        <time>2015-09-10T07:23:01Z</time>
      </trkpt>
      <trkpt lat="42.76126" lon="-0.10472">
        <ele>1861.2497558594</ele>
        <time>2015-09-10T07:23:21Z</time>
      </trkpt>
      <trkpt lat="42.76117" lon="-0.10443">
        <ele>1860.7690429688</ele>
        <time>2015-09-10T07:23:37Z</time>
      </trkpt>
      <trkpt lat="42.76112" lon="-0.10419">
        <ele>1860.7690429688</ele>
        <time>2015-09-10T07:23:51Z</time>
      </trkpt>
      <trkpt lat="42.76105" lon="-0.10396">
        <ele>1859.3271484375</ele>
        <time>2015-09-10T07:24:04Z</time>
      </trkpt>
      <trkpt lat="42.76102" lon="-0.10391">
        <ele>1859.3271484375</ele>
        <time>2015-09-10T07:24:08Z</time>
      </trkpt>
      <trkpt lat="42.76088" lon="-0.10367">
        <ele>1858.3657226562</ele>
        <time>2015-09-10T07:24:25Z</time>
      </trkpt>
      <trkpt lat="42.76076" lon="-0.10334">
        <ele>1857.8852539062</ele>
        <time>2015-09-10T07:24:43Z</time>
      </trkpt>
      <trkpt lat="42.76066" lon="-0.10312">
        <ele>1857.4045410156</ele>
        <time>2015-09-10T07:24:58Z</time>
      </trkpt>
      <trkpt lat="42.76053" lon="-0.10287">
        <ele>1855.9624023438</ele>
        <time>2015-09-10T07:25:14Z</time>
      </trkpt>
      <trkpt lat="42.76038" lon="-0.10262">
        <ele>1855.9624023438</ele>
        <time>2015-09-10T07:25:28Z</time>
      </trkpt>
      <trkpt lat="42.76032" lon="-0.10251">
        <ele>1855.4819335938</ele>
        <time>2015-09-10T07:25:35Z</time>
      </trkpt>
      <trkpt lat="42.76015" lon="-0.10229">
        <ele>1853.5593261719</ele>
        <time>2015-09-10T07:25:53Z</time>
      </trkpt>
      <trkpt lat="42.76003" lon="-0.10211">
        <ele>1852.5979003906</ele>
        <time>2015-09-10T07:26:05Z</time>
      </trkpt>
      <trkpt lat="42.76" lon="-0.10206">
        <ele>1853.0786132812</ele>
        <time>2015-09-10T07:26:09Z</time>
      </trkpt>
      <trkpt lat="42.75986" lon="-0.10183">
        <ele>1852.1171875</ele>
        <time>2015-09-10T07:26:25Z</time>
      </trkpt>
      <trkpt lat="42.75985" lon="-0.10181">
        <ele>1852.5979003906</ele>
        <time>2015-09-10T07:26:26Z</time>
      </trkpt>
      <trkpt lat="42.75983" lon="-0.10178">
        <ele>1852.1171875</ele>
        <time>2015-09-10T07:26:29Z</time>
      </trkpt>
      <trkpt lat="42.75966" lon="-0.1016">
        <ele>1851.6364746094</ele>
        <time>2015-09-10T07:26:46Z</time>
      </trkpt>
      <trkpt lat="42.75958" lon="-0.10153">
        <ele>1851.1557617188</ele>
        <time>2015-09-10T07:26:54Z</time>
      </trkpt>
      <trkpt lat="42.75956" lon="-0.10147">
        <ele>1851.1557617188</ele>
        <time>2015-09-10T07:26:58Z</time>
      </trkpt>
      <trkpt lat="42.75953" lon="-0.1013">
        <ele>1850.1945800781</ele>
        <time>2015-09-10T07:27:12Z</time>
      </trkpt>
      <trkpt lat="42.75951" lon="-0.10129">
        <ele>1850.6750488281</ele>
        <time>2015-09-10T07:27:14Z</time>
      </trkpt>
      <trkpt lat="42.75947" lon="-0.10105">
        <ele>1850.6750488281</ele>
        <time>2015-09-10T07:27:28Z</time>
      </trkpt>
      <trkpt lat="42.75946" lon="-0.10084">
        <ele>1849.7138671875</ele>
        <time>2015-09-10T07:27:40Z</time>
      </trkpt>
      <trkpt lat="42.75945" lon="-0.10076">
        <ele>1849.2331542969</ele>
        <time>2015-09-10T07:27:45Z</time>
      </trkpt>
      <trkpt lat="42.75944" lon="-0.10066">
        <ele>1849.7138671875</ele>
        <time>2015-09-10T07:27:51Z</time>
      </trkpt>
      <trkpt lat="42.7594" lon="-0.10034">
        <ele>1848.2717285156</ele>
        <time>2015-09-10T07:28:10Z</time>
      </trkpt>
      <trkpt lat="42.75938" lon="-0.10027">
        <ele>1849.2331542969</ele>
        <time>2015-09-10T07:28:23Z</time>
      </trkpt>
      <trkpt lat="42.75937" lon="-0.10025">
        <ele>1848.2717285156</ele>
        <time>2015-09-10T07:28:25Z</time>
      </trkpt>
      <trkpt lat="42.75933" lon="-0.10011">
        <ele>1849.7138671875</ele>
        <time>2015-09-10T07:28:37Z</time>
      </trkpt>
      <trkpt lat="42.75924" lon="-0.09996">
        <ele>1846.8298339844</ele>
        <time>2015-09-10T07:28:50Z</time>
      </trkpt>
      <trkpt lat="42.75922" lon="-0.09987">
        <ele>1846.8298339844</ele>
        <time>2015-09-10T07:28:57Z</time>
      </trkpt>
      <trkpt lat="42.75918" lon="-0.09956">
        <ele>1845.3879394531</ele>
        <time>2015-09-10T07:29:14Z</time>
      </trkpt>
      <trkpt lat="42.75918" lon="-0.09948">
        <ele>1845.8686523438</ele>
        <time>2015-09-10T07:29:20Z</time>
      </trkpt>
      <trkpt lat="42.75912" lon="-0.09934">
        <ele>1845.8686523438</ele>
        <time>2015-09-10T07:29:30Z</time>
      </trkpt>
      <trkpt lat="42.75908" lon="-0.09919">
        <ele>1845.3879394531</ele>
        <time>2015-09-10T07:29:40Z</time>
      </trkpt>
      <trkpt lat="42.759" lon="-0.09893">
        <ele>1843.4653320312</ele>
        <time>2015-09-10T07:29:57Z</time>
      </trkpt>
      <trkpt lat="42.75899" lon="-0.09875">
        <ele>1843.9460449219</ele>
        <time>2015-09-10T07:30:11Z</time>
      </trkpt>
      <trkpt lat="42.75895" lon="-0.09861">
        <ele>1843.9460449219</ele>
        <time>2015-09-10T07:30:22Z</time>
      </trkpt>
      <trkpt lat="42.75888" lon="-0.09853">
        <ele>1844.4265136719</ele>
        <time>2015-09-10T07:30:32Z</time>
      </trkpt>
      <trkpt lat="42.75879" lon="-0.09843">
        <ele>1843.4653320312</ele>
        <time>2015-09-10T07:30:41Z</time>
      </trkpt>
      <trkpt lat="42.75874" lon="-0.09834">
        <ele>1842.9846191406</ele>
        <time>2015-09-10T07:30:51Z</time>
      </trkpt>
      <trkpt lat="42.7587" lon="-0.0983">
        <ele>1842.5041503906</ele>
        <time>2015-09-10T07:30:56Z</time>
      </trkpt>
      <trkpt lat="42.7586" lon="-0.09804">
        <ele>1843.9460449219</ele>
        <time>2015-09-10T07:31:14Z</time>
      </trkpt>
      <trkpt lat="42.75854" lon="-0.09781">
        <ele>1844.9072265625</ele>
        <time>2015-09-10T07:31:29Z</time>
      </trkpt>
      <trkpt lat="42.75843" lon="-0.09758">
        <ele>1843.9460449219</ele>
        <time>2015-09-10T07:31:48Z</time>
      </trkpt>
      <trkpt lat="42.75833" lon="-0.09731">
        <ele>1845.3879394531</ele>
        <time>2015-09-10T07:32:06Z</time>
      </trkpt>
      <trkpt lat="42.75823" lon="-0.09695">
        <ele>1843.9460449219</ele>
        <time>2015-09-10T07:32:27Z</time>
      </trkpt>
      <trkpt lat="42.7582" lon="-0.09674">
        <ele>1845.3879394531</ele>
        <time>2015-09-10T07:32:42Z</time>
      </trkpt>
      <trkpt lat="42.75809" lon="-0.09642">
        <ele>1845.8686523438</ele>
        <time>2015-09-10T07:33:01Z</time>
      </trkpt>
      <trkpt lat="42.758" lon="-0.09614">
        <ele>1845.8686523438</ele>
        <time>2015-09-10T07:33:19Z</time>
      </trkpt>
      <trkpt lat="42.758" lon="-0.09607">
        <ele>1846.8298339844</ele>
        <time>2015-09-10T07:33:24Z</time>
      </trkpt>
      <trkpt lat="42.75796" lon="-0.09598">
        <ele>1845.8686523438</ele>
        <time>2015-09-10T07:33:32Z</time>
      </trkpt>
      <trkpt lat="42.75791" lon="-0.09585">
        <ele>1848.7524414062</ele>
        <time>2015-09-10T07:33:42Z</time>
      </trkpt>
      <trkpt lat="42.75789" lon="-0.09581">
        <ele>1849.7138671875</ele>
        <time>2015-09-10T07:33:47Z</time>
      </trkpt>
      <trkpt lat="42.75782" lon="-0.09558">
        <ele>1848.7524414062</ele>
        <time>2015-09-10T07:34:03Z</time>
      </trkpt>
      <trkpt lat="42.75772" lon="-0.09545">
        <ele>1846.8298339844</ele>
        <time>2015-09-10T07:34:15Z</time>
      </trkpt>
      <trkpt lat="42.7577" lon="-0.0953">
        <ele>1845.8686523438</ele>
        <time>2015-09-10T07:34:27Z</time>
      </trkpt>
      <trkpt lat="42.75768" lon="-0.09527">
        <ele>1845.8686523438</ele>
        <time>2015-09-10T07:34:30Z</time>
      </trkpt>
      <trkpt lat="42.75765" lon="-0.09506">
        <ele>1846.8298339844</ele>
        <time>2015-09-10T07:34:44Z</time>
      </trkpt>
      <trkpt lat="42.75762" lon="-0.095">
        <ele>1847.310546875</ele>
        <time>2015-09-10T07:34:48Z</time>
      </trkpt>
      <trkpt lat="42.75755" lon="-0.09489">
        <ele>1846.3493652344</ele>
        <time>2015-09-10T07:34:57Z</time>
      </trkpt>
      <trkpt lat="42.75749" lon="-0.09476">
        <ele>1846.3493652344</ele>
        <time>2015-09-10T07:35:09Z</time>
      </trkpt>
      <trkpt lat="42.75738" lon="-0.09467">
        <ele>1846.3493652344</ele>
        <time>2015-09-10T07:35:21Z</time>
      </trkpt>
      <trkpt lat="42.75727" lon="-0.09453">
        <ele>1844.9072265625</ele>
        <time>2015-09-10T07:35:32Z</time>
      </trkpt>
      <trkpt lat="42.75719" lon="-0.09456">
        <ele>1843.4653320312</ele>
        <time>2015-09-10T07:35:41Z</time>
      </trkpt>
      <trkpt lat="42.75713" lon="-0.0945">
        <ele>1842.5041503906</ele>
        <time>2015-09-10T07:35:51Z</time>
      </trkpt>
      <trkpt lat="42.75712" lon="-0.09449">
        <ele>1840.5812988281</ele>
        <time>2015-09-10T07:35:58Z</time>
      </trkpt>
      <trkpt lat="42.75707" lon="-0.09441">
        <ele>1837.216796875</ele>
        <time>2015-09-10T07:36:10Z</time>
      </trkpt>
      <trkpt lat="42.757" lon="-0.09436">
        <ele>1834.8134765625</ele>
        <time>2015-09-10T07:36:22Z</time>
      </trkpt>
      <trkpt lat="42.75701" lon="-0.09444">
        <ele>1834.8134765625</ele>
        <time>2015-09-10T07:36:26Z</time>
      </trkpt>
      <trkpt lat="42.75703" lon="-0.0945">
        <ele>1833.8520507812</ele>
        <time>2015-09-10T07:36:30Z</time>
      </trkpt>
      <trkpt lat="42.75711" lon="-0.09471">
        <ele>1834.8134765625</ele>
        <time>2015-09-10T07:36:43Z</time>
      </trkpt>
      <trkpt lat="42.75712" lon="-0.09478">
        <ele>1835.2939453125</ele>
        <time>2015-09-10T07:36:52Z</time>
      </trkpt>
      <trkpt lat="42.75709" lon="-0.09489">
        <ele>1832.890625</ele>
        <time>2015-09-10T07:37:06Z</time>
      </trkpt>
      <trkpt lat="42.75703" lon="-0.09484">
        <ele>1830.9682617188</ele>
        <time>2015-09-10T07:37:20Z</time>
      </trkpt>
      <trkpt lat="42.75696" lon="-0.09487">
        <ele>1834.3327636719</ele>
        <time>2015-09-10T07:37:44Z</time>
      </trkpt>
      <trkpt lat="42.75691" lon="-0.09487">
        <ele>1836.7360839844</ele>
        <time>2015-09-10T07:37:54Z</time>
      </trkpt>
      <trkpt lat="42.75686" lon="-0.09499">
        <ele>1840.1008300781</ele>
        <time>2015-09-10T07:38:06Z</time>
      </trkpt>
      <trkpt lat="42.75683" lon="-0.09501">
        <ele>1840.5812988281</ele>
        <time>2015-09-10T07:38:10Z</time>
      </trkpt>
      <trkpt lat="42.75678" lon="-0.09509">
        <ele>1841.0620117188</ele>
        <time>2015-09-10T07:38:16Z</time>
      </trkpt>
      <trkpt lat="42.75671" lon="-0.09517">
        <ele>1842.0234375</ele>
        <time>2015-09-10T07:38:27Z</time>
      </trkpt>
      <trkpt lat="42.75666" lon="-0.09523">
        <ele>1844.9072265625</ele>
        <time>2015-09-10T07:38:38Z</time>
      </trkpt>
      <trkpt lat="42.75663" lon="-0.09543">
        <ele>1846.3493652344</ele>
        <time>2015-09-10T07:38:51Z</time>
      </trkpt>
      <trkpt lat="42.75659" lon="-0.09555">
        <ele>1845.8686523438</ele>
        <time>2015-09-10T07:39:01Z</time>
      </trkpt>
      <trkpt lat="42.75656" lon="-0.09562">
        <ele>1846.3493652344</ele>
        <time>2015-09-10T07:39:10Z</time>
      </trkpt>
      <trkpt lat="42.75649" lon="-0.09545">
        <ele>1850.1945800781</ele>
        <time>2015-09-10T07:39:23Z</time>
      </trkpt>
      <trkpt lat="42.75649" lon="-0.09544">
        <ele>1850.1945800781</ele>
        <time>2015-09-10T07:39:24Z</time>
      </trkpt>
      <trkpt lat="42.75642" lon="-0.09531">
        <ele>1852.1171875</ele>
        <time>2015-09-10T07:39:37Z</time>
      </trkpt>
      <trkpt lat="42.75638" lon="-0.09523">
        <ele>1855.4819335938</ele>
        <time>2015-09-10T07:39:46Z</time>
      </trkpt>
      <trkpt lat="42.75637" lon="-0.09521">
        <ele>1855.9624023438</ele>
        <time>2015-09-10T07:39:48Z</time>
      </trkpt>
      <trkpt lat="42.75631" lon="-0.09522">
        <ele>1857.8852539062</ele>
        <time>2015-09-10T07:40:02Z</time>
      </trkpt>
      <trkpt lat="42.75621" lon="-0.09518">
        <ele>1858.3657226562</ele>
        <time>2015-09-10T07:40:21Z</time>
      </trkpt>
      <trkpt lat="42.75614" lon="-0.09518">
        <ele>1860.7690429688</ele>
        <time>2015-09-10T07:40:32Z</time>
      </trkpt>
      <trkpt lat="42.75607" lon="-0.09521">
        <ele>1860.2883300781</ele>
        <time>2015-09-10T07:40:41Z</time>
      </trkpt>
      <trkpt lat="42.75603" lon="-0.09529">
        <ele>1860.2883300781</ele>
        <time>2015-09-10T07:40:47Z</time>
      </trkpt>
      <trkpt lat="42.75594" lon="-0.09533">
        <ele>1860.2883300781</ele>
        <time>2015-09-10T07:41:01Z</time>
      </trkpt>
      <trkpt lat="42.75585" lon="-0.09542">
        <ele>1859.3271484375</ele>
        <time>2015-09-10T07:41:11Z</time>
      </trkpt>
      <trkpt lat="42.75583" lon="-0.09549">
        <ele>1858.3657226562</ele>
        <time>2015-09-10T07:41:16Z</time>
      </trkpt>
      <trkpt lat="42.75568" lon="-0.09553">
        <ele>1858.8464355469</ele>
        <time>2015-09-10T07:41:31Z</time>
      </trkpt>
      <trkpt lat="42.75546" lon="-0.09552">
        <ele>1859.8076171875</ele>
        <time>2015-09-10T07:41:47Z</time>
      </trkpt>
      <trkpt lat="42.75537" lon="-0.0956">
        <ele>1860.7690429688</ele>
        <time>2015-09-10T07:41:58Z</time>
      </trkpt>
      <trkpt lat="42.75521" lon="-0.09577">
        <ele>1862.2109375</ele>
        <time>2015-09-10T07:42:13Z</time>
      </trkpt>
      <trkpt lat="42.75516" lon="-0.0958">
        <ele>1861.73046875</ele>
        <time>2015-09-10T07:42:23Z</time>
      </trkpt>
      <trkpt lat="42.75514" lon="-0.09581">
        <ele>1861.73046875</ele>
        <time>2015-09-10T07:42:25Z</time>
      </trkpt>
      <trkpt lat="42.7551" lon="-0.09568">
        <ele>1862.6916503906</ele>
        <time>2015-09-10T07:42:37Z</time>
      </trkpt>
      <trkpt lat="42.75504" lon="-0.0956">
        <ele>1865.5756835938</ele>
        <time>2015-09-10T07:42:47Z</time>
      </trkpt>
      <trkpt lat="42.75489" lon="-0.0955">
        <ele>1866.0561523438</ele>
        <time>2015-09-10T07:43:01Z</time>
      </trkpt>
      <trkpt lat="42.75477" lon="-0.09546">
        <ele>1864.6142578125</ele>
        <time>2015-09-10T07:43:13Z</time>
      </trkpt>
      <trkpt lat="42.75465" lon="-0.0954">
        <ele>1864.1335449219</ele>
        <time>2015-09-10T07:43:25Z</time>
      </trkpt>
      <trkpt lat="42.75454" lon="-0.09526">
        <ele>1862.6916503906</ele>
        <time>2015-09-10T07:43:37Z</time>
      </trkpt>
      <trkpt lat="42.75447" lon="-0.09516">
        <ele>1861.73046875</ele>
        <time>2015-09-10T07:43:47Z</time>
      </trkpt>
      <trkpt lat="42.75428" lon="-0.09509">
        <ele>1860.2883300781</ele>
        <time>2015-09-10T07:44:00Z</time>
      </trkpt>
      <trkpt lat="42.75419" lon="-0.09509">
        <ele>1859.8076171875</ele>
        <time>2015-09-10T07:44:10Z</time>
      </trkpt>
      <trkpt lat="42.75411" lon="-0.09509">
        <ele>1858.3657226562</ele>
        <time>2015-09-10T07:44:22Z</time>
      </trkpt>
      <trkpt lat="42.754" lon="-0.09502">
        <ele>1857.4045410156</ele>
        <time>2015-09-10T07:44:36Z</time>
      </trkpt>
      <trkpt lat="42.75384" lon="-0.09508">
        <ele>1858.8464355469</ele>
        <time>2015-09-10T07:44:54Z</time>
      </trkpt>
      <trkpt lat="42.75375" lon="-0.09507">
        <ele>1860.2883300781</ele>
        <time>2015-09-10T07:45:02Z</time>
      </trkpt>
      <trkpt lat="42.75374" lon="-0.09507">
        <ele>1860.7690429688</ele>
        <time>2015-09-10T07:45:03Z</time>
      </trkpt>
      <trkpt lat="42.75367" lon="-0.095">
        <ele>1860.7690429688</ele>
        <time>2015-09-10T07:45:15Z</time>
      </trkpt>
      <trkpt lat="42.75359" lon="-0.09495">
        <ele>1860.7690429688</ele>
        <time>2015-09-10T07:45:25Z</time>
      </trkpt>
      <trkpt lat="42.75354" lon="-0.09483">
        <ele>1861.73046875</ele>
        <time>2015-09-10T07:45:35Z</time>
      </trkpt>
      <trkpt lat="42.75351" lon="-0.09483">
        <ele>1863.1723632812</ele>
        <time>2015-09-10T07:45:41Z</time>
      </trkpt>
      <trkpt lat="42.75347" lon="-0.09482">
        <ele>1865.5756835938</ele>
        <time>2015-09-10T07:45:47Z</time>
      </trkpt>
      <trkpt lat="42.75348" lon="-0.09494">
        <ele>1866.5368652344</ele>
        <time>2015-09-10T07:46:09Z</time>
      </trkpt>
      <trkpt lat="42.75342" lon="-0.09482">
        <ele>1867.9787597656</ele>
        <time>2015-09-10T07:46:20Z</time>
      </trkpt>
      <trkpt lat="42.7534" lon="-0.09475">
        <ele>1868.4597167969</ele>
        <time>2015-09-10T07:46:26Z</time>
      </trkpt>
      <trkpt lat="42.75332" lon="-0.09468">
        <ele>1869.4211425781</ele>
        <time>2015-09-10T07:46:39Z</time>
      </trkpt>
      <trkpt lat="42.75317" lon="-0.09461">
        <ele>1870.8630371094</ele>
        <time>2015-09-10T07:46:58Z</time>
      </trkpt>
      <trkpt lat="42.75315" lon="-0.09449">
        <ele>1872.3049316406</ele>
        <time>2015-09-10T07:47:07Z</time>
      </trkpt>
      <trkpt lat="42.7531" lon="-0.09442">
        <ele>1873.2663574219</ele>
        <time>2015-09-10T07:47:15Z</time>
      </trkpt>
      <trkpt lat="42.75306" lon="-0.09438">
        <ele>1874.2275390625</ele>
        <time>2015-09-10T07:47:25Z</time>
      </trkpt>
      <trkpt lat="42.75306" lon="-0.09435">
        <ele>1875.6694335938</ele>
        <time>2015-09-10T07:47:30Z</time>
      </trkpt>
      <trkpt lat="42.75303" lon="-0.09438">
        <ele>1876.1501464844</ele>
        <time>2015-09-10T07:47:34Z</time>
      </trkpt>
      <trkpt lat="42.75299" lon="-0.09432">
        <ele>1878.0727539062</ele>
        <time>2015-09-10T07:47:44Z</time>
      </trkpt>
      <trkpt lat="42.75299" lon="-0.09424">
        <ele>1879.9953613281</ele>
        <time>2015-09-10T07:47:53Z</time>
      </trkpt>
      <trkpt lat="42.75292" lon="-0.0943">
        <ele>1880.9567871094</ele>
        <time>2015-09-10T07:48:06Z</time>
      </trkpt>
      <trkpt lat="42.75277" lon="-0.09431">
        <ele>1881.4372558594</ele>
        <time>2015-09-10T07:48:19Z</time>
      </trkpt>
      <trkpt lat="42.75275" lon="-0.09431">
        <ele>1881.91796875</ele>
        <time>2015-09-10T07:48:20Z</time>
      </trkpt>
      <trkpt lat="42.75257" lon="-0.09437">
        <ele>1882.8791503906</ele>
        <time>2015-09-10T07:48:36Z</time>
      </trkpt>
      <trkpt lat="42.75248" lon="-0.09433">
        <ele>1883.8405761719</ele>
        <time>2015-09-10T07:48:46Z</time>
      </trkpt>
      <trkpt lat="42.7524" lon="-0.09427">
        <ele>1885.2827148438</ele>
        <time>2015-09-10T07:48:58Z</time>
      </trkpt>
      <trkpt lat="42.75234" lon="-0.09411">
        <ele>1885.7634277344</ele>
        <time>2015-09-10T07:49:12Z</time>
      </trkpt>
      <trkpt lat="42.75222" lon="-0.09393">
        <ele>1885.2827148438</ele>
        <time>2015-09-10T07:49:28Z</time>
      </trkpt>
      <trkpt lat="42.75215" lon="-0.09384">
        <ele>1886.244140625</ele>
        <time>2015-09-10T07:49:39Z</time>
      </trkpt>
      <trkpt lat="42.75209" lon="-0.09375">
        <ele>1888.6474609375</ele>
        <time>2015-09-10T07:49:49Z</time>
      </trkpt>
      <trkpt lat="42.75205" lon="-0.09369">
        <ele>1889.6086425781</ele>
        <time>2015-09-10T07:49:55Z</time>
      </trkpt>
      <trkpt lat="42.75201" lon="-0.09352">
        <ele>1891.53125</ele>
        <time>2015-09-10T07:50:08Z</time>
      </trkpt>
      <trkpt lat="42.75202" lon="-0.0934">
        <ele>1891.0505371094</ele>
        <time>2015-09-10T07:50:18Z</time>
      </trkpt>
      <trkpt lat="42.75198" lon="-0.09329">
        <ele>1891.0505371094</ele>
        <time>2015-09-10T07:50:30Z</time>
      </trkpt>
      <trkpt lat="42.75194" lon="-0.09318">
        <ele>1891.53125</ele>
        <time>2015-09-10T07:50:42Z</time>
      </trkpt>
      <trkpt lat="42.7519" lon="-0.0931">
        <ele>1892.9731445312</ele>
        <time>2015-09-10T07:50:53Z</time>
      </trkpt>
      <trkpt lat="42.75186" lon="-0.093">
        <ele>1893.9345703125</ele>
        <time>2015-09-10T07:51:03Z</time>
      </trkpt>
      <trkpt lat="42.75181" lon="-0.09291">
        <ele>1896.337890625</ele>
        <time>2015-09-10T07:51:15Z</time>
      </trkpt>
      <trkpt lat="42.75176" lon="-0.09283">
        <ele>1897.7797851562</ele>
        <time>2015-09-10T07:51:27Z</time>
      </trkpt>
      <trkpt lat="42.75175" lon="-0.0928">
        <ele>1899.2216796875</ele>
        <time>2015-09-10T07:51:42Z</time>
      </trkpt>
      <trkpt lat="42.75164" lon="-0.09275">
        <ele>1900.1833496094</ele>
        <time>2015-09-10T07:51:57Z</time>
      </trkpt>
      <trkpt lat="42.75159" lon="-0.09265">
        <ele>1903.5478515625</ele>
        <time>2015-09-10T07:52:12Z</time>
      </trkpt>
      <trkpt lat="42.75154" lon="-0.09258">
        <ele>1906.431640625</ele>
        <time>2015-09-10T07:52:24Z</time>
      </trkpt>
      <trkpt lat="42.75149" lon="-0.09251">
        <ele>1907.8737792969</ele>
        <time>2015-09-10T07:52:39Z</time>
      </trkpt>
      <trkpt lat="42.75148" lon="-0.09243">
        <ele>1910.7575683594</ele>
        <time>2015-09-10T07:52:48Z</time>
      </trkpt>
      <trkpt lat="42.75146" lon="-0.09242">
        <ele>1912.1994628906</ele>
        <time>2015-09-10T07:52:53Z</time>
      </trkpt>
      <trkpt lat="42.75146" lon="-0.09249">
        <ele>1915.0834960938</ele>
        <time>2015-09-10T07:53:12Z</time>
      </trkpt>
      <trkpt lat="42.75142" lon="-0.0925">
        <ele>1916.044921875</ele>
        <time>2015-09-10T07:53:18Z</time>
      </trkpt>
      <trkpt lat="42.75139" lon="-0.09248">
        <ele>1918.4482421875</ele>
        <time>2015-09-10T07:53:30Z</time>
      </trkpt>
      <trkpt lat="42.75133" lon="-0.09249">
        <ele>1921.8127441406</ele>
        <time>2015-09-10T07:53:52Z</time>
      </trkpt>
      <trkpt lat="42.75129" lon="-0.09241">
        <ele>1922.7741699219</ele>
        <time>2015-09-10T07:54:10Z</time>
      </trkpt>
      <trkpt lat="42.75129" lon="-0.09224">
        <ele>1925.6579589844</ele>
        <time>2015-09-10T07:54:27Z</time>
      </trkpt>
      <trkpt lat="42.75124" lon="-0.09218">
        <ele>1928.0612792969</ele>
        <time>2015-09-10T07:54:39Z</time>
      </trkpt>
      <trkpt lat="42.75111" lon="-0.09207">
        <ele>1929.9838867188</ele>
        <time>2015-09-10T07:54:58Z</time>
      </trkpt>
      <trkpt lat="42.75105" lon="-0.09208">
        <ele>1930.4645996094</ele>
        <time>2015-09-10T07:55:02Z</time>
      </trkpt>
      <trkpt lat="42.75095" lon="-0.09206">
        <ele>1931.42578125</ele>
        <time>2015-09-10T07:55:19Z</time>
      </trkpt>
      <trkpt lat="42.75089" lon="-0.09201">
        <ele>1931.42578125</ele>
        <time>2015-09-10T07:55:30Z</time>
      </trkpt>
      <trkpt lat="42.75074" lon="-0.09206">
        <ele>1930.4645996094</ele>
        <time>2015-09-10T07:55:48Z</time>
      </trkpt>
      <trkpt lat="42.75062" lon="-0.09213">
        <ele>1930.4645996094</ele>
        <time>2015-09-10T07:56:03Z</time>
      </trkpt>
      <trkpt lat="42.75054" lon="-0.09217">
        <ele>1930.4645996094</ele>
        <time>2015-09-10T07:56:12Z</time>
      </trkpt>
      <trkpt lat="42.75046" lon="-0.09221">
        <ele>1930.9453125</ele>
        <time>2015-09-10T07:56:28Z</time>
      </trkpt>
      <trkpt lat="42.7503" lon="-0.09212">
        <ele>1932.3874511719</ele>
        <time>2015-09-10T07:56:47Z</time>
      </trkpt>
      <trkpt lat="42.75027" lon="-0.0921">
        <ele>1931.9064941406</ele>
        <time>2015-09-10T07:56:50Z</time>
      </trkpt>
      <trkpt lat="42.75005" lon="-0.09204">
        <ele>1933.3486328125</ele>
        <time>2015-09-10T07:57:10Z</time>
      </trkpt>
      <trkpt lat="42.74987" lon="-0.09195">
        <ele>1934.7907714844</ele>
        <time>2015-09-10T07:57:28Z</time>
      </trkpt>
      <trkpt lat="42.74976" lon="-0.09194">
        <ele>1936.7131347656</ele>
        <time>2015-09-10T07:57:43Z</time>
      </trkpt>
      <trkpt lat="42.74972" lon="-0.09192">
        <ele>1934.7907714844</ele>
        <time>2015-09-10T07:57:48Z</time>
      </trkpt>
      <trkpt lat="42.74966" lon="-0.09195">
        <ele>1935.751953125</ele>
        <time>2015-09-10T07:57:57Z</time>
      </trkpt>
      <trkpt lat="42.74961" lon="-0.09186">
        <ele>1938.1552734375</ele>
        <time>2015-09-10T07:58:10Z</time>
      </trkpt>
      <trkpt lat="42.74949" lon="-0.0918">
        <ele>1940.0778808594</ele>
        <time>2015-09-10T07:58:24Z</time>
      </trkpt>
      <trkpt lat="42.74944" lon="-0.0918">
        <ele>1940.5583496094</ele>
        <time>2015-09-10T07:58:40Z</time>
      </trkpt>
      <trkpt lat="42.74929" lon="-0.09186">
        <ele>1942.4812011719</ele>
        <time>2015-09-10T07:59:00Z</time>
      </trkpt>
      <trkpt lat="42.7492" lon="-0.09189">
        <ele>1942.0004882812</ele>
        <time>2015-09-10T07:59:10Z</time>
      </trkpt>
      <trkpt lat="42.74903" lon="-0.09201">
        <ele>1941.5197753906</ele>
        <time>2015-09-10T07:59:31Z</time>
      </trkpt>
      <trkpt lat="42.74902" lon="-0.09202">
        <ele>1941.0390625</ele>
        <time>2015-09-10T08:00:06Z</time>
      </trkpt>
      <trkpt lat="42.74901" lon="-0.09203">
        <ele>1942.0004882812</ele>
        <time>2015-09-10T08:00:47Z</time>
      </trkpt>
      <trkpt lat="42.749" lon="-0.09203">
        <ele>1942.0004882812</ele>
        <time>2015-09-10T08:01:00Z</time>
      </trkpt>
      <trkpt lat="42.74902" lon="-0.09202">
        <ele>1941.5197753906</ele>
        <time>2015-09-10T08:01:37Z</time>
      </trkpt>
      <trkpt lat="42.74901" lon="-0.09202">
        <ele>1937.1938476562</ele>
        <time>2015-09-10T08:01:50Z</time>
      </trkpt>
      <trkpt lat="42.74901" lon="-0.09202">
        <ele>1945.3649902344</ele>
        <time>2015-09-10T08:01:51Z</time>
      </trkpt>
      <trkpt lat="42.749" lon="-0.09202">
        <ele>1943.4423828125</ele>
        <time>2015-09-10T08:01:52Z</time>
      </trkpt>
      <trkpt lat="42.74901" lon="-0.09201">
        <ele>1942.0004882812</ele>
        <time>2015-09-10T08:01:56Z</time>
      </trkpt>
      <trkpt lat="42.74901" lon="-0.09203">
        <ele>1942.9616699219</ele>
        <time>2015-09-10T08:02:18Z</time>
      </trkpt>
      <trkpt lat="42.74893" lon="-0.09208">
        <ele>1941.5197753906</ele>
        <time>2015-09-10T08:02:31Z</time>
      </trkpt>
      <trkpt lat="42.74878" lon="-0.09212">
        <ele>1939.1164550781</ele>
        <time>2015-09-10T08:02:48Z</time>
      </trkpt>
      <trkpt lat="42.74869" lon="-0.09208">
        <ele>1938.6359863281</ele>
        <time>2015-09-10T08:03:02Z</time>
      </trkpt>
      <trkpt lat="42.74872" lon="-0.09195">
        <ele>1940.0778808594</ele>
        <time>2015-09-10T08:03:17Z</time>
      </trkpt>
      <trkpt lat="42.74873" lon="-0.0919">
        <ele>1941.0390625</ele>
        <time>2015-09-10T08:03:23Z</time>
      </trkpt>
      <trkpt lat="42.7487" lon="-0.09174">
        <ele>1941.0390625</ele>
        <time>2015-09-10T08:03:37Z</time>
      </trkpt>
      <trkpt lat="42.74853" lon="-0.09158">
        <ele>1940.5583496094</ele>
        <time>2015-09-10T08:03:54Z</time>
      </trkpt>
      <trkpt lat="42.7483" lon="-0.09145">
        <ele>1939.5971679688</ele>
        <time>2015-09-10T08:04:14Z</time>
      </trkpt>
      <trkpt lat="42.74816" lon="-0.0914">
        <ele>1938.6359863281</ele>
        <time>2015-09-10T08:04:28Z</time>
      </trkpt>
      <trkpt lat="42.74787" lon="-0.09134">
        <ele>1937.1938476562</ele>
        <time>2015-09-10T08:04:50Z</time>
      </trkpt>
      <trkpt lat="42.74785" lon="-0.09133">
        <ele>1936.7131347656</ele>
        <time>2015-09-10T08:04:52Z</time>
      </trkpt>
      <trkpt lat="42.74763" lon="-0.09138">
        <ele>1935.751953125</ele>
        <time>2015-09-10T08:05:12Z</time>
      </trkpt>
      <trkpt lat="42.74748" lon="-0.09147">
        <ele>1931.9064941406</ele>
        <time>2015-09-10T08:05:29Z</time>
      </trkpt>
      <trkpt lat="42.74744" lon="-0.0915">
        <ele>1931.9064941406</ele>
        <time>2015-09-10T08:05:33Z</time>
      </trkpt>
      <trkpt lat="42.74725" lon="-0.09154">
        <ele>1930.9453125</ele>
        <time>2015-09-10T08:05:50Z</time>
      </trkpt>
      <trkpt lat="42.74707" lon="-0.09156">
        <ele>1931.42578125</ele>
        <time>2015-09-10T08:06:06Z</time>
      </trkpt>
      <trkpt lat="42.74691" lon="-0.09163">
        <ele>1929.9838867188</ele>
        <time>2015-09-10T08:06:23Z</time>
      </trkpt>
      <trkpt lat="42.74684" lon="-0.09164">
        <ele>1929.9838867188</ele>
        <time>2015-09-10T08:06:39Z</time>
      </trkpt>
      <trkpt lat="42.74679" lon="-0.09154">
        <ele>1931.9064941406</ele>
        <time>2015-09-10T08:06:52Z</time>
      </trkpt>
      <trkpt lat="42.74678" lon="-0.09142">
        <ele>1934.7907714844</ele>
        <time>2015-09-10T08:07:07Z</time>
      </trkpt>
      <trkpt lat="42.74667" lon="-0.09148">
        <ele>1937.1938476562</ele>
        <time>2015-09-10T08:07:22Z</time>
      </trkpt>
      <trkpt lat="42.74652" lon="-0.09149">
        <ele>1940.0778808594</ele>
        <time>2015-09-10T08:07:40Z</time>
      </trkpt>
      <trkpt lat="42.74634" lon="-0.09149">
        <ele>1942.4812011719</ele>
        <time>2015-09-10T08:07:57Z</time>
      </trkpt>
      <trkpt lat="42.74613" lon="-0.09151">
        <ele>1944.4035644531</ele>
        <time>2015-09-10T08:08:17Z</time>
      </trkpt>
      <trkpt lat="42.74589" lon="-0.09157">
        <ele>1943.9230957031</ele>
        <time>2015-09-10T08:08:38Z</time>
      </trkpt>
      <trkpt lat="42.74576" lon="-0.09162">
        <ele>1943.9230957031</ele>
        <time>2015-09-10T08:08:51Z</time>
      </trkpt>
      <trkpt lat="42.74569" lon="-0.0916">
        <ele>1944.8842773438</ele>
        <time>2015-09-10T08:09:00Z</time>
      </trkpt>
      <trkpt lat="42.74549" lon="-0.09145">
        <ele>1946.3264160156</ele>
        <time>2015-09-10T08:09:20Z</time>
      </trkpt>
      <trkpt lat="42.74536" lon="-0.09137">
        <ele>1947.2875976562</ele>
        <time>2015-09-10T08:09:33Z</time>
      </trkpt>
      <trkpt lat="42.74521" lon="-0.09127">
        <ele>1948.7297363281</ele>
        <time>2015-09-10T08:09:48Z</time>
      </trkpt>
      <trkpt lat="42.74499" lon="-0.0913">
        <ele>1948.2490234375</ele>
        <time>2015-09-10T08:10:07Z</time>
      </trkpt>
      <trkpt lat="42.7449" lon="-0.09134">
        <ele>1949.2104492188</ele>
        <time>2015-09-10T08:10:23Z</time>
      </trkpt>
      <trkpt lat="42.74489" lon="-0.09129">
        <ele>1947.7683105469</ele>
        <time>2015-09-10T08:10:53Z</time>
      </trkpt>
      <trkpt lat="42.74487" lon="-0.09122">
        <ele>1946.8068847656</ele>
        <time>2015-09-10T08:11:00Z</time>
      </trkpt>
      <trkpt lat="42.74496" lon="-0.09097">
        <ele>1947.7683105469</ele>
        <time>2015-09-10T08:11:19Z</time>
      </trkpt>
      <trkpt lat="42.74498" lon="-0.09094">
        <ele>1948.7297363281</ele>
        <time>2015-09-10T08:11:22Z</time>
      </trkpt>
      <trkpt lat="42.74513" lon="-0.09078">
        <ele>1948.7297363281</ele>
        <time>2015-09-10T08:11:38Z</time>
      </trkpt>
      <trkpt lat="42.74529" lon="-0.09063">
        <ele>1949.2104492188</ele>
        <time>2015-09-10T08:11:55Z</time>
      </trkpt>
      <trkpt lat="42.74546" lon="-0.09038">
        <ele>1949.2104492188</ele>
        <time>2015-09-10T08:12:14Z</time>
      </trkpt>
      <trkpt lat="42.74546" lon="-0.09037">
        <ele>1949.2104492188</ele>
        <time>2015-09-10T08:12:15Z</time>
      </trkpt>
      <trkpt lat="42.74555" lon="-0.09012">
        <ele>1950.65234375</ele>
        <time>2015-09-10T08:12:33Z</time>
      </trkpt>
      <trkpt lat="42.74564" lon="-0.08991">
        <ele>1951.1330566406</ele>
        <time>2015-09-10T08:12:48Z</time>
      </trkpt>
      <trkpt lat="42.74579" lon="-0.08977">
        <ele>1953.0556640625</ele>
        <time>2015-09-10T08:13:05Z</time>
      </trkpt>
      <trkpt lat="42.746" lon="-0.0897">
        <ele>1952.5749511719</ele>
        <time>2015-09-10T08:13:25Z</time>
      </trkpt>
      <trkpt lat="42.7462" lon="-0.08955">
        <ele>1953.0556640625</ele>
        <time>2015-09-10T08:13:44Z</time>
      </trkpt>
      <trkpt lat="42.74635" lon="-0.08944">
        <ele>1953.5363769531</ele>
        <time>2015-09-10T08:13:59Z</time>
      </trkpt>
      <trkpt lat="42.74651" lon="-0.08928">
        <ele>1955.458984375</ele>
        <time>2015-09-10T08:14:15Z</time>
      </trkpt>
      <trkpt lat="42.74666" lon="-0.08913">
        <ele>1954.4975585938</ele>
        <time>2015-09-10T08:14:34Z</time>
      </trkpt>
      <trkpt lat="42.74679" lon="-0.08893">
        <ele>1953.0556640625</ele>
        <time>2015-09-10T08:14:51Z</time>
      </trkpt>
      <trkpt lat="42.74683" lon="-0.08888">
        <ele>1954.0170898438</ele>
        <time>2015-09-10T08:15:01Z</time>
      </trkpt>
      <trkpt lat="42.74689" lon="-0.08883">
        <ele>1953.0556640625</ele>
        <time>2015-09-10T08:15:07Z</time>
      </trkpt>
      <trkpt lat="42.74692" lon="-0.08874">
        <ele>1953.0556640625</ele>
        <time>2015-09-10T08:15:13Z</time>
      </trkpt>
      <trkpt lat="42.74705" lon="-0.08848">
        <ele>1953.0556640625</ele>
        <time>2015-09-10T08:15:32Z</time>
      </trkpt>
      <trkpt lat="42.74714" lon="-0.08824">
        <ele>1953.0556640625</ele>
        <time>2015-09-10T08:15:50Z</time>
      </trkpt>
      <trkpt lat="42.74722" lon="-0.08799">
        <ele>1953.0556640625</ele>
        <time>2015-09-10T08:16:06Z</time>
      </trkpt>
      <trkpt lat="42.74729" lon="-0.08781">
        <ele>1953.0556640625</ele>
        <time>2015-09-10T08:16:21Z</time>
      </trkpt>
      <trkpt lat="42.74739" lon="-0.08759">
        <ele>1952.0942382812</ele>
        <time>2015-09-10T08:16:38Z</time>
      </trkpt>
      <trkpt lat="42.7475" lon="-0.08726">
        <ele>1949.2104492188</ele>
        <time>2015-09-10T08:17:01Z</time>
      </trkpt>
      <trkpt lat="42.74756" lon="-0.08701">
        <ele>1948.2490234375</ele>
        <time>2015-09-10T08:17:17Z</time>
      </trkpt>
      <trkpt lat="42.74765" lon="-0.0867">
        <ele>1948.7297363281</ele>
        <time>2015-09-10T08:17:38Z</time>
      </trkpt>
      <trkpt lat="42.74768" lon="-0.08649">
        <ele>1948.7297363281</ele>
        <time>2015-09-10T08:17:54Z</time>
      </trkpt>
      <trkpt lat="42.74775" lon="-0.0863">
        <ele>1949.2104492188</ele>
        <time>2015-09-10T08:18:08Z</time>
      </trkpt>
      <trkpt lat="42.74785" lon="-0.08611">
        <ele>1950.65234375</ele>
        <time>2015-09-10T08:18:24Z</time>
      </trkpt>
      <trkpt lat="42.74792" lon="-0.08592">
        <ele>1953.0556640625</ele>
        <time>2015-09-10T08:18:41Z</time>
      </trkpt>
      <trkpt lat="42.74792" lon="-0.08591">
        <ele>1953.0556640625</ele>
        <time>2015-09-10T08:18:42Z</time>
      </trkpt>
      <trkpt lat="42.74791" lon="-0.08584">
        <ele>1952.5749511719</ele>
        <time>2015-09-10T08:18:46Z</time>
      </trkpt>
      <trkpt lat="42.74789" lon="-0.0856">
        <ele>1954.4975585938</ele>
        <time>2015-09-10T08:19:04Z</time>
      </trkpt>
      <trkpt lat="42.74785" lon="-0.08551">
        <ele>1954.9782714844</ele>
        <time>2015-09-10T08:19:13Z</time>
      </trkpt>
      <trkpt lat="42.74771" lon="-0.0854">
        <ele>1954.4975585938</ele>
        <time>2015-09-10T08:19:29Z</time>
      </trkpt>
      <trkpt lat="42.74765" lon="-0.08528">
        <ele>1954.4975585938</ele>
        <time>2015-09-10T08:19:39Z</time>
      </trkpt>
      <trkpt lat="42.74765" lon="-0.08525">
        <ele>1954.4975585938</ele>
        <time>2015-09-10T08:19:41Z</time>
      </trkpt>
      <trkpt lat="42.74769" lon="-0.08503">
        <ele>1955.939453125</ele>
        <time>2015-09-10T08:19:59Z</time>
      </trkpt>
      <trkpt lat="42.74774" lon="-0.08491">
        <ele>1955.458984375</ele>
        <time>2015-09-10T08:20:15Z</time>
      </trkpt>
      <trkpt lat="42.74773" lon="-0.08475">
        <ele>1954.4975585938</ele>
        <time>2015-09-10T08:20:30Z</time>
      </trkpt>
      <trkpt lat="42.74772" lon="-0.0846">
        <ele>1953.5363769531</ele>
        <time>2015-09-10T08:20:49Z</time>
      </trkpt>
      <trkpt lat="42.74763" lon="-0.08438">
        <ele>1954.0170898438</ele>
        <time>2015-09-10T08:21:06Z</time>
      </trkpt>
      <trkpt lat="42.7476" lon="-0.08423">
        <ele>1953.5363769531</ele>
        <time>2015-09-10T08:21:21Z</time>
      </trkpt>
      <trkpt lat="42.74751" lon="-0.08404">
        <ele>1953.5363769531</ele>
        <time>2015-09-10T08:21:35Z</time>
      </trkpt>
      <trkpt lat="42.74749" lon="-0.08391">
        <ele>1953.5363769531</ele>
        <time>2015-09-10T08:21:44Z</time>
      </trkpt>
      <trkpt lat="42.74745" lon="-0.08377">
        <ele>1954.0170898438</ele>
        <time>2015-09-10T08:21:54Z</time>
      </trkpt>
      <trkpt lat="42.7474" lon="-0.08351">
        <ele>1954.4975585938</ele>
        <time>2015-09-10T08:22:11Z</time>
      </trkpt>
      <trkpt lat="42.74733" lon="-0.08349">
        <ele>1953.5363769531</ele>
        <time>2015-09-10T08:22:23Z</time>
      </trkpt>
      <trkpt lat="42.74726" lon="-0.08354">
        <ele>1953.0556640625</ele>
        <time>2015-09-10T08:22:33Z</time>
      </trkpt>
      <trkpt lat="42.74722" lon="-0.08355">
        <ele>1952.0942382812</ele>
        <time>2015-09-10T08:22:37Z</time>
      </trkpt>
      <trkpt lat="42.74718" lon="-0.08351">
        <ele>1951.1330566406</ele>
        <time>2015-09-10T08:22:41Z</time>
      </trkpt>
      <trkpt lat="42.74711" lon="-0.08325">
        <ele>1949.6911621094</ele>
        <time>2015-09-10T08:22:58Z</time>
      </trkpt>
      <trkpt lat="42.74709" lon="-0.08296">
        <ele>1952.0942382812</ele>
        <time>2015-09-10T08:23:17Z</time>
      </trkpt>
      <trkpt lat="42.74708" lon="-0.08292">
        <ele>1952.0942382812</ele>
        <time>2015-09-10T08:23:24Z</time>
      </trkpt>
      <trkpt lat="42.74702" lon="-0.08282">
        <ele>1952.0942382812</ele>
        <time>2015-09-10T08:23:33Z</time>
      </trkpt>
      <trkpt lat="42.74701" lon="-0.08257">
        <ele>1954.0170898438</ele>
        <time>2015-09-10T08:23:51Z</time>
      </trkpt>
      <trkpt lat="42.74696" lon="-0.08246">
        <ele>1954.9782714844</ele>
        <time>2015-09-10T08:24:09Z</time>
      </trkpt>
      <trkpt lat="42.74699" lon="-0.08246">
        <ele>1953.5363769531</ele>
        <time>2015-09-10T08:24:33Z</time>
      </trkpt>
      <trkpt lat="42.74692" lon="-0.08234">
        <ele>1952.0942382812</ele>
        <time>2015-09-10T08:24:44Z</time>
      </trkpt>
      <trkpt lat="42.74683" lon="-0.08213">
        <ele>1953.0556640625</ele>
        <time>2015-09-10T08:25:01Z</time>
      </trkpt>
      <trkpt lat="42.74681" lon="-0.08183">
        <ele>1954.4975585938</ele>
        <time>2015-09-10T08:25:21Z</time>
      </trkpt>
      <trkpt lat="42.74681" lon="-0.08166">
        <ele>1953.0556640625</ele>
        <time>2015-09-10T08:25:40Z</time>
      </trkpt>
      <trkpt lat="42.74678" lon="-0.08168">
        <ele>1952.0942382812</ele>
        <time>2015-09-10T08:26:58Z</time>
      </trkpt>
      <trkpt lat="42.74674" lon="-0.08159">
        <ele>1951.6137695312</ele>
        <time>2015-09-10T08:27:32Z</time>
      </trkpt>
      <trkpt lat="42.74674" lon="-0.08154">
        <ele>1951.1330566406</ele>
        <time>2015-09-10T08:28:10Z</time>
      </trkpt>
      <trkpt lat="42.7466" lon="-0.08137">
        <ele>1951.1330566406</ele>
        <time>2015-09-10T08:28:27Z</time>
      </trkpt>
      <trkpt lat="42.74656" lon="-0.08129">
        <ele>1950.65234375</ele>
        <time>2015-09-10T08:28:36Z</time>
      </trkpt>
      <trkpt lat="42.7464" lon="-0.08116">
        <ele>1949.2104492188</ele>
        <time>2015-09-10T08:28:53Z</time>
      </trkpt>
      <trkpt lat="42.74625" lon="-0.08099">
        <ele>1948.2490234375</ele>
        <time>2015-09-10T08:29:09Z</time>
      </trkpt>
      <trkpt lat="42.74609" lon="-0.08092">
        <ele>1948.7297363281</ele>
        <time>2015-09-10T08:29:26Z</time>
      </trkpt>
      <trkpt lat="42.74606" lon="-0.08089">
        <ele>1949.2104492188</ele>
        <time>2015-09-10T08:29:30Z</time>
      </trkpt>
      <trkpt lat="42.74594" lon="-0.08083">
        <ele>1950.171875</ele>
        <time>2015-09-10T08:29:44Z</time>
      </trkpt>
      <trkpt lat="42.7459" lon="-0.08084">
        <ele>1949.6911621094</ele>
        <time>2015-09-10T08:29:48Z</time>
      </trkpt>
      <trkpt lat="42.74586" lon="-0.08082">
        <ele>1949.6911621094</ele>
        <time>2015-09-10T08:29:50Z</time>
      </trkpt>
      <trkpt lat="42.74571" lon="-0.0807">
        <ele>1947.7683105469</ele>
        <time>2015-09-10T08:30:07Z</time>
      </trkpt>
      <trkpt lat="42.74562" lon="-0.08065">
        <ele>1948.2490234375</ele>
        <time>2015-09-10T08:30:17Z</time>
      </trkpt>
      <trkpt lat="42.74554" lon="-0.08044">
        <ele>1946.8068847656</ele>
        <time>2015-09-10T08:30:35Z</time>
      </trkpt>
      <trkpt lat="42.7455" lon="-0.08031">
        <ele>1943.4423828125</ele>
        <time>2015-09-10T08:30:45Z</time>
      </trkpt>
      <trkpt lat="42.74548" lon="-0.08003">
        <ele>1941.5197753906</ele>
        <time>2015-09-10T08:31:01Z</time>
      </trkpt>
      <trkpt lat="42.74553" lon="-0.07968">
        <ele>1939.5971679688</ele>
        <time>2015-09-10T08:31:23Z</time>
      </trkpt>
      <trkpt lat="42.74554" lon="-0.07944">
        <ele>1938.1552734375</ele>
        <time>2015-09-10T08:31:38Z</time>
      </trkpt>
      <trkpt lat="42.74547" lon="-0.07917">
        <ele>1936.7131347656</ele>
        <time>2015-09-10T08:31:56Z</time>
      </trkpt>
      <trkpt lat="42.74546" lon="-0.07916">
        <ele>1935.2712402344</ele>
        <time>2015-09-10T08:31:58Z</time>
      </trkpt>
      <trkpt lat="42.74532" lon="-0.07896">
        <ele>1931.9064941406</ele>
        <time>2015-09-10T08:32:16Z</time>
      </trkpt>
      <trkpt lat="42.74525" lon="-0.07867">
        <ele>1929.9838867188</ele>
        <time>2015-09-10T08:32:33Z</time>
      </trkpt>
      <trkpt lat="42.74525" lon="-0.07856">
        <ele>1929.5031738281</ele>
        <time>2015-09-10T08:32:41Z</time>
      </trkpt>
      <trkpt lat="42.74523" lon="-0.07844">
        <ele>1928.5419921875</ele>
        <time>2015-09-10T08:32:49Z</time>
      </trkpt>
      <trkpt lat="42.74519" lon="-0.07838">
        <ele>1928.5419921875</ele>
        <time>2015-09-10T08:32:54Z</time>
      </trkpt>
      <trkpt lat="42.74519" lon="-0.07824">
        <ele>1928.5419921875</ele>
        <time>2015-09-10T08:33:04Z</time>
      </trkpt>
      <trkpt lat="42.7452" lon="-0.0781">
        <ele>1928.0612792969</ele>
        <time>2015-09-10T08:33:13Z</time>
      </trkpt>
      <trkpt lat="42.74518" lon="-0.07802">
        <ele>1928.0612792969</ele>
        <time>2015-09-10T08:33:18Z</time>
      </trkpt>
      <trkpt lat="42.74515" lon="-0.07789">
        <ele>1927.1000976562</ele>
        <time>2015-09-10T08:33:32Z</time>
      </trkpt>
      <trkpt lat="42.74515" lon="-0.07784">
        <ele>1926.138671875</ele>
        <time>2015-09-10T08:33:37Z</time>
      </trkpt>
      <trkpt lat="42.74509" lon="-0.07755">
        <ele>1926.6193847656</ele>
        <time>2015-09-10T08:33:54Z</time>
      </trkpt>
      <trkpt lat="42.74504" lon="-0.07726">
        <ele>1925.6579589844</ele>
        <time>2015-09-10T08:34:11Z</time>
      </trkpt>
      <trkpt lat="42.74498" lon="-0.07708">
        <ele>1927.5805664062</ele>
        <time>2015-09-10T08:34:23Z</time>
      </trkpt>
      <trkpt lat="42.74494" lon="-0.07703">
        <ele>1927.1000976562</ele>
        <time>2015-09-10T08:34:27Z</time>
      </trkpt>
      <trkpt lat="42.74483" lon="-0.07676">
        <ele>1927.1000976562</ele>
        <time>2015-09-10T08:34:44Z</time>
      </trkpt>
      <trkpt lat="42.74471" lon="-0.0765">
        <ele>1927.5805664062</ele>
        <time>2015-09-10T08:35:01Z</time>
      </trkpt>
      <trkpt lat="42.7447" lon="-0.07647">
        <ele>1927.5805664062</ele>
        <time>2015-09-10T08:35:04Z</time>
      </trkpt>
      <trkpt lat="42.74469" lon="-0.07636">
        <ele>1928.0612792969</ele>
        <time>2015-09-10T08:35:12Z</time>
      </trkpt>
      <trkpt lat="42.74462" lon="-0.07629">
        <ele>1927.5805664062</ele>
        <time>2015-09-10T08:35:25Z</time>
      </trkpt>
      <trkpt lat="42.74443" lon="-0.07626">
        <ele>1925.6579589844</ele>
        <time>2015-09-10T08:35:43Z</time>
      </trkpt>
      <trkpt lat="42.74439" lon="-0.07624">
        <ele>1924.6967773438</ele>
        <time>2015-09-10T08:35:47Z</time>
      </trkpt>
      <trkpt lat="42.74418" lon="-0.07626">
        <ele>1921.33203125</ele>
        <time>2015-09-10T08:36:06Z</time>
      </trkpt>
      <trkpt lat="42.74412" lon="-0.07626">
        <ele>1920.8515625</ele>
        <time>2015-09-10T08:36:11Z</time>
      </trkpt>
      <trkpt lat="42.74405" lon="-0.07617">
        <ele>1920.8515625</ele>
        <time>2015-09-10T08:36:19Z</time>
      </trkpt>
      <trkpt lat="42.74403" lon="-0.07615">
        <ele>1919.8901367188</ele>
        <time>2015-09-10T08:36:22Z</time>
      </trkpt>
      <trkpt lat="42.74394" lon="-0.076">
        <ele>1917.4868164062</ele>
        <time>2015-09-10T08:36:34Z</time>
      </trkpt>
      <trkpt lat="42.74393" lon="-0.07599">
        <ele>1917.4868164062</ele>
        <time>2015-09-10T08:36:35Z</time>
      </trkpt>
      <trkpt lat="42.74392" lon="-0.07595">
        <ele>1916.5256347656</ele>
        <time>2015-09-10T08:36:38Z</time>
      </trkpt>
      <trkpt lat="42.74378" lon="-0.07575">
        <ele>1915.0834960938</ele>
        <time>2015-09-10T08:36:53Z</time>
      </trkpt>
      <trkpt lat="42.74373" lon="-0.07548">
        <ele>1917.0063476562</ele>
        <time>2015-09-10T08:37:11Z</time>
      </trkpt>
      <trkpt lat="42.74371" lon="-0.07517">
        <ele>1917.0063476562</ele>
        <time>2015-09-10T08:37:29Z</time>
      </trkpt>
      <trkpt lat="42.74367" lon="-0.07489">
        <ele>1918.9289550781</ele>
        <time>2015-09-10T08:37:47Z</time>
      </trkpt>
      <trkpt lat="42.74362" lon="-0.07469">
        <ele>1918.4482421875</ele>
        <time>2015-09-10T08:38:03Z</time>
      </trkpt>
      <trkpt lat="42.74358" lon="-0.07453">
        <ele>1916.5256347656</ele>
        <time>2015-09-10T08:38:17Z</time>
      </trkpt>
      <trkpt lat="42.74353" lon="-0.07433">
        <ele>1914.6027832031</ele>
        <time>2015-09-10T08:38:32Z</time>
      </trkpt>
      <trkpt lat="42.74345" lon="-0.07409">
        <ele>1913.6413574219</ele>
        <time>2015-09-10T08:38:50Z</time>
      </trkpt>
      <trkpt lat="42.74341" lon="-0.07397">
        <ele>1914.1220703125</ele>
        <time>2015-09-10T08:38:58Z</time>
      </trkpt>
      <trkpt lat="42.7434" lon="-0.07394">
        <ele>1914.1220703125</ele>
        <time>2015-09-10T08:39:00Z</time>
      </trkpt>
      <trkpt lat="42.74333" lon="-0.07372">
        <ele>1915.5642089844</ele>
        <time>2015-09-10T08:39:16Z</time>
      </trkpt>
      <trkpt lat="42.74322" lon="-0.07353">
        <ele>1913.6413574219</ele>
        <time>2015-09-10T08:39:32Z</time>
      </trkpt>
      <trkpt lat="42.74306" lon="-0.07334">
        <ele>1912.6801757812</ele>
        <time>2015-09-10T08:39:50Z</time>
      </trkpt>
      <trkpt lat="42.74287" lon="-0.07325">
        <ele>1913.1608886719</ele>
        <time>2015-09-10T08:40:08Z</time>
      </trkpt>
      <trkpt lat="42.74265" lon="-0.07316">
        <ele>1912.1994628906</ele>
        <time>2015-09-10T08:40:27Z</time>
      </trkpt>
      <trkpt lat="42.74264" lon="-0.07315">
        <ele>1912.1994628906</ele>
        <time>2015-09-10T08:40:28Z</time>
      </trkpt>
      <trkpt lat="42.74246" lon="-0.07305">
        <ele>1911.23828125</ele>
        <time>2015-09-10T08:40:45Z</time>
      </trkpt>
      <trkpt lat="42.7423" lon="-0.07305">
        <ele>1910.7575683594</ele>
        <time>2015-09-10T08:41:00Z</time>
      </trkpt>
      <trkpt lat="42.7423" lon="-0.07305">
        <ele>1910.2768554688</ele>
        <time>2015-09-10T08:41:01Z</time>
      </trkpt>
      <trkpt lat="42.74216" lon="-0.07287">
        <ele>1910.7575683594</ele>
        <time>2015-09-10T08:41:17Z</time>
      </trkpt>
      <trkpt lat="42.74196" lon="-0.07271">
        <ele>1910.2768554688</ele>
        <time>2015-09-10T08:41:35Z</time>
      </trkpt>
      <trkpt lat="42.74189" lon="-0.0727">
        <ele>1909.7961425781</ele>
        <time>2015-09-10T08:41:50Z</time>
      </trkpt>
      <trkpt lat="42.74171" lon="-0.07262">
        <ele>1910.7575683594</ele>
        <time>2015-09-10T08:42:09Z</time>
      </trkpt>
      <trkpt lat="42.74156" lon="-0.07254">
        <ele>1910.7575683594</ele>
        <time>2015-09-10T08:42:25Z</time>
      </trkpt>
      <trkpt lat="42.74147" lon="-0.07256">
        <ele>1910.7575683594</ele>
        <time>2015-09-10T08:42:33Z</time>
      </trkpt>
      <trkpt lat="42.74145" lon="-0.07255">
        <ele>1910.2768554688</ele>
        <time>2015-09-10T08:42:35Z</time>
      </trkpt>
      <trkpt lat="42.7414" lon="-0.07255">
        <ele>1910.2768554688</ele>
        <time>2015-09-10T08:42:39Z</time>
      </trkpt>
      <trkpt lat="42.74124" lon="-0.07249">
        <ele>1906.9123535156</ele>
        <time>2015-09-10T08:42:54Z</time>
      </trkpt>
      <trkpt lat="42.74104" lon="-0.07251">
        <ele>1906.9123535156</ele>
        <time>2015-09-10T08:43:10Z</time>
      </trkpt>
      <trkpt lat="42.74089" lon="-0.07254">
        <ele>1905.9509277344</ele>
        <time>2015-09-10T08:43:25Z</time>
      </trkpt>
      <trkpt lat="42.74065" lon="-0.07258">
        <ele>1905.4704589844</ele>
        <time>2015-09-10T08:43:43Z</time>
      </trkpt>
      <trkpt lat="42.74043" lon="-0.07254">
        <ele>1905.9509277344</ele>
        <time>2015-09-10T08:44:01Z</time>
      </trkpt>
      <trkpt lat="42.74028" lon="-0.07255">
        <ele>1906.431640625</ele>
        <time>2015-09-10T08:44:13Z</time>
      </trkpt>
      <trkpt lat="42.74021" lon="-0.07254">
        <ele>1905.4704589844</ele>
        <time>2015-09-10T08:44:19Z</time>
      </trkpt>
      <trkpt lat="42.73997" lon="-0.07259">
        <ele>1904.9897460938</ele>
        <time>2015-09-10T08:44:38Z</time>
      </trkpt>
      <trkpt lat="42.73992" lon="-0.07263">
        <ele>1905.9509277344</ele>
        <time>2015-09-10T08:44:42Z</time>
      </trkpt>
      <trkpt lat="42.73988" lon="-0.07264">
        <ele>1905.9509277344</ele>
        <time>2015-09-10T08:44:46Z</time>
      </trkpt>
      <trkpt lat="42.73982" lon="-0.07263">
        <ele>1905.4704589844</ele>
        <time>2015-09-10T08:44:52Z</time>
      </trkpt>
      <trkpt lat="42.73963" lon="-0.07264">
        <ele>1905.4704589844</ele>
        <time>2015-09-10T08:45:08Z</time>
      </trkpt>
      <trkpt lat="42.73943" lon="-0.07262">
        <ele>1907.3930664062</ele>
        <time>2015-09-10T08:45:24Z</time>
      </trkpt>
      <trkpt lat="42.73926" lon="-0.07259">
        <ele>1908.3542480469</ele>
        <time>2015-09-10T08:45:40Z</time>
      </trkpt>
      <trkpt lat="42.73922" lon="-0.07258">
        <ele>1908.3542480469</ele>
        <time>2015-09-10T08:45:54Z</time>
      </trkpt>
      <trkpt lat="42.73916" lon="-0.07254">
        <ele>1908.3542480469</ele>
        <time>2015-09-10T08:45:59Z</time>
      </trkpt>
      <trkpt lat="42.73902" lon="-0.07247">
        <ele>1908.8349609375</ele>
        <time>2015-09-10T08:46:12Z</time>
      </trkpt>
      <trkpt lat="42.73888" lon="-0.07235">
        <ele>1909.7961425781</ele>
        <time>2015-09-10T08:46:29Z</time>
      </trkpt>
      <trkpt lat="42.73876" lon="-0.07225">
        <ele>1909.3156738281</ele>
        <time>2015-09-10T08:46:43Z</time>
      </trkpt>
      <trkpt lat="42.73871" lon="-0.07219">
        <ele>1909.7961425781</ele>
        <time>2015-09-10T08:46:51Z</time>
      </trkpt>
      <trkpt lat="42.73863" lon="-0.07216">
        <ele>1910.2768554688</ele>
        <time>2015-09-10T08:46:59Z</time>
      </trkpt>
      <trkpt lat="42.73849" lon="-0.07209">
        <ele>1910.7575683594</ele>
        <time>2015-09-10T08:47:13Z</time>
      </trkpt>
      <trkpt lat="42.73843" lon="-0.07204">
        <ele>1910.7575683594</ele>
        <time>2015-09-10T08:47:27Z</time>
      </trkpt>
      <trkpt lat="42.73834" lon="-0.07187">
        <ele>1911.23828125</ele>
        <time>2015-09-10T08:47:41Z</time>
      </trkpt>
      <trkpt lat="42.73821" lon="-0.07168">
        <ele>1910.7575683594</ele>
        <time>2015-09-10T08:47:56Z</time>
      </trkpt>
      <trkpt lat="42.73809" lon="-0.07149">
        <ele>1908.3542480469</ele>
        <time>2015-09-10T08:48:12Z</time>
      </trkpt>
      <trkpt lat="42.73807" lon="-0.07145">
        <ele>1908.3542480469</ele>
        <time>2015-09-10T08:48:16Z</time>
      </trkpt>
      <trkpt lat="42.73802" lon="-0.07137">
        <ele>1907.3930664062</ele>
        <time>2015-09-10T08:48:23Z</time>
      </trkpt>
      <trkpt lat="42.7379" lon="-0.07122">
        <ele>1907.8737792969</ele>
        <time>2015-09-10T08:48:39Z</time>
      </trkpt>
      <trkpt lat="42.73773" lon="-0.07103">
        <ele>1908.3542480469</ele>
        <time>2015-09-10T08:48:57Z</time>
      </trkpt>
      <trkpt lat="42.73771" lon="-0.07102">
        <ele>1907.8737792969</ele>
        <time>2015-09-10T08:48:59Z</time>
      </trkpt>
      <trkpt lat="42.73767" lon="-0.07097">
        <ele>1907.3930664062</ele>
        <time>2015-09-10T08:49:03Z</time>
      </trkpt>
      <trkpt lat="42.73761" lon="-0.07093">
        <ele>1907.8737792969</ele>
        <time>2015-09-10T08:49:09Z</time>
      </trkpt>
      <trkpt lat="42.73757" lon="-0.07088">
        <ele>1908.8349609375</ele>
        <time>2015-09-10T08:49:14Z</time>
      </trkpt>
      <trkpt lat="42.73754" lon="-0.07087">
        <ele>1907.8737792969</ele>
        <time>2015-09-10T08:49:17Z</time>
      </trkpt>
      <trkpt lat="42.73752" lon="-0.07087">
        <ele>1908.8349609375</ele>
        <time>2015-09-10T08:49:20Z</time>
      </trkpt>
      <trkpt lat="42.73745" lon="-0.07083">
        <ele>1907.8737792969</ele>
        <time>2015-09-10T08:49:26Z</time>
      </trkpt>
      <trkpt lat="42.73737" lon="-0.07073">
        <ele>1907.3930664062</ele>
        <time>2015-09-10T08:49:41Z</time>
      </trkpt>
      <trkpt lat="42.73738" lon="-0.07063">
        <ele>1906.431640625</ele>
        <time>2015-09-10T08:49:52Z</time>
      </trkpt>
      <trkpt lat="42.73739" lon="-0.0706">
        <ele>1907.3930664062</ele>
        <time>2015-09-10T08:49:54Z</time>
      </trkpt>
      <trkpt lat="42.7375" lon="-0.0704">
        <ele>1909.3156738281</ele>
        <time>2015-09-10T08:50:11Z</time>
      </trkpt>
      <trkpt lat="42.73764" lon="-0.0703">
        <ele>1910.2768554688</ele>
        <time>2015-09-10T08:50:28Z</time>
      </trkpt>
      <trkpt lat="42.73779" lon="-0.07025">
        <ele>1911.7189941406</ele>
        <time>2015-09-10T08:50:43Z</time>
      </trkpt>
      <trkpt lat="42.73779" lon="-0.07027">
        <ele>1906.9123535156</ele>
        <time>2015-09-10T08:50:47Z</time>
      </trkpt>
      <trkpt lat="42.73778" lon="-0.07027">
        <ele>1910.2768554688</ele>
        <time>2015-09-10T08:50:48Z</time>
      </trkpt>
      <trkpt lat="42.73778" lon="-0.07027">
        <ele>1915.0834960938</ele>
        <time>2015-09-10T08:50:49Z</time>
      </trkpt>
      <trkpt lat="42.73779" lon="-0.07029">
        <ele>1913.1608886719</ele>
        <time>2015-09-10T08:50:50Z</time>
      </trkpt>
      <trkpt lat="42.73781" lon="-0.07028">
        <ele>1911.7189941406</ele>
        <time>2015-09-10T08:50:52Z</time>
      </trkpt>
      <trkpt lat="42.73784" lon="-0.07014">
        <ele>1913.1608886719</ele>
        <time>2015-09-10T08:51:04Z</time>
      </trkpt>
      <trkpt lat="42.73792" lon="-0.07015">
        <ele>1912.6801757812</ele>
        <time>2015-09-10T08:51:18Z</time>
      </trkpt>
      <trkpt lat="42.73797" lon="-0.07016">
        <ele>1911.7189941406</ele>
        <time>2015-09-10T08:51:26Z</time>
      </trkpt>
      <trkpt lat="42.73805" lon="-0.07017">
        <ele>1910.7575683594</ele>
        <time>2015-09-10T08:51:36Z</time>
      </trkpt>
      <trkpt lat="42.73818" lon="-0.0701">
        <ele>1909.7961425781</ele>
        <time>2015-09-10T08:51:50Z</time>
      </trkpt>
      <trkpt lat="42.73822" lon="-0.0701">
        <ele>1909.7961425781</ele>
        <time>2015-09-10T08:51:54Z</time>
      </trkpt>
      <trkpt lat="42.73839" lon="-0.07004">
        <ele>1908.3542480469</ele>
        <time>2015-09-10T08:52:10Z</time>
      </trkpt>
      <trkpt lat="42.7384" lon="-0.07003">
        <ele>1907.3930664062</ele>
        <time>2015-09-10T08:52:11Z</time>
      </trkpt>
      <trkpt lat="42.73843" lon="-0.07001">
        <ele>1908.8349609375</ele>
        <time>2015-09-10T08:52:14Z</time>
      </trkpt>
      <trkpt lat="42.73855" lon="-0.06995">
        <ele>1905.9509277344</ele>
        <time>2015-09-10T08:52:30Z</time>
      </trkpt>
      <trkpt lat="42.7386" lon="-0.06995">
        <ele>1904.9897460938</ele>
        <time>2015-09-10T08:52:35Z</time>
      </trkpt>
      <trkpt lat="42.73868" lon="-0.06998">
        <ele>1904.0285644531</ele>
        <time>2015-09-10T08:52:44Z</time>
      </trkpt>
      <trkpt lat="42.7388" lon="-0.06983">
        <ele>1902.5864257812</ele>
        <time>2015-09-10T08:52:58Z</time>
      </trkpt>
      <trkpt lat="42.73883" lon="-0.06976">
        <ele>1902.5864257812</ele>
        <time>2015-09-10T08:53:04Z</time>
      </trkpt>
      <trkpt lat="42.73881" lon="-0.06968">
        <ele>1902.5864257812</ele>
        <time>2015-09-10T08:53:10Z</time>
      </trkpt>
      <trkpt lat="42.73886" lon="-0.06961">
        <ele>1902.5864257812</ele>
        <time>2015-09-10T08:53:17Z</time>
      </trkpt>
      <trkpt lat="42.73895" lon="-0.06956">
        <ele>1903.5478515625</ele>
        <time>2015-09-10T08:53:25Z</time>
      </trkpt>
      <trkpt lat="42.73898" lon="-0.06944">
        <ele>1904.0285644531</ele>
        <time>2015-09-10T08:53:41Z</time>
      </trkpt>
      <trkpt lat="42.73905" lon="-0.06952">
        <ele>1904.0285644531</ele>
        <time>2015-09-10T08:54:01Z</time>
      </trkpt>
      <trkpt lat="42.73905" lon="-0.06953">
        <ele>1904.0285644531</ele>
        <time>2015-09-10T08:54:37Z</time>
      </trkpt>
      <trkpt lat="42.73907" lon="-0.06951">
        <ele>1904.0285644531</ele>
        <time>2015-09-10T08:55:14Z</time>
      </trkpt>
      <trkpt lat="42.7391" lon="-0.06952">
        <ele>1903.0671386719</ele>
        <time>2015-09-10T08:55:20Z</time>
      </trkpt>
      <trkpt lat="42.73911" lon="-0.06952">
        <ele>1904.5090332031</ele>
        <time>2015-09-10T08:55:23Z</time>
      </trkpt>
      <trkpt lat="42.73904" lon="-0.0695">
        <ele>1904.0285644531</ele>
        <time>2015-09-10T08:55:47Z</time>
      </trkpt>
      <trkpt lat="42.7391" lon="-0.06951">
        <ele>1904.0285644531</ele>
        <time>2015-09-10T08:56:25Z</time>
      </trkpt>
      <trkpt lat="42.73907" lon="-0.06953">
        <ele>1903.0671386719</ele>
        <time>2015-09-10T08:57:24Z</time>
      </trkpt>
      <trkpt lat="42.73903" lon="-0.06959">
        <ele>1903.5478515625</ele>
        <time>2015-09-10T08:58:40Z</time>
      </trkpt>
      <trkpt lat="42.73909" lon="-0.06953">
        <ele>1903.5478515625</ele>
        <time>2015-09-10T08:59:40Z</time>
      </trkpt>
      <trkpt lat="42.73909" lon="-0.06952">
        <ele>1899.7023925781</ele>
        <time>2015-09-10T09:00:07Z</time>
      </trkpt>
      <trkpt lat="42.7391" lon="-0.06952">
        <ele>1904.9897460938</ele>
        <time>2015-09-10T09:00:08Z</time>
      </trkpt>
      <trkpt lat="42.73915" lon="-0.06947">
        <ele>1904.5090332031</ele>
        <time>2015-09-10T09:00:26Z</time>
      </trkpt>
      <trkpt lat="42.73925" lon="-0.06946">
        <ele>1903.5478515625</ele>
        <time>2015-09-10T09:00:38Z</time>
      </trkpt>
      <trkpt lat="42.73943" lon="-0.0694">
        <ele>1904.0285644531</ele>
        <time>2015-09-10T09:00:54Z</time>
      </trkpt>
      <trkpt lat="42.73948" lon="-0.06937">
        <ele>1903.5478515625</ele>
        <time>2015-09-10T09:00:59Z</time>
      </trkpt>
      <trkpt lat="42.73958" lon="-0.06936">
        <ele>1904.5090332031</ele>
        <time>2015-09-10T09:01:11Z</time>
      </trkpt>
      <trkpt lat="42.73965" lon="-0.06935">
        <ele>1904.9897460938</ele>
        <time>2015-09-10T09:01:19Z</time>
      </trkpt>
      <trkpt lat="42.73982" lon="-0.06931">
        <ele>1904.0285644531</ele>
        <time>2015-09-10T09:01:35Z</time>
      </trkpt>
      <trkpt lat="42.73986" lon="-0.06932">
        <ele>1904.0285644531</ele>
        <time>2015-09-10T09:01:39Z</time>
      </trkpt>
      <trkpt lat="42.73997" lon="-0.06926">
        <ele>1903.0671386719</ele>
        <time>2015-09-10T09:01:53Z</time>
      </trkpt>
      <trkpt lat="42.74006" lon="-0.0692">
        <ele>1903.0671386719</ele>
        <time>2015-09-10T09:02:07Z</time>
      </trkpt>
      <trkpt lat="42.74011" lon="-0.06915">
        <ele>1903.5478515625</ele>
        <time>2015-09-10T09:02:22Z</time>
      </trkpt>
      <trkpt lat="42.74013" lon="-0.06915">
        <ele>1897.7797851562</ele>
        <time>2015-09-10T09:02:31Z</time>
      </trkpt>
      <trkpt lat="42.74013" lon="-0.06914">
        <ele>1907.3930664062</ele>
        <time>2015-09-10T09:02:32Z</time>
      </trkpt>
      <trkpt lat="42.74014" lon="-0.06914">
        <ele>1903.5478515625</ele>
        <time>2015-09-10T09:02:33Z</time>
      </trkpt>
      <trkpt lat="42.74022" lon="-0.06914">
        <ele>1903.0671386719</ele>
        <time>2015-09-10T09:02:42Z</time>
      </trkpt>
      <trkpt lat="42.74026" lon="-0.06913">
        <ele>1903.5478515625</ele>
        <time>2015-09-10T09:02:46Z</time>
      </trkpt>
      <trkpt lat="42.74034" lon="-0.06903">
        <ele>1904.9897460938</ele>
        <time>2015-09-10T09:03:01Z</time>
      </trkpt>
      <trkpt lat="42.74042" lon="-0.06899">
        <ele>1903.5478515625</ele>
        <time>2015-09-10T09:03:12Z</time>
      </trkpt>
      <trkpt lat="42.74052" lon="-0.06886">
        <ele>1903.5478515625</ele>
        <time>2015-09-10T09:03:27Z</time>
      </trkpt>
      <trkpt lat="42.7406" lon="-0.06882">
        <ele>1903.5478515625</ele>
        <time>2015-09-10T09:03:36Z</time>
      </trkpt>
      <trkpt lat="42.74072" lon="-0.06867">
        <ele>1902.5864257812</ele>
        <time>2015-09-10T09:03:53Z</time>
      </trkpt>
      <trkpt lat="42.74073" lon="-0.06863">
        <ele>1902.5864257812</ele>
        <time>2015-09-10T09:03:56Z</time>
      </trkpt>
      <trkpt lat="42.74087" lon="-0.06839">
        <ele>1901.6252441406</ele>
        <time>2015-09-10T09:04:14Z</time>
      </trkpt>
      <trkpt lat="42.74096" lon="-0.06823">
        <ele>1901.14453125</ele>
        <time>2015-09-10T09:04:27Z</time>
      </trkpt>
      <trkpt lat="42.74099" lon="-0.06807">
        <ele>1901.6252441406</ele>
        <time>2015-09-10T09:04:41Z</time>
      </trkpt>
      <trkpt lat="42.74113" lon="-0.06796">
        <ele>1901.14453125</ele>
        <time>2015-09-10T09:04:57Z</time>
      </trkpt>
      <trkpt lat="42.74126" lon="-0.06786">
        <ele>1901.14453125</ele>
        <time>2015-09-10T09:05:11Z</time>
      </trkpt>
      <trkpt lat="42.7413" lon="-0.06783">
        <ele>1901.6252441406</ele>
        <time>2015-09-10T09:05:16Z</time>
      </trkpt>
      <trkpt lat="42.74143" lon="-0.06773">
        <ele>1902.5864257812</ele>
        <time>2015-09-10T09:05:32Z</time>
      </trkpt>
      <trkpt lat="42.74154" lon="-0.06766">
        <ele>1903.0671386719</ele>
        <time>2015-09-10T09:05:46Z</time>
      </trkpt>
      <trkpt lat="42.74164" lon="-0.06759">
        <ele>1904.0285644531</ele>
        <time>2015-09-10T09:06:01Z</time>
      </trkpt>
      <trkpt lat="42.74167" lon="-0.06754">
        <ele>1904.5090332031</ele>
        <time>2015-09-10T09:06:07Z</time>
      </trkpt>
      <trkpt lat="42.7417" lon="-0.06745">
        <ele>1904.9897460938</ele>
        <time>2015-09-10T09:06:24Z</time>
      </trkpt>
      <trkpt lat="42.7417" lon="-0.0674">
        <ele>1904.5090332031</ele>
        <time>2015-09-10T09:07:01Z</time>
      </trkpt>
      <trkpt lat="42.74169" lon="-0.06739">
        <ele>1904.5090332031</ele>
        <time>2015-09-10T09:07:03Z</time>
      </trkpt>
      <trkpt lat="42.74157" lon="-0.06732">
        <ele>1902.1057128906</ele>
        <time>2015-09-10T09:07:22Z</time>
      </trkpt>
      <trkpt lat="42.74149" lon="-0.06727">
        <ele>1900.1833496094</ele>
        <time>2015-09-10T09:07:34Z</time>
      </trkpt>
      <trkpt lat="42.74145" lon="-0.06719">
        <ele>1900.6638183594</ele>
        <time>2015-09-10T09:07:40Z</time>
      </trkpt>
      <trkpt lat="42.74145" lon="-0.06713">
        <ele>1900.1833496094</ele>
        <time>2015-09-10T09:07:44Z</time>
      </trkpt>
      <trkpt lat="42.74146" lon="-0.06707">
        <ele>1900.1833496094</ele>
        <time>2015-09-10T09:07:48Z</time>
      </trkpt>
      <trkpt lat="42.74147" lon="-0.06699">
        <ele>1898.7409667969</ele>
        <time>2015-09-10T09:07:53Z</time>
      </trkpt>
      <trkpt lat="42.74148" lon="-0.06696">
        <ele>1899.2216796875</ele>
        <time>2015-09-10T09:07:55Z</time>
      </trkpt>
      <trkpt lat="42.74158" lon="-0.06665">
        <ele>1898.7409667969</ele>
        <time>2015-09-10T09:08:15Z</time>
      </trkpt>
      <trkpt lat="42.74165" lon="-0.06641">
        <ele>1898.7409667969</ele>
        <time>2015-09-10T09:08:32Z</time>
      </trkpt>
      <trkpt lat="42.74167" lon="-0.06614">
        <ele>1898.2602539062</ele>
        <time>2015-09-10T09:08:49Z</time>
      </trkpt>
      <trkpt lat="42.7417" lon="-0.06589">
        <ele>1897.2990722656</ele>
        <time>2015-09-10T09:09:05Z</time>
      </trkpt>
      <trkpt lat="42.74172" lon="-0.06563">
        <ele>1896.337890625</ele>
        <time>2015-09-10T09:09:22Z</time>
      </trkpt>
      <trkpt lat="42.74173" lon="-0.06557">
        <ele>1896.337890625</ele>
        <time>2015-09-10T09:09:27Z</time>
      </trkpt>
      <trkpt lat="42.74175" lon="-0.06531">
        <ele>1895.8571777344</ele>
        <time>2015-09-10T09:09:44Z</time>
      </trkpt>
      <trkpt lat="42.74189" lon="-0.06506">
        <ele>1896.818359375</ele>
        <time>2015-09-10T09:10:03Z</time>
      </trkpt>
      <trkpt lat="42.74189" lon="-0.065">
        <ele>1895.8571777344</ele>
        <time>2015-09-10T09:10:07Z</time>
      </trkpt>
      <trkpt lat="42.74188" lon="-0.06497">
        <ele>1895.8571777344</ele>
        <time>2015-09-10T09:10:09Z</time>
      </trkpt>
      <trkpt lat="42.74198" lon="-0.06473">
        <ele>1893.9345703125</ele>
        <time>2015-09-10T09:10:26Z</time>
      </trkpt>
      <trkpt lat="42.74207" lon="-0.06462">
        <ele>1894.4150390625</ele>
        <time>2015-09-10T09:10:35Z</time>
      </trkpt>
      <trkpt lat="42.74218" lon="-0.06436">
        <ele>1892.9731445312</ele>
        <time>2015-09-10T09:10:54Z</time>
      </trkpt>
      <trkpt lat="42.74219" lon="-0.06411">
        <ele>1892.9731445312</ele>
        <time>2015-09-10T09:11:13Z</time>
      </trkpt>
      <trkpt lat="42.74219" lon="-0.06386">
        <ele>1891.0505371094</ele>
        <time>2015-09-10T09:11:28Z</time>
      </trkpt>
      <trkpt lat="42.74227" lon="-0.06356">
        <ele>1889.6086425781</ele>
        <time>2015-09-10T09:11:47Z</time>
      </trkpt>
      <trkpt lat="42.74242" lon="-0.06336">
        <ele>1890.5698242188</ele>
        <time>2015-09-10T09:12:04Z</time>
      </trkpt>
      <trkpt lat="42.74249" lon="-0.06321">
        <ele>1890.5698242188</ele>
        <time>2015-09-10T09:12:19Z</time>
      </trkpt>
      <trkpt lat="42.74256" lon="-0.06298">
        <ele>1889.1279296875</ele>
        <time>2015-09-10T09:12:36Z</time>
      </trkpt>
      <trkpt lat="42.7425" lon="-0.06275">
        <ele>1887.2053222656</ele>
        <time>2015-09-10T09:12:52Z</time>
      </trkpt>
      <trkpt lat="42.74247" lon="-0.06266">
        <ele>1886.724609375</ele>
        <time>2015-09-10T09:12:58Z</time>
      </trkpt>
      <trkpt lat="42.74245" lon="-0.06261">
        <ele>1886.724609375</ele>
        <time>2015-09-10T09:13:02Z</time>
      </trkpt>
      <trkpt lat="42.7424" lon="-0.0625">
        <ele>1886.244140625</ele>
        <time>2015-09-10T09:13:10Z</time>
      </trkpt>
      <trkpt lat="42.74233" lon="-0.06227">
        <ele>1888.1667480469</ele>
        <time>2015-09-10T09:13:28Z</time>
      </trkpt>
      <trkpt lat="42.74232" lon="-0.06225">
        <ele>1886.724609375</ele>
        <time>2015-09-10T09:13:30Z</time>
      </trkpt>
      <trkpt lat="42.74218" lon="-0.0621">
        <ele>1887.6860351562</ele>
        <time>2015-09-10T09:13:46Z</time>
      </trkpt>
      <trkpt lat="42.74216" lon="-0.06208">
        <ele>1887.6860351562</ele>
        <time>2015-09-10T09:13:48Z</time>
      </trkpt>
      <trkpt lat="42.7421" lon="-0.06195">
        <ele>1887.6860351562</ele>
        <time>2015-09-10T09:13:58Z</time>
      </trkpt>
      <trkpt lat="42.74205" lon="-0.06179">
        <ele>1886.244140625</ele>
        <time>2015-09-10T09:14:09Z</time>
      </trkpt>
      <trkpt lat="42.74203" lon="-0.06168">
        <ele>1884.8022460938</ele>
        <time>2015-09-10T09:14:16Z</time>
      </trkpt>
      <trkpt lat="42.74198" lon="-0.0615">
        <ele>1884.3215332031</ele>
        <time>2015-09-10T09:14:30Z</time>
      </trkpt>
      <trkpt lat="42.74198" lon="-0.06121">
        <ele>1884.3215332031</ele>
        <time>2015-09-10T09:14:49Z</time>
      </trkpt>
      <trkpt lat="42.74196" lon="-0.06113">
        <ele>1885.2827148438</ele>
        <time>2015-09-10T09:14:55Z</time>
      </trkpt>
      <trkpt lat="42.74192" lon="-0.06093">
        <ele>1885.2827148438</ele>
        <time>2015-09-10T09:15:13Z</time>
      </trkpt>
      <trkpt lat="42.74194" lon="-0.06089">
        <ele>1885.2827148438</ele>
        <time>2015-09-10T09:15:17Z</time>
      </trkpt>
      <trkpt lat="42.74197" lon="-0.06084">
        <ele>1886.244140625</ele>
        <time>2015-09-10T09:15:22Z</time>
      </trkpt>
      <trkpt lat="42.74198" lon="-0.06079">
        <ele>1886.724609375</ele>
        <time>2015-09-10T09:15:26Z</time>
      </trkpt>
      <trkpt lat="42.74197" lon="-0.06067">
        <ele>1888.1667480469</ele>
        <time>2015-09-10T09:15:36Z</time>
      </trkpt>
      <trkpt lat="42.74195" lon="-0.06061">
        <ele>1888.6474609375</ele>
        <time>2015-09-10T09:15:42Z</time>
      </trkpt>
      <trkpt lat="42.74191" lon="-0.06043">
        <ele>1890.5698242188</ele>
        <time>2015-09-10T09:15:58Z</time>
      </trkpt>
      <trkpt lat="42.74189" lon="-0.06033">
        <ele>1891.53125</ele>
        <time>2015-09-10T09:16:08Z</time>
      </trkpt>
      <trkpt lat="42.74188" lon="-0.06018">
        <ele>1892.9731445312</ele>
        <time>2015-09-10T09:16:22Z</time>
      </trkpt>
      <trkpt lat="42.74185" lon="-0.06004">
        <ele>1894.8957519531</ele>
        <time>2015-09-10T09:16:37Z</time>
      </trkpt>
      <trkpt lat="42.74183" lon="-0.05994">
        <ele>1896.818359375</ele>
        <time>2015-09-10T09:16:47Z</time>
      </trkpt>
      <trkpt lat="42.74182" lon="-0.05984">
        <ele>1898.7409667969</ele>
        <time>2015-09-10T09:17:02Z</time>
      </trkpt>
      <trkpt lat="42.74181" lon="-0.05972">
        <ele>1900.1833496094</ele>
        <time>2015-09-10T09:17:23Z</time>
      </trkpt>
      <trkpt lat="42.74184" lon="-0.05957">
        <ele>1900.1833496094</ele>
        <time>2015-09-10T09:17:40Z</time>
      </trkpt>
      <trkpt lat="42.74184" lon="-0.0594">
        <ele>1903.0671386719</ele>
        <time>2015-09-10T09:18:00Z</time>
      </trkpt>
      <trkpt lat="42.74184" lon="-0.05928">
        <ele>1905.9509277344</ele>
        <time>2015-09-10T09:18:15Z</time>
      </trkpt>
      <trkpt lat="42.74182" lon="-0.05917">
        <ele>1908.8349609375</ele>
        <time>2015-09-10T09:18:27Z</time>
      </trkpt>
      <trkpt lat="42.74179" lon="-0.05898">
        <ele>1910.7575683594</ele>
        <time>2015-09-10T09:18:42Z</time>
      </trkpt>
      <trkpt lat="42.7418" lon="-0.05891">
        <ele>1910.2768554688</ele>
        <time>2015-09-10T09:18:47Z</time>
      </trkpt>
      <trkpt lat="42.74184" lon="-0.05865">
        <ele>1911.7189941406</ele>
        <time>2015-09-10T09:19:06Z</time>
      </trkpt>
      <trkpt lat="42.74183" lon="-0.05837">
        <ele>1912.6801757812</ele>
        <time>2015-09-10T09:19:27Z</time>
      </trkpt>
      <trkpt lat="42.74177" lon="-0.05814">
        <ele>1914.1220703125</ele>
        <time>2015-09-10T09:19:46Z</time>
      </trkpt>
      <trkpt lat="42.74173" lon="-0.05803">
        <ele>1916.5256347656</ele>
        <time>2015-09-10T09:19:59Z</time>
      </trkpt>
      <trkpt lat="42.74168" lon="-0.05794">
        <ele>1916.5256347656</ele>
        <time>2015-09-10T09:20:09Z</time>
      </trkpt>
      <trkpt lat="42.74167" lon="-0.0579">
        <ele>1917.0063476562</ele>
        <time>2015-09-10T09:20:12Z</time>
      </trkpt>
      <trkpt lat="42.74168" lon="-0.05772">
        <ele>1918.4482421875</ele>
        <time>2015-09-10T09:20:27Z</time>
      </trkpt>
      <trkpt lat="42.74167" lon="-0.05771">
        <ele>1918.4482421875</ele>
        <time>2015-09-10T09:20:28Z</time>
      </trkpt>
      <trkpt lat="42.74168" lon="-0.05743">
        <ele>1918.4482421875</ele>
        <time>2015-09-10T09:20:47Z</time>
      </trkpt>
      <trkpt lat="42.7418" lon="-0.05717">
        <ele>1917.4868164062</ele>
        <time>2015-09-10T09:21:07Z</time>
      </trkpt>
      <trkpt lat="42.74183" lon="-0.05708">
        <ele>1916.5256347656</ele>
        <time>2015-09-10T09:21:14Z</time>
      </trkpt>
      <trkpt lat="42.74193" lon="-0.05688">
        <ele>1916.5256347656</ele>
        <time>2015-09-10T09:21:34Z</time>
      </trkpt>
      <trkpt lat="42.74185" lon="-0.0568">
        <ele>1917.0063476562</ele>
        <time>2015-09-10T09:21:50Z</time>
      </trkpt>
      <trkpt lat="42.74184" lon="-0.05679">
        <ele>1917.9675292969</ele>
        <time>2015-09-10T09:21:51Z</time>
      </trkpt>
      <trkpt lat="42.74171" lon="-0.0566">
        <ele>1917.4868164062</ele>
        <time>2015-09-10T09:22:09Z</time>
      </trkpt>
      <trkpt lat="42.7417" lon="-0.05657">
        <ele>1918.4482421875</ele>
        <time>2015-09-10T09:22:12Z</time>
      </trkpt>
      <trkpt lat="42.74167" lon="-0.05633">
        <ele>1920.8515625</ele>
        <time>2015-09-10T09:22:32Z</time>
      </trkpt>
      <trkpt lat="42.74163" lon="-0.05612">
        <ele>1923.7353515625</ele>
        <time>2015-09-10T09:22:50Z</time>
      </trkpt>
      <trkpt lat="42.74163" lon="-0.05608">
        <ele>1925.1772460938</ele>
        <time>2015-09-10T09:23:09Z</time>
      </trkpt>
      <trkpt lat="42.74164" lon="-0.05607">
        <ele>1924.2160644531</ele>
        <time>2015-09-10T09:23:16Z</time>
      </trkpt>
      <trkpt lat="42.74163" lon="-0.05602">
        <ele>1925.1772460938</ele>
        <time>2015-09-10T09:23:41Z</time>
      </trkpt>
      <trkpt lat="42.74162" lon="-0.05598">
        <ele>1925.1772460938</ele>
        <time>2015-09-10T09:23:44Z</time>
      </trkpt>
      <trkpt lat="42.74161" lon="-0.05595">
        <ele>1925.6579589844</ele>
        <time>2015-09-10T09:23:46Z</time>
      </trkpt>
      <trkpt lat="42.74163" lon="-0.05579">
        <ele>1925.6579589844</ele>
        <time>2015-09-10T09:23:58Z</time>
      </trkpt>
      <trkpt lat="42.74167" lon="-0.05553">
        <ele>1926.138671875</ele>
        <time>2015-09-10T09:24:15Z</time>
      </trkpt>
      <trkpt lat="42.74173" lon="-0.0553">
        <ele>1925.6579589844</ele>
        <time>2015-09-10T09:24:32Z</time>
      </trkpt>
      <trkpt lat="42.74173" lon="-0.05527">
        <ele>1926.138671875</ele>
        <time>2015-09-10T09:24:34Z</time>
      </trkpt>
      <trkpt lat="42.74175" lon="-0.05506">
        <ele>1925.1772460938</ele>
        <time>2015-09-10T09:24:51Z</time>
      </trkpt>
      <trkpt lat="42.74174" lon="-0.05499">
        <ele>1926.6193847656</ele>
        <time>2015-09-10T09:24:57Z</time>
      </trkpt>
      <trkpt lat="42.74168" lon="-0.05476">
        <ele>1927.1000976562</ele>
        <time>2015-09-10T09:25:17Z</time>
      </trkpt>
      <trkpt lat="42.74169" lon="-0.05453">
        <ele>1924.2160644531</ele>
        <time>2015-09-10T09:25:34Z</time>
      </trkpt>
      <trkpt lat="42.74167" lon="-0.05437">
        <ele>1923.7353515625</ele>
        <time>2015-09-10T09:25:48Z</time>
      </trkpt>
      <trkpt lat="42.74166" lon="-0.0543">
        <ele>1923.2548828125</ele>
        <time>2015-09-10T09:25:52Z</time>
      </trkpt>
      <trkpt lat="42.7416" lon="-0.05411">
        <ele>1921.8127441406</ele>
        <time>2015-09-10T09:26:08Z</time>
      </trkpt>
      <trkpt lat="42.74158" lon="-0.05395">
        <ele>1919.8901367188</ele>
        <time>2015-09-10T09:26:20Z</time>
      </trkpt>
      <trkpt lat="42.74156" lon="-0.05371">
        <ele>1917.4868164062</ele>
        <time>2015-09-10T09:26:37Z</time>
      </trkpt>
      <trkpt lat="42.74152" lon="-0.05353">
        <ele>1915.5642089844</ele>
        <time>2015-09-10T09:26:54Z</time>
      </trkpt>
      <trkpt lat="42.74147" lon="-0.05343">
        <ele>1912.6801757812</ele>
        <time>2015-09-10T09:27:05Z</time>
      </trkpt>
      <trkpt lat="42.74144" lon="-0.05334">
        <ele>1909.7961425781</ele>
        <time>2015-09-10T09:27:15Z</time>
      </trkpt>
      <trkpt lat="42.74137" lon="-0.05327">
        <ele>1908.3542480469</ele>
        <time>2015-09-10T09:27:25Z</time>
      </trkpt>
      <trkpt lat="42.74133" lon="-0.05316">
        <ele>1906.431640625</ele>
        <time>2015-09-10T09:27:40Z</time>
      </trkpt>
      <trkpt lat="42.74133" lon="-0.05313">
        <ele>1906.431640625</ele>
        <time>2015-09-10T09:27:43Z</time>
      </trkpt>
      <trkpt lat="42.74143" lon="-0.05296">
        <ele>1905.4704589844</ele>
        <time>2015-09-10T09:27:58Z</time>
      </trkpt>
      <trkpt lat="42.74151" lon="-0.05283">
        <ele>1904.0285644531</ele>
        <time>2015-09-10T09:28:12Z</time>
      </trkpt>
      <trkpt lat="42.74164" lon="-0.05266">
        <ele>1904.5090332031</ele>
        <time>2015-09-10T09:28:29Z</time>
      </trkpt>
      <trkpt lat="42.74171" lon="-0.05247">
        <ele>1904.0285644531</ele>
        <time>2015-09-10T09:28:46Z</time>
      </trkpt>
      <trkpt lat="42.74175" lon="-0.05231">
        <ele>1904.5090332031</ele>
        <time>2015-09-10T09:29:00Z</time>
      </trkpt>
      <trkpt lat="42.74182" lon="-0.05221">
        <ele>1902.5864257812</ele>
        <time>2015-09-10T09:29:13Z</time>
      </trkpt>
      <trkpt lat="42.74188" lon="-0.05203">
        <ele>1901.6252441406</ele>
        <time>2015-09-10T09:29:28Z</time>
      </trkpt>
      <trkpt lat="42.74194" lon="-0.0519">
        <ele>1901.14453125</ele>
        <time>2015-09-10T09:29:42Z</time>
      </trkpt>
      <trkpt lat="42.74207" lon="-0.05176">
        <ele>1901.14453125</ele>
        <time>2015-09-10T09:29:56Z</time>
      </trkpt>
      <trkpt lat="42.74212" lon="-0.0517">
        <ele>1901.6252441406</ele>
        <time>2015-09-10T09:30:02Z</time>
      </trkpt>
      <trkpt lat="42.74223" lon="-0.05152">
        <ele>1900.6638183594</ele>
        <time>2015-09-10T09:30:17Z</time>
      </trkpt>
      <trkpt lat="42.74226" lon="-0.05139">
        <ele>1899.7023925781</ele>
        <time>2015-09-10T09:30:33Z</time>
      </trkpt>
      <trkpt lat="42.74228" lon="-0.05135">
        <ele>1900.6638183594</ele>
        <time>2015-09-10T09:30:37Z</time>
      </trkpt>
      <trkpt lat="42.74234" lon="-0.05123">
        <ele>1899.7023925781</ele>
        <time>2015-09-10T09:30:48Z</time>
      </trkpt>
      <trkpt lat="42.74241" lon="-0.05104">
        <ele>1899.7023925781</ele>
        <time>2015-09-10T09:31:02Z</time>
      </trkpt>
      <trkpt lat="42.74244" lon="-0.05087">
        <ele>1898.7409667969</ele>
        <time>2015-09-10T09:31:16Z</time>
      </trkpt>
      <trkpt lat="42.74246" lon="-0.05076">
        <ele>1899.7023925781</ele>
        <time>2015-09-10T09:31:23Z</time>
      </trkpt>
      <trkpt lat="42.74251" lon="-0.05058">
        <ele>1901.6252441406</ele>
        <time>2015-09-10T09:31:37Z</time>
      </trkpt>
      <trkpt lat="42.74255" lon="-0.05042">
        <ele>1903.5478515625</ele>
        <time>2015-09-10T09:31:52Z</time>
      </trkpt>
      <trkpt lat="42.74255" lon="-0.05019">
        <ele>1905.9509277344</ele>
        <time>2015-09-10T09:32:09Z</time>
      </trkpt>
      <trkpt lat="42.74254" lon="-0.05009">
        <ele>1905.4704589844</ele>
        <time>2015-09-10T09:32:20Z</time>
      </trkpt>
      <trkpt lat="42.74252" lon="-0.05011">
        <ele>1904.9897460938</ele>
        <time>2015-09-10T09:33:05Z</time>
      </trkpt>
      <trkpt lat="42.74254" lon="-0.05009">
        <ele>1904.9897460938</ele>
        <time>2015-09-10T09:34:00Z</time>
      </trkpt>
      <trkpt lat="42.74255" lon="-0.05007">
        <ele>1904.9897460938</ele>
        <time>2015-09-10T09:34:42Z</time>
      </trkpt>
      <trkpt lat="42.74253" lon="-0.05007">
        <ele>1904.5090332031</ele>
        <time>2015-09-10T09:35:09Z</time>
      </trkpt>
      <trkpt lat="42.74252" lon="-0.05009">
        <ele>1904.9897460938</ele>
        <time>2015-09-10T09:35:34Z</time>
      </trkpt>
      <trkpt lat="42.74256" lon="-0.05014">
        <ele>1904.5090332031</ele>
        <time>2015-09-10T09:36:25Z</time>
      </trkpt>
      <trkpt lat="42.74255" lon="-0.05012">
        <ele>1905.4704589844</ele>
        <time>2015-09-10T09:36:32Z</time>
      </trkpt>
      <trkpt lat="42.74255" lon="-0.05001">
        <ele>1904.0285644531</ele>
        <time>2015-09-10T09:37:02Z</time>
      </trkpt>
      <trkpt lat="42.74259" lon="-0.04991">
        <ele>1902.5864257812</ele>
        <time>2015-09-10T09:37:18Z</time>
      </trkpt>
      <trkpt lat="42.74258" lon="-0.04989">
        <ele>1902.5864257812</ele>
        <time>2015-09-10T09:37:19Z</time>
      </trkpt>
      <trkpt lat="42.74261" lon="-0.04976">
        <ele>1900.6638183594</ele>
        <time>2015-09-10T09:37:32Z</time>
      </trkpt>
      <trkpt lat="42.74267" lon="-0.04965">
        <ele>1898.2602539062</ele>
        <time>2015-09-10T09:37:43Z</time>
      </trkpt>
      <trkpt lat="42.74271" lon="-0.04949">
        <ele>1895.8571777344</ele>
        <time>2015-09-10T09:37:56Z</time>
      </trkpt>
      <trkpt lat="42.74275" lon="-0.04931">
        <ele>1893.4538574219</ele>
        <time>2015-09-10T09:38:12Z</time>
      </trkpt>
      <trkpt lat="42.74278" lon="-0.04917">
        <ele>1890.5698242188</ele>
        <time>2015-09-10T09:38:27Z</time>
      </trkpt>
      <trkpt lat="42.74285" lon="-0.04909">
        <ele>1888.1667480469</ele>
        <time>2015-09-10T09:38:39Z</time>
      </trkpt>
      <trkpt lat="42.74286" lon="-0.04899">
        <ele>1886.724609375</ele>
        <time>2015-09-10T09:38:55Z</time>
      </trkpt>
      <trkpt lat="42.74285" lon="-0.04899">
        <ele>1887.2053222656</ele>
        <time>2015-09-10T09:39:45Z</time>
      </trkpt>
      <trkpt lat="42.74287" lon="-0.04892">
        <ele>1885.2827148438</ele>
        <time>2015-09-10T09:40:00Z</time>
      </trkpt>
      <trkpt lat="42.74285" lon="-0.04883">
        <ele>1882.3986816406</ele>
        <time>2015-09-10T09:40:16Z</time>
      </trkpt>
      <trkpt lat="42.74287" lon="-0.04875">
        <ele>1880.4760742188</ele>
        <time>2015-09-10T09:40:30Z</time>
      </trkpt>
      <trkpt lat="42.74286" lon="-0.0487">
        <ele>1877.5920410156</ele>
        <time>2015-09-10T09:40:38Z</time>
      </trkpt>
      <trkpt lat="42.74284" lon="-0.04862">
        <ele>1876.630859375</ele>
        <time>2015-09-10T09:40:53Z</time>
      </trkpt>
      <trkpt lat="42.74283" lon="-0.04847">
        <ele>1876.1501464844</ele>
        <time>2015-09-10T09:41:09Z</time>
      </trkpt>
      <trkpt lat="42.74283" lon="-0.04844">
        <ele>1877.1115722656</ele>
        <time>2015-09-10T09:41:11Z</time>
      </trkpt>
      <trkpt lat="42.74282" lon="-0.04833">
        <ele>1877.5920410156</ele>
        <time>2015-09-10T09:41:20Z</time>
      </trkpt>
      <trkpt lat="42.74279" lon="-0.0482">
        <ele>1880.4760742188</ele>
        <time>2015-09-10T09:41:30Z</time>
      </trkpt>
      <trkpt lat="42.74279" lon="-0.04804">
        <ele>1879.9953613281</ele>
        <time>2015-09-10T09:41:46Z</time>
      </trkpt>
      <trkpt lat="42.74275" lon="-0.04795">
        <ele>1878.5534667969</ele>
        <time>2015-09-10T09:42:02Z</time>
      </trkpt>
      <trkpt lat="42.74275" lon="-0.04791">
        <ele>1878.0727539062</ele>
        <time>2015-09-10T09:42:05Z</time>
      </trkpt>
      <trkpt lat="42.74272" lon="-0.04767">
        <ele>1874.7082519531</ele>
        <time>2015-09-10T09:42:22Z</time>
      </trkpt>
      <trkpt lat="42.74271" lon="-0.04745">
        <ele>1873.2663574219</ele>
        <time>2015-09-10T09:42:37Z</time>
      </trkpt>
      <trkpt lat="42.74271" lon="-0.04739">
        <ele>1873.7468261719</ele>
        <time>2015-09-10T09:42:42Z</time>
      </trkpt>
      <trkpt lat="42.74271" lon="-0.04721">
        <ele>1873.7468261719</ele>
        <time>2015-09-10T09:42:55Z</time>
      </trkpt>
      <trkpt lat="42.74271" lon="-0.04706">
        <ele>1875.6694335938</ele>
        <time>2015-09-10T09:43:08Z</time>
      </trkpt>
      <trkpt lat="42.74275" lon="-0.04687">
        <ele>1875.1887207031</ele>
        <time>2015-09-10T09:43:23Z</time>
      </trkpt>
      <trkpt lat="42.74279" lon="-0.04672">
        <ele>1875.1887207031</ele>
        <time>2015-09-10T09:43:37Z</time>
      </trkpt>
      <trkpt lat="42.74276" lon="-0.0464">
        <ele>1874.7082519531</ele>
        <time>2015-09-10T09:43:54Z</time>
      </trkpt>
      <trkpt lat="42.74277" lon="-0.04624">
        <ele>1876.1501464844</ele>
        <time>2015-09-10T09:44:08Z</time>
      </trkpt>
      <trkpt lat="42.74282" lon="-0.04602">
        <ele>1879.0339355469</ele>
        <time>2015-09-10T09:44:25Z</time>
      </trkpt>
      <trkpt lat="42.74287" lon="-0.04582">
        <ele>1882.3986816406</ele>
        <time>2015-09-10T09:44:40Z</time>
      </trkpt>
      <trkpt lat="42.74292" lon="-0.04563">
        <ele>1884.8022460938</ele>
        <time>2015-09-10T09:44:56Z</time>
      </trkpt>
      <trkpt lat="42.74295" lon="-0.04533">
        <ele>1886.244140625</ele>
        <time>2015-09-10T09:45:19Z</time>
      </trkpt>
      <trkpt lat="42.74294" lon="-0.04517">
        <ele>1889.6086425781</ele>
        <time>2015-09-10T09:45:35Z</time>
      </trkpt>
      <trkpt lat="42.74288" lon="-0.04505">
        <ele>1891.0505371094</ele>
        <time>2015-09-10T09:45:47Z</time>
      </trkpt>
      <trkpt lat="42.7428" lon="-0.04494">
        <ele>1892.4926757812</ele>
        <time>2015-09-10T09:46:06Z</time>
      </trkpt>
      <trkpt lat="42.74277" lon="-0.04496">
        <ele>1892.9731445312</ele>
        <time>2015-09-10T09:46:42Z</time>
      </trkpt>
      <trkpt lat="42.7426" lon="-0.04489">
        <ele>1892.4926757812</ele>
        <time>2015-09-10T09:47:00Z</time>
      </trkpt>
      <trkpt lat="42.7425" lon="-0.04486">
        <ele>1890.0893554688</ele>
        <time>2015-09-10T09:47:11Z</time>
      </trkpt>
      <trkpt lat="42.74242" lon="-0.04489">
        <ele>1891.53125</ele>
        <time>2015-09-10T09:47:22Z</time>
      </trkpt>
      <trkpt lat="42.7423" lon="-0.04487">
        <ele>1889.1279296875</ele>
        <time>2015-09-10T09:47:36Z</time>
      </trkpt>
      <trkpt lat="42.74216" lon="-0.04475">
        <ele>1888.6474609375</ele>
        <time>2015-09-10T09:47:52Z</time>
      </trkpt>
      <trkpt lat="42.7421" lon="-0.04467">
        <ele>1890.0893554688</ele>
        <time>2015-09-10T09:48:04Z</time>
      </trkpt>
      <trkpt lat="42.74207" lon="-0.04454">
        <ele>1889.6086425781</ele>
        <time>2015-09-10T09:48:19Z</time>
      </trkpt>
      <trkpt lat="42.74206" lon="-0.04445">
        <ele>1888.1667480469</ele>
        <time>2015-09-10T09:48:31Z</time>
      </trkpt>
      <trkpt lat="42.74206" lon="-0.04443">
        <ele>1886.724609375</ele>
        <time>2015-09-10T09:48:35Z</time>
      </trkpt>
      <trkpt lat="42.74205" lon="-0.04438">
        <ele>1887.2053222656</ele>
        <time>2015-09-10T09:49:22Z</time>
      </trkpt>
      <trkpt lat="42.74205" lon="-0.04437">
        <ele>1883.3598632812</ele>
        <time>2015-09-10T09:49:24Z</time>
      </trkpt>
      <trkpt lat="42.74205" lon="-0.04437">
        <ele>1885.7634277344</ele>
        <time>2015-09-10T09:49:25Z</time>
      </trkpt>
      <trkpt lat="42.74206" lon="-0.04438">
        <ele>1886.724609375</ele>
        <time>2015-09-10T09:50:21Z</time>
      </trkpt>
      <trkpt lat="42.74209" lon="-0.04439">
        <ele>1883.3598632812</ele>
        <time>2015-09-10T09:51:50Z</time>
      </trkpt>
      <trkpt lat="42.74208" lon="-0.04438">
        <ele>1887.2053222656</ele>
        <time>2015-09-10T09:51:52Z</time>
      </trkpt>
      <trkpt lat="42.74203" lon="-0.04434">
        <ele>1884.8022460938</ele>
        <time>2015-09-10T09:52:06Z</time>
      </trkpt>
      <trkpt lat="42.74206" lon="-0.04425">
        <ele>1882.3986816406</ele>
        <time>2015-09-10T09:52:28Z</time>
      </trkpt>
      <trkpt lat="42.74202" lon="-0.04413">
        <ele>1880.4760742188</ele>
        <time>2015-09-10T09:52:47Z</time>
      </trkpt>
      <trkpt lat="42.74202" lon="-0.04403">
        <ele>1878.5534667969</ele>
        <time>2015-09-10T09:53:06Z</time>
      </trkpt>
      <trkpt lat="42.74202" lon="-0.04396">
        <ele>1875.6694335938</ele>
        <time>2015-09-10T09:53:19Z</time>
      </trkpt>
      <trkpt lat="42.74192" lon="-0.04386">
        <ele>1873.2663574219</ele>
        <time>2015-09-10T09:53:35Z</time>
      </trkpt>
      <trkpt lat="42.74189" lon="-0.04384">
        <ele>1871.82421875</ele>
        <time>2015-09-10T09:53:39Z</time>
      </trkpt>
      <trkpt lat="42.74183" lon="-0.04376">
        <ele>1869.4211425781</ele>
        <time>2015-09-10T09:53:50Z</time>
      </trkpt>
      <trkpt lat="42.74177" lon="-0.04357">
        <ele>1867.9787597656</ele>
        <time>2015-09-10T09:54:07Z</time>
      </trkpt>
      <trkpt lat="42.74168" lon="-0.04336">
        <ele>1867.017578125</ele>
        <time>2015-09-10T09:54:23Z</time>
      </trkpt>
      <trkpt lat="42.74171" lon="-0.04322">
        <ele>1865.0949707031</ele>
        <time>2015-09-10T09:54:37Z</time>
      </trkpt>
      <trkpt lat="42.7417" lon="-0.04311">
        <ele>1863.1723632812</ele>
        <time>2015-09-10T09:54:49Z</time>
      </trkpt>
      <trkpt lat="42.74163" lon="-0.04288">
        <ele>1862.2109375</ele>
        <time>2015-09-10T09:55:06Z</time>
      </trkpt>
      <trkpt lat="42.74161" lon="-0.04275">
        <ele>1860.7690429688</ele>
        <time>2015-09-10T09:55:21Z</time>
      </trkpt>
      <trkpt lat="42.74154" lon="-0.04264">
        <ele>1858.3657226562</ele>
        <time>2015-09-10T09:55:35Z</time>
      </trkpt>
      <trkpt lat="42.7415" lon="-0.04257">
        <ele>1856.4431152344</ele>
        <time>2015-09-10T09:55:48Z</time>
      </trkpt>
      <trkpt lat="42.74149" lon="-0.04243">
        <ele>1853.0786132812</ele>
        <time>2015-09-10T09:56:03Z</time>
      </trkpt>
      <trkpt lat="42.74149" lon="-0.04241">
        <ele>1852.5979003906</ele>
        <time>2015-09-10T09:56:05Z</time>
      </trkpt>
      <trkpt lat="42.74149" lon="-0.04227">
        <ele>1853.5593261719</ele>
        <time>2015-09-10T09:56:17Z</time>
      </trkpt>
      <trkpt lat="42.74144" lon="-0.04211">
        <ele>1853.0786132812</ele>
        <time>2015-09-10T09:56:31Z</time>
      </trkpt>
      <trkpt lat="42.74138" lon="-0.04195">
        <ele>1852.1171875</ele>
        <time>2015-09-10T09:56:47Z</time>
      </trkpt>
      <trkpt lat="42.74135" lon="-0.04191">
        <ele>1851.6364746094</ele>
        <time>2015-09-10T09:56:52Z</time>
      </trkpt>
      <trkpt lat="42.7413" lon="-0.04173">
        <ele>1849.7138671875</ele>
        <time>2015-09-10T09:57:09Z</time>
      </trkpt>
      <trkpt lat="42.74131" lon="-0.04161">
        <ele>1847.7912597656</ele>
        <time>2015-09-10T09:57:21Z</time>
      </trkpt>
      <trkpt lat="42.74131" lon="-0.04138">
        <ele>1845.3879394531</ele>
        <time>2015-09-10T09:57:39Z</time>
      </trkpt>
      <trkpt lat="42.74129" lon="-0.04119">
        <ele>1844.4265136719</ele>
        <time>2015-09-10T09:57:55Z</time>
      </trkpt>
      <trkpt lat="42.74131" lon="-0.04103">
        <ele>1842.0234375</ele>
        <time>2015-09-10T09:58:09Z</time>
      </trkpt>
      <trkpt lat="42.74133" lon="-0.04097">
        <ele>1841.5427246094</ele>
        <time>2015-09-10T09:58:14Z</time>
      </trkpt>
      <trkpt lat="42.74132" lon="-0.04086">
        <ele>1840.1008300781</ele>
        <time>2015-09-10T09:58:32Z</time>
      </trkpt>
      <trkpt lat="42.74132" lon="-0.0407">
        <ele>1840.1008300781</ele>
        <time>2015-09-10T09:58:50Z</time>
      </trkpt>
      <trkpt lat="42.74134" lon="-0.04055">
        <ele>1837.6975097656</ele>
        <time>2015-09-10T09:59:05Z</time>
      </trkpt>
      <trkpt lat="42.74134" lon="-0.04049">
        <ele>1835.7746582031</ele>
        <time>2015-09-10T09:59:10Z</time>
      </trkpt>
      <trkpt lat="42.74134" lon="-0.04029">
        <ele>1834.3327636719</ele>
        <time>2015-09-10T09:59:26Z</time>
      </trkpt>
      <trkpt lat="42.74132" lon="-0.04024">
        <ele>1833.3713378906</ele>
        <time>2015-09-10T09:59:45Z</time>
      </trkpt>
      <trkpt lat="42.74131" lon="-0.04025">
        <ele>1832.890625</ele>
        <time>2015-09-10T10:00:29Z</time>
      </trkpt>
      <trkpt lat="42.74129" lon="-0.04019">
        <ele>1832.890625</ele>
        <time>2015-09-10T10:01:15Z</time>
      </trkpt>
      <trkpt lat="42.74135" lon="-0.04019">
        <ele>1832.890625</ele>
        <time>2015-09-10T10:02:02Z</time>
      </trkpt>
      <trkpt lat="42.7414" lon="-0.04017">
        <ele>1832.890625</ele>
        <time>2015-09-10T10:02:26Z</time>
      </trkpt>
      <trkpt lat="42.74135" lon="-0.0401">
        <ele>1832.890625</ele>
        <time>2015-09-10T10:02:43Z</time>
      </trkpt>
      <trkpt lat="42.74136" lon="-0.04001">
        <ele>1832.890625</ele>
        <time>2015-09-10T10:02:59Z</time>
      </trkpt>
      <trkpt lat="42.74137" lon="-0.03985">
        <ele>1831.4487304688</ele>
        <time>2015-09-10T10:03:12Z</time>
      </trkpt>
      <trkpt lat="42.74142" lon="-0.03953">
        <ele>1832.890625</ele>
        <time>2015-09-10T10:03:35Z</time>
      </trkpt>
      <trkpt lat="42.7414" lon="-0.03931">
        <ele>1832.41015625</ele>
        <time>2015-09-10T10:03:49Z</time>
      </trkpt>
      <trkpt lat="42.7414" lon="-0.03921">
        <ele>1830.9682617188</ele>
        <time>2015-09-10T10:04:01Z</time>
      </trkpt>
      <trkpt lat="42.74144" lon="-0.03904">
        <ele>1830.9682617188</ele>
        <time>2015-09-10T10:04:15Z</time>
      </trkpt>
      <trkpt lat="42.74145" lon="-0.03903">
        <ele>1830.4875488281</ele>
        <time>2015-09-10T10:04:17Z</time>
      </trkpt>
      <trkpt lat="42.74154" lon="-0.03875">
        <ele>1830.9682617188</ele>
        <time>2015-09-10T10:04:37Z</time>
      </trkpt>
      <trkpt lat="42.74155" lon="-0.03856">
        <ele>1830.4875488281</ele>
        <time>2015-09-10T10:04:52Z</time>
      </trkpt>
      <trkpt lat="42.74151" lon="-0.03837">
        <ele>1830.4875488281</ele>
        <time>2015-09-10T10:05:06Z</time>
      </trkpt>
      <trkpt lat="42.74145" lon="-0.03821">
        <ele>1830.9682617188</ele>
        <time>2015-09-10T10:05:20Z</time>
      </trkpt>
      <trkpt lat="42.74137" lon="-0.03807">
        <ele>1832.41015625</ele>
        <time>2015-09-10T10:05:32Z</time>
      </trkpt>
      <trkpt lat="42.7413" lon="-0.03782">
        <ele>1831.9294433594</ele>
        <time>2015-09-10T10:05:50Z</time>
      </trkpt>
      <trkpt lat="42.74131" lon="-0.03779">
        <ele>1832.41015625</ele>
        <time>2015-09-10T10:06:10Z</time>
      </trkpt>
      <trkpt lat="42.74131" lon="-0.03779">
        <ele>1832.890625</ele>
        <time>2015-09-10T10:06:37Z</time>
      </trkpt>
      <trkpt lat="42.7413" lon="-0.0378">
        <ele>1832.41015625</ele>
        <time>2015-09-10T10:07:44Z</time>
      </trkpt>
      <trkpt lat="42.7413" lon="-0.03778">
        <ele>1832.41015625</ele>
        <time>2015-09-10T10:08:25Z</time>
      </trkpt>
      <trkpt lat="42.74127" lon="-0.03773">
        <ele>1832.890625</ele>
        <time>2015-09-10T10:08:43Z</time>
      </trkpt>
      <trkpt lat="42.74124" lon="-0.03748">
        <ele>1832.41015625</ele>
        <time>2015-09-10T10:09:03Z</time>
      </trkpt>
      <trkpt lat="42.74128" lon="-0.0373">
        <ele>1830.0068359375</ele>
        <time>2015-09-10T10:09:16Z</time>
      </trkpt>
      <trkpt lat="42.74131" lon="-0.03722">
        <ele>1829.0454101562</ele>
        <time>2015-09-10T10:09:22Z</time>
      </trkpt>
      <trkpt lat="42.74136" lon="-0.03702">
        <ele>1825.6809082031</ele>
        <time>2015-09-10T10:09:36Z</time>
      </trkpt>
      <trkpt lat="42.7414" lon="-0.03688">
        <ele>1824.2390136719</ele>
        <time>2015-09-10T10:09:48Z</time>
      </trkpt>
      <trkpt lat="42.74137" lon="-0.03667">
        <ele>1822.31640625</ele>
        <time>2015-09-10T10:10:04Z</time>
      </trkpt>
      <trkpt lat="42.74136" lon="-0.03648">
        <ele>1820.8745117188</ele>
        <time>2015-09-10T10:10:19Z</time>
      </trkpt>
      <trkpt lat="42.74135" lon="-0.03623">
        <ele>1820.3937988281</ele>
        <time>2015-09-10T10:10:35Z</time>
      </trkpt>
      <trkpt lat="42.74133" lon="-0.03619">
        <ele>1819.9128417969</ele>
        <time>2015-09-10T10:10:57Z</time>
      </trkpt>
      <trkpt lat="42.74131" lon="-0.03614">
        <ele>1819.9128417969</ele>
        <time>2015-09-10T10:11:42Z</time>
      </trkpt>
      <trkpt lat="42.74128" lon="-0.03614">
        <ele>1819.9128417969</ele>
        <time>2015-09-10T10:12:06Z</time>
      </trkpt>
      <trkpt lat="42.74127" lon="-0.03615">
        <ele>1820.3937988281</ele>
        <time>2015-09-10T10:12:44Z</time>
      </trkpt>
      <trkpt lat="42.74125" lon="-0.03605">
        <ele>1818.9516601562</ele>
        <time>2015-09-10T10:13:15Z</time>
      </trkpt>
      <trkpt lat="42.74117" lon="-0.03587">
        <ele>1816.0676269531</ele>
        <time>2015-09-10T10:13:34Z</time>
      </trkpt>
      <trkpt lat="42.74113" lon="-0.03583">
        <ele>1815.5871582031</ele>
        <time>2015-09-10T10:13:39Z</time>
      </trkpt>
      <trkpt lat="42.74107" lon="-0.03565">
        <ele>1814.1450195312</ele>
        <time>2015-09-10T10:13:55Z</time>
      </trkpt>
      <trkpt lat="42.741" lon="-0.03546">
        <ele>1811.7419433594</ele>
        <time>2015-09-10T10:14:11Z</time>
      </trkpt>
      <trkpt lat="42.74096" lon="-0.03519">
        <ele>1809.8190917969</ele>
        <time>2015-09-10T10:14:28Z</time>
      </trkpt>
      <trkpt lat="42.74095" lon="-0.03516">
        <ele>1809.3386230469</ele>
        <time>2015-09-10T10:14:30Z</time>
      </trkpt>
      <trkpt lat="42.74092" lon="-0.0349">
        <ele>1806.4545898438</ele>
        <time>2015-09-10T10:14:47Z</time>
      </trkpt>
      <trkpt lat="42.74087" lon="-0.03476">
        <ele>1805.4934082031</ele>
        <time>2015-09-10T10:15:02Z</time>
      </trkpt>
      <trkpt lat="42.74086" lon="-0.03463">
        <ele>1805.0126953125</ele>
        <time>2015-09-10T10:15:17Z</time>
      </trkpt>
      <trkpt lat="42.74085" lon="-0.03459">
        <ele>1804.5319824219</ele>
        <time>2015-09-10T10:15:30Z</time>
      </trkpt>
      <trkpt lat="42.74076" lon="-0.03435">
        <ele>1802.6091308594</ele>
        <time>2015-09-10T10:15:50Z</time>
      </trkpt>
      <trkpt lat="42.74069" lon="-0.03422">
        <ele>1799.7253417969</ele>
        <time>2015-09-10T10:16:06Z</time>
      </trkpt>
      <trkpt lat="42.74065" lon="-0.03418">
        <ele>1798.7639160156</ele>
        <time>2015-09-10T10:16:11Z</time>
      </trkpt>
      <trkpt lat="42.74055" lon="-0.03402">
        <ele>1797.802734375</ele>
        <time>2015-09-10T10:16:28Z</time>
      </trkpt>
      <trkpt lat="42.74051" lon="-0.034">
        <ele>1797.3220214844</ele>
        <time>2015-09-10T10:16:32Z</time>
      </trkpt>
      <trkpt lat="42.74043" lon="-0.03387">
        <ele>1795.3994140625</ele>
        <time>2015-09-10T10:16:48Z</time>
      </trkpt>
      <trkpt lat="42.74039" lon="-0.03378">
        <ele>1793.4768066406</ele>
        <time>2015-09-10T10:17:02Z</time>
      </trkpt>
      <trkpt lat="42.74037" lon="-0.03371">
        <ele>1793.4768066406</ele>
        <time>2015-09-10T10:17:17Z</time>
      </trkpt>
      <trkpt lat="42.74036" lon="-0.03359">
        <ele>1792.99609375</ele>
        <time>2015-09-10T10:17:29Z</time>
      </trkpt>
      <trkpt lat="42.74033" lon="-0.03332">
        <ele>1790.1123046875</ele>
        <time>2015-09-10T10:17:48Z</time>
      </trkpt>
      <trkpt lat="42.74031" lon="-0.03303">
        <ele>1789.1508789062</ele>
        <time>2015-09-10T10:18:08Z</time>
      </trkpt>
      <trkpt lat="42.74026" lon="-0.03272">
        <ele>1787.7087402344</ele>
        <time>2015-09-10T10:18:29Z</time>
      </trkpt>
      <trkpt lat="42.74016" lon="-0.03245">
        <ele>1788.6704101562</ele>
        <time>2015-09-10T10:18:50Z</time>
      </trkpt>
      <trkpt lat="42.74011" lon="-0.03222">
        <ele>1788.6704101562</ele>
        <time>2015-09-10T10:19:07Z</time>
      </trkpt>
      <trkpt lat="42.74004" lon="-0.03201">
        <ele>1788.6704101562</ele>
        <time>2015-09-10T10:19:23Z</time>
      </trkpt>
      <trkpt lat="42.73995" lon="-0.03183">
        <ele>1788.1896972656</ele>
        <time>2015-09-10T10:19:40Z</time>
      </trkpt>
      <trkpt lat="42.73994" lon="-0.03179">
        <ele>1787.7087402344</ele>
        <time>2015-09-10T10:19:43Z</time>
      </trkpt>
      <trkpt lat="42.73993" lon="-0.03171">
        <ele>1789.6315917969</ele>
        <time>2015-09-10T10:19:49Z</time>
      </trkpt>
      <trkpt lat="42.73996" lon="-0.03158">
        <ele>1789.6315917969</ele>
        <time>2015-09-10T10:20:03Z</time>
      </trkpt>
      <trkpt lat="42.74" lon="-0.03132">
        <ele>1788.6704101562</ele>
        <time>2015-09-10T10:20:21Z</time>
      </trkpt>
      <trkpt lat="42.74002" lon="-0.03109">
        <ele>1787.7087402344</ele>
        <time>2015-09-10T10:20:40Z</time>
      </trkpt>
      <trkpt lat="42.74002" lon="-0.03107">
        <ele>1787.2280273438</ele>
        <time>2015-09-10T10:20:48Z</time>
      </trkpt>
      <trkpt lat="42.74011" lon="-0.0309">
        <ele>1786.2668457031</ele>
        <time>2015-09-10T10:21:04Z</time>
      </trkpt>
      <trkpt lat="42.74024" lon="-0.03067">
        <ele>1785.7861328125</ele>
        <time>2015-09-10T10:21:23Z</time>
      </trkpt>
      <trkpt lat="42.74025" lon="-0.03064">
        <ele>1784.8249511719</ele>
        <time>2015-09-10T10:21:25Z</time>
      </trkpt>
      <trkpt lat="42.74038" lon="-0.03039">
        <ele>1783.8635253906</ele>
        <time>2015-09-10T10:21:45Z</time>
      </trkpt>
      <trkpt lat="42.74035" lon="-0.03024">
        <ele>1781.4602050781</ele>
        <time>2015-09-10T10:21:59Z</time>
      </trkpt>
      <trkpt lat="42.74036" lon="-0.03011">
        <ele>1777.6149902344</ele>
        <time>2015-09-10T10:22:13Z</time>
      </trkpt>
      <trkpt lat="42.74035" lon="-0.03005">
        <ele>1774.2504882812</ele>
        <time>2015-09-10T10:22:22Z</time>
      </trkpt>
      <trkpt lat="42.74036" lon="-0.02984">
        <ele>1772.3278808594</ele>
        <time>2015-09-10T10:22:40Z</time>
      </trkpt>
      <trkpt lat="42.74034" lon="-0.02963">
        <ele>1771.8469238281</ele>
        <time>2015-09-10T10:22:57Z</time>
      </trkpt>
      <trkpt lat="42.74029" lon="-0.02946">
        <ele>1769.4438476562</ele>
        <time>2015-09-10T10:23:14Z</time>
      </trkpt>
      <trkpt lat="42.74015" lon="-0.02933">
        <ele>1766.0791015625</ele>
        <time>2015-09-10T10:23:29Z</time>
      </trkpt>
      <trkpt lat="42.74" lon="-0.0292">
        <ele>1762.7145996094</ele>
        <time>2015-09-10T10:23:47Z</time>
      </trkpt>
      <trkpt lat="42.73992" lon="-0.02902">
        <ele>1761.2727050781</ele>
        <time>2015-09-10T10:24:01Z</time>
      </trkpt>
      <trkpt lat="42.73991" lon="-0.02898">
        <ele>1761.7534179688</ele>
        <time>2015-09-10T10:24:04Z</time>
      </trkpt>
      <trkpt lat="42.73988" lon="-0.02896">
        <ele>1761.7534179688</ele>
        <time>2015-09-10T10:24:07Z</time>
      </trkpt>
      <trkpt lat="42.73984" lon="-0.02888">
        <ele>1759.3500976562</ele>
        <time>2015-09-10T10:24:24Z</time>
      </trkpt>
      <trkpt lat="42.73973" lon="-0.02881">
        <ele>1757.908203125</ele>
        <time>2015-09-10T10:24:41Z</time>
      </trkpt>
      <trkpt lat="42.73969" lon="-0.02882">
        <ele>1756.4660644531</ele>
        <time>2015-09-10T10:24:52Z</time>
      </trkpt>
      <trkpt lat="42.73968" lon="-0.02879">
        <ele>1755.0239257812</ele>
        <time>2015-09-10T10:24:59Z</time>
      </trkpt>
      <trkpt lat="42.73967" lon="-0.0287">
        <ele>1754.5432128906</ele>
        <time>2015-09-10T10:25:14Z</time>
      </trkpt>
      <trkpt lat="42.73966" lon="-0.02865">
        <ele>1753.58203125</ele>
        <time>2015-09-10T10:25:32Z</time>
      </trkpt>
      <trkpt lat="42.73967" lon="-0.02851">
        <ele>1750.6979980469</ele>
        <time>2015-09-10T10:25:49Z</time>
      </trkpt>
      <trkpt lat="42.73967" lon="-0.0284">
        <ele>1747.3334960938</ele>
        <time>2015-09-10T10:26:02Z</time>
      </trkpt>
      <trkpt lat="42.73963" lon="-0.0282">
        <ele>1742.5270996094</ele>
        <time>2015-09-10T10:26:24Z</time>
      </trkpt>
      <trkpt lat="42.73957" lon="-0.02805">
        <ele>1740.6042480469</ele>
        <time>2015-09-10T10:26:42Z</time>
      </trkpt>
      <trkpt lat="42.73955" lon="-0.02793">
        <ele>1737.2395019531</ele>
        <time>2015-09-10T10:26:57Z</time>
      </trkpt>
      <trkpt lat="42.73947" lon="-0.028">
        <ele>1733.875</ele>
        <time>2015-09-10T10:27:12Z</time>
      </trkpt>
      <trkpt lat="42.73946" lon="-0.02801">
        <ele>1733.3942871094</ele>
        <time>2015-09-10T10:27:13Z</time>
      </trkpt>
      <trkpt lat="42.73945" lon="-0.02802">
        <ele>1733.3942871094</ele>
        <time>2015-09-10T10:27:31Z</time>
      </trkpt>
      <trkpt lat="42.73944" lon="-0.02785">
        <ele>1731.9523925781</ele>
        <time>2015-09-10T10:27:53Z</time>
      </trkpt>
      <trkpt lat="42.73941" lon="-0.02776">
        <ele>1731.9523925781</ele>
        <time>2015-09-10T10:28:01Z</time>
      </trkpt>
      <trkpt lat="42.73937" lon="-0.02763">
        <ele>1729.5490722656</ele>
        <time>2015-09-10T10:28:17Z</time>
      </trkpt>
      <trkpt lat="42.7394" lon="-0.02749">
        <ele>1729.068359375</ele>
        <time>2015-09-10T10:28:34Z</time>
      </trkpt>
      <trkpt lat="42.73942" lon="-0.02733">
        <ele>1729.068359375</ele>
        <time>2015-09-10T10:28:49Z</time>
      </trkpt>
      <trkpt lat="42.73938" lon="-0.02714">
        <ele>1726.1845703125</ele>
        <time>2015-09-10T10:29:07Z</time>
      </trkpt>
      <trkpt lat="42.73934" lon="-0.02694">
        <ele>1724.7426757812</ele>
        <time>2015-09-10T10:29:24Z</time>
      </trkpt>
      <trkpt lat="42.7393" lon="-0.02675">
        <ele>1722.8198242188</ele>
        <time>2015-09-10T10:29:38Z</time>
      </trkpt>
      <trkpt lat="42.73925" lon="-0.02666">
        <ele>1719.4553222656</ele>
        <time>2015-09-10T10:29:50Z</time>
      </trkpt>
      <trkpt lat="42.73922" lon="-0.02654">
        <ele>1717.5324707031</ele>
        <time>2015-09-10T10:30:07Z</time>
      </trkpt>
      <trkpt lat="42.73922" lon="-0.02654">
        <ele>1718.0131835938</ele>
        <time>2015-09-10T10:30:18Z</time>
      </trkpt>
      <trkpt lat="42.73922" lon="-0.02666">
        <ele>1720.4165039062</ele>
        <time>2015-09-10T10:30:31Z</time>
      </trkpt>
      <trkpt lat="42.73919" lon="-0.02681">
        <ele>1719.9357910156</ele>
        <time>2015-09-10T10:30:46Z</time>
      </trkpt>
      <trkpt lat="42.73917" lon="-0.02696">
        <ele>1718.0131835938</ele>
        <time>2015-09-10T10:31:01Z</time>
      </trkpt>
      <trkpt lat="42.73912" lon="-0.02699">
        <ele>1715.1293945312</ele>
        <time>2015-09-10T10:31:13Z</time>
      </trkpt>
      <trkpt lat="42.73909" lon="-0.02692">
        <ele>1712.7260742188</ele>
        <time>2015-09-10T10:31:27Z</time>
      </trkpt>
      <trkpt lat="42.73904" lon="-0.02703">
        <ele>1710.8034667969</ele>
        <time>2015-09-10T10:31:41Z</time>
      </trkpt>
      <trkpt lat="42.739" lon="-0.02719">
        <ele>1707.9194335938</ele>
        <time>2015-09-10T10:31:57Z</time>
      </trkpt>
      <trkpt lat="42.73899" lon="-0.02732">
        <ele>1706.4772949219</ele>
        <time>2015-09-10T10:32:09Z</time>
      </trkpt>
      <trkpt lat="42.73896" lon="-0.02749">
        <ele>1703.1127929688</ele>
        <time>2015-09-10T10:32:24Z</time>
      </trkpt>
      <trkpt lat="42.73887" lon="-0.02761">
        <ele>1701.6708984375</ele>
        <time>2015-09-10T10:32:39Z</time>
      </trkpt>
      <trkpt lat="42.73884" lon="-0.02769">
        <ele>1698.3061523438</ele>
        <time>2015-09-10T10:32:49Z</time>
      </trkpt>
      <trkpt lat="42.73874" lon="-0.02778">
        <ele>1697.3449707031</ele>
        <time>2015-09-10T10:33:06Z</time>
      </trkpt>
      <trkpt lat="42.73867" lon="-0.02777">
        <ele>1694.9416503906</ele>
        <time>2015-09-10T10:33:17Z</time>
      </trkpt>
      <trkpt lat="42.73869" lon="-0.02768">
        <ele>1692.0578613281</ele>
        <time>2015-09-10T10:33:31Z</time>
      </trkpt>
      <trkpt lat="42.73867" lon="-0.02762">
        <ele>1689.1735839844</ele>
        <time>2015-09-10T10:33:46Z</time>
      </trkpt>
      <trkpt lat="42.73867" lon="-0.02751">
        <ele>1687.2509765625</ele>
        <time>2015-09-10T10:34:03Z</time>
      </trkpt>
      <trkpt lat="42.73863" lon="-0.02746">
        <ele>1683.8864746094</ele>
        <time>2015-09-10T10:34:13Z</time>
      </trkpt>
      <trkpt lat="42.7386" lon="-0.02738">
        <ele>1682.9250488281</ele>
        <time>2015-09-10T10:34:29Z</time>
      </trkpt>
      <trkpt lat="42.73859" lon="-0.02733">
        <ele>1681.0026855469</ele>
        <time>2015-09-10T10:34:36Z</time>
      </trkpt>
      <trkpt lat="42.73857" lon="-0.02717">
        <ele>1679.0798339844</ele>
        <time>2015-09-10T10:34:52Z</time>
      </trkpt>
      <trkpt lat="42.73853" lon="-0.02701">
        <ele>1676.1960449219</ele>
        <time>2015-09-10T10:35:12Z</time>
      </trkpt>
      <trkpt lat="42.73848" lon="-0.02696">
        <ele>1674.2731933594</ele>
        <time>2015-09-10T10:35:30Z</time>
      </trkpt>
      <trkpt lat="42.73844" lon="-0.02706">
        <ele>1671.3891601562</ele>
        <time>2015-09-10T10:35:44Z</time>
      </trkpt>
      <trkpt lat="42.73839" lon="-0.02721">
        <ele>1668.5053710938</ele>
        <time>2015-09-10T10:36:01Z</time>
      </trkpt>
      <trkpt lat="42.73833" lon="-0.02731">
        <ele>1665.1408691406</ele>
        <time>2015-09-10T10:36:17Z</time>
      </trkpt>
      <trkpt lat="42.73822" lon="-0.02737">
        <ele>1661.2956542969</ele>
        <time>2015-09-10T10:36:33Z</time>
      </trkpt>
      <trkpt lat="42.73816" lon="-0.02742">
        <ele>1659.8532714844</ele>
        <time>2015-09-10T10:36:46Z</time>
      </trkpt>
      <trkpt lat="42.73806" lon="-0.02744">
        <ele>1656.9694824219</ele>
        <time>2015-09-10T10:37:03Z</time>
      </trkpt>
      <trkpt lat="42.73795" lon="-0.02744">
        <ele>1654.5661621094</ele>
        <time>2015-09-10T10:37:22Z</time>
      </trkpt>
      <trkpt lat="42.73787" lon="-0.02738">
        <ele>1651.2016601562</ele>
        <time>2015-09-10T10:37:38Z</time>
      </trkpt>
      <trkpt lat="42.73777" lon="-0.02734">
        <ele>1648.7983398438</ele>
        <time>2015-09-10T10:37:56Z</time>
      </trkpt>
      <trkpt lat="42.73774" lon="-0.02732">
        <ele>1647.3564453125</ele>
        <time>2015-09-10T10:38:02Z</time>
      </trkpt>
      <trkpt lat="42.73764" lon="-0.02728">
        <ele>1645.4338378906</ele>
        <time>2015-09-10T10:38:19Z</time>
      </trkpt>
      <trkpt lat="42.73759" lon="-0.02713">
        <ele>1643.9916992188</ele>
        <time>2015-09-10T10:38:34Z</time>
      </trkpt>
      <trkpt lat="42.73755" lon="-0.02701">
        <ele>1642.0690917969</ele>
        <time>2015-09-10T10:38:52Z</time>
      </trkpt>
      <trkpt lat="42.73753" lon="-0.02692">
        <ele>1641.1076660156</ele>
        <time>2015-09-10T10:39:01Z</time>
      </trkpt>
      <trkpt lat="42.73749" lon="-0.02677">
        <ele>1639.6657714844</ele>
        <time>2015-09-10T10:39:20Z</time>
      </trkpt>
      <trkpt lat="42.73747" lon="-0.02676">
        <ele>1638.7045898438</ele>
        <time>2015-09-10T10:39:41Z</time>
      </trkpt>
      <trkpt lat="42.7375" lon="-0.02669">
        <ele>1635.8205566406</ele>
        <time>2015-09-10T10:39:58Z</time>
      </trkpt>
      <trkpt lat="42.73758" lon="-0.02667">
        <ele>1634.3786621094</ele>
        <time>2015-09-10T10:40:10Z</time>
      </trkpt>
      <trkpt lat="42.73764" lon="-0.02665">
        <ele>1632.9365234375</ele>
        <time>2015-09-10T10:40:24Z</time>
      </trkpt>
      <trkpt lat="42.73768" lon="-0.02658">
        <ele>1632.4560546875</ele>
        <time>2015-09-10T10:40:32Z</time>
      </trkpt>
      <trkpt lat="42.73771" lon="-0.0265">
        <ele>1631.0141601562</ele>
        <time>2015-09-10T10:40:38Z</time>
      </trkpt>
      <trkpt lat="42.73783" lon="-0.02642">
        <ele>1629.0913085938</ele>
        <time>2015-09-10T10:40:54Z</time>
      </trkpt>
      <trkpt lat="42.73781" lon="-0.0264">
        <ele>1628.1301269531</ele>
        <time>2015-09-10T10:41:48Z</time>
      </trkpt>
      <trkpt lat="42.73775" lon="-0.0264">
        <ele>1626.6879882812</ele>
        <time>2015-09-10T10:42:02Z</time>
      </trkpt>
      <trkpt lat="42.73771" lon="-0.02636">
        <ele>1624.2846679688</ele>
        <time>2015-09-10T10:42:19Z</time>
      </trkpt>
      <trkpt lat="42.7377" lon="-0.02628">
        <ele>1621.4006347656</ele>
        <time>2015-09-10T10:42:36Z</time>
      </trkpt>
      <trkpt lat="42.73773" lon="-0.02619">
        <ele>1618.5168457031</ele>
        <time>2015-09-10T10:42:51Z</time>
      </trkpt>
      <trkpt lat="42.7377" lon="-0.02612">
        <ele>1617.5554199219</ele>
        <time>2015-09-10T10:43:05Z</time>
      </trkpt>
      <trkpt lat="42.73769" lon="-0.02612">
        <ele>1617.0749511719</ele>
        <time>2015-09-10T10:43:07Z</time>
      </trkpt>
      <trkpt lat="42.7377" lon="-0.02605">
        <ele>1615.15234375</ele>
        <time>2015-09-10T10:43:15Z</time>
      </trkpt>
      <trkpt lat="42.73773" lon="-0.02596">
        <ele>1612.7490234375</ele>
        <time>2015-09-10T10:43:28Z</time>
      </trkpt>
      <trkpt lat="42.73776" lon="-0.0259">
        <ele>1610.826171875</ele>
        <time>2015-09-10T10:43:45Z</time>
      </trkpt>
      <trkpt lat="42.73778" lon="-0.02587">
        <ele>1609.3842773438</ele>
        <time>2015-09-10T10:43:55Z</time>
      </trkpt>
      <trkpt lat="42.73781" lon="-0.02586">
        <ele>1608.9035644531</ele>
        <time>2015-09-10T10:44:00Z</time>
      </trkpt>
      <trkpt lat="42.73784" lon="-0.02584">
        <ele>1606.01953125</ele>
        <time>2015-09-10T10:44:07Z</time>
      </trkpt>
      <trkpt lat="42.73786" lon="-0.02578">
        <ele>1606.01953125</ele>
        <time>2015-09-10T10:44:17Z</time>
      </trkpt>
      <trkpt lat="42.73788" lon="-0.02572">
        <ele>1605.5390625</ele>
        <time>2015-09-10T10:44:43Z</time>
      </trkpt>
      <trkpt lat="42.73792" lon="-0.02562">
        <ele>1604.0971679688</ele>
        <time>2015-09-10T10:44:58Z</time>
      </trkpt>
      <trkpt lat="42.73796" lon="-0.02552">
        <ele>1600.732421875</ele>
        <time>2015-09-10T10:45:10Z</time>
      </trkpt>
      <trkpt lat="42.73802" lon="-0.02538">
        <ele>1600.732421875</ele>
        <time>2015-09-10T10:45:27Z</time>
      </trkpt>
      <trkpt lat="42.73803" lon="-0.02529">
        <ele>1596.8872070312</ele>
        <time>2015-09-10T10:45:35Z</time>
      </trkpt>
      <trkpt lat="42.73804" lon="-0.02523">
        <ele>1596.8872070312</ele>
        <time>2015-09-10T10:45:51Z</time>
      </trkpt>
      <trkpt lat="42.73809" lon="-0.02522">
        <ele>1595.92578125</ele>
        <time>2015-09-10T10:46:17Z</time>
      </trkpt>
      <trkpt lat="42.73816" lon="-0.02517">
        <ele>1593.5224609375</ele>
        <time>2015-09-10T10:46:28Z</time>
      </trkpt>
      <trkpt lat="42.73823" lon="-0.02514">
        <ele>1590.1579589844</ele>
        <time>2015-09-10T10:46:40Z</time>
      </trkpt>
      <trkpt lat="42.73832" lon="-0.02507">
        <ele>1588.2353515625</ele>
        <time>2015-09-10T10:46:59Z</time>
      </trkpt>
      <trkpt lat="42.73838" lon="-0.02501">
        <ele>1586.3127441406</ele>
        <time>2015-09-10T10:47:16Z</time>
      </trkpt>
      <trkpt lat="42.73842" lon="-0.02485">
        <ele>1582.9479980469</ele>
        <time>2015-09-10T10:47:32Z</time>
      </trkpt>
      <trkpt lat="42.73847" lon="-0.02478">
        <ele>1579.1025390625</ele>
        <time>2015-09-10T10:47:46Z</time>
      </trkpt>
      <trkpt lat="42.73845" lon="-0.0247">
        <ele>1575.7380371094</ele>
        <time>2015-09-10T10:47:58Z</time>
      </trkpt>
      <trkpt lat="42.73846" lon="-0.02456">
        <ele>1575.2573242188</ele>
        <time>2015-09-10T10:48:13Z</time>
      </trkpt>
      <trkpt lat="42.7385" lon="-0.02451">
        <ele>1574.7768554688</ele>
        <time>2015-09-10T10:48:29Z</time>
      </trkpt>
      <trkpt lat="42.73852" lon="-0.02445">
        <ele>1571.8928222656</ele>
        <time>2015-09-10T10:48:43Z</time>
      </trkpt>
      <trkpt lat="42.73852" lon="-0.02438">
        <ele>1569.9702148438</ele>
        <time>2015-09-10T10:48:57Z</time>
      </trkpt>
      <trkpt lat="42.73852" lon="-0.02435">
        <ele>1569.4897460938</ele>
        <time>2015-09-10T10:49:18Z</time>
      </trkpt>
      <trkpt lat="42.73851" lon="-0.02428">
        <ele>1566.125</ele>
        <time>2015-09-10T10:49:33Z</time>
      </trkpt>
      <trkpt lat="42.7385" lon="-0.02422">
        <ele>1564.6831054688</ele>
        <time>2015-09-10T10:49:47Z</time>
      </trkpt>
      <trkpt lat="42.73847" lon="-0.02415">
        <ele>1562.2795410156</ele>
        <time>2015-09-10T10:50:01Z</time>
      </trkpt>
      <trkpt lat="42.73847" lon="-0.02409">
        <ele>1559.8762207031</ele>
        <time>2015-09-10T10:50:19Z</time>
      </trkpt>
      <trkpt lat="42.73844" lon="-0.02401">
        <ele>1556.51171875</ele>
        <time>2015-09-10T10:50:34Z</time>
      </trkpt>
      <trkpt lat="42.73852" lon="-0.02398">
        <ele>1553.1472167969</ele>
        <time>2015-09-10T10:50:50Z</time>
      </trkpt>
      <trkpt lat="42.73849" lon="-0.02387">
        <ele>1551.7053222656</ele>
        <time>2015-09-10T10:51:05Z</time>
      </trkpt>
      <trkpt lat="42.73852" lon="-0.02386">
        <ele>1548.8212890625</ele>
        <time>2015-09-10T10:51:23Z</time>
      </trkpt>
      <trkpt lat="42.73856" lon="-0.02382">
        <ele>1546.41796875</ele>
        <time>2015-09-10T10:51:38Z</time>
      </trkpt>
      <trkpt lat="42.73864" lon="-0.02382">
        <ele>1544.4951171875</ele>
        <time>2015-09-10T10:51:54Z</time>
      </trkpt>
      <trkpt lat="42.73869" lon="-0.02381">
        <ele>1543.0532226562</ele>
        <time>2015-09-10T10:52:16Z</time>
      </trkpt>
      <trkpt lat="42.73874" lon="-0.02383">
        <ele>1540.6499023438</ele>
        <time>2015-09-10T10:52:31Z</time>
      </trkpt>
      <trkpt lat="42.73873" lon="-0.02376">
        <ele>1538.7275390625</ele>
        <time>2015-09-10T10:52:42Z</time>
      </trkpt>
      <trkpt lat="42.73875" lon="-0.02354">
        <ele>1536.8046875</ele>
        <time>2015-09-10T10:53:00Z</time>
      </trkpt>
      <trkpt lat="42.73878" lon="-0.02355">
        <ele>1534.8823242188</ele>
        <time>2015-09-10T10:53:06Z</time>
      </trkpt>
      <trkpt lat="42.73878" lon="-0.02353">
        <ele>1533.4401855469</ele>
        <time>2015-09-10T10:53:11Z</time>
      </trkpt>
      <trkpt lat="42.73882" lon="-0.0235">
        <ele>1530.5561523438</ele>
        <time>2015-09-10T10:53:23Z</time>
      </trkpt>
      <trkpt lat="42.73891" lon="-0.02344">
        <ele>1528.1528320312</ele>
        <time>2015-09-10T10:53:37Z</time>
      </trkpt>
      <trkpt lat="42.73904" lon="-0.02345">
        <ele>1524.7883300781</ele>
        <time>2015-09-10T10:53:54Z</time>
      </trkpt>
      <trkpt lat="42.73907" lon="-0.02348">
        <ele>1523.8269042969</ele>
        <time>2015-09-10T10:53:58Z</time>
      </trkpt>
      <trkpt lat="42.73918" lon="-0.02354">
        <ele>1521.904296875</ele>
        <time>2015-09-10T10:54:13Z</time>
      </trkpt>
      <trkpt lat="42.73928" lon="-0.02355">
        <ele>1519.0205078125</ele>
        <time>2015-09-10T10:54:25Z</time>
      </trkpt>
      <trkpt lat="42.7392" lon="-0.02332">
        <ele>1516.1364746094</ele>
        <time>2015-09-10T10:54:44Z</time>
      </trkpt>
      <trkpt lat="42.73917" lon="-0.02312">
        <ele>1514.2136230469</ele>
        <time>2015-09-10T10:55:03Z</time>
      </trkpt>
      <trkpt lat="42.73917" lon="-0.0231">
        <ele>1514.2136230469</ele>
        <time>2015-09-10T10:55:06Z</time>
      </trkpt>
      <trkpt lat="42.73917" lon="-0.02295">
        <ele>1512.7717285156</ele>
        <time>2015-09-10T10:55:18Z</time>
      </trkpt>
      <trkpt lat="42.73915" lon="-0.0227">
        <ele>1510.8491210938</ele>
        <time>2015-09-10T10:55:35Z</time>
      </trkpt>
      <trkpt lat="42.73919" lon="-0.02267">
        <ele>1510.3684082031</ele>
        <time>2015-09-10T10:55:48Z</time>
      </trkpt>
      <trkpt lat="42.73926" lon="-0.02256">
        <ele>1507.4846191406</ele>
        <time>2015-09-10T10:56:02Z</time>
      </trkpt>
      <trkpt lat="42.73928" lon="-0.0225">
        <ele>1507.4846191406</ele>
        <time>2015-09-10T10:56:07Z</time>
      </trkpt>
      <trkpt lat="42.73933" lon="-0.0224">
        <ele>1506.0424804688</ele>
        <time>2015-09-10T10:56:17Z</time>
      </trkpt>
      <trkpt lat="42.73935" lon="-0.02229">
        <ele>1506.5231933594</ele>
        <time>2015-09-10T10:56:31Z</time>
      </trkpt>
      <trkpt lat="42.73935" lon="-0.02233">
        <ele>1506.5231933594</ele>
        <time>2015-09-10T10:56:56Z</time>
      </trkpt>
      <trkpt lat="42.73938" lon="-0.02234">
        <ele>1506.0424804688</ele>
        <time>2015-09-10T10:57:20Z</time>
      </trkpt>
      <trkpt lat="42.73938" lon="-0.02235">
        <ele>1506.0424804688</ele>
        <time>2015-09-10T10:57:49Z</time>
      </trkpt>
      <trkpt lat="42.7394" lon="-0.02236">
        <ele>1506.5231933594</ele>
        <time>2015-09-10T10:57:52Z</time>
      </trkpt>
      <trkpt lat="42.73947" lon="-0.02246">
        <ele>1505.5620117188</ele>
        <time>2015-09-10T10:58:02Z</time>
      </trkpt>
      <trkpt lat="42.73945" lon="-0.02262">
        <ele>1506.5231933594</ele>
        <time>2015-09-10T10:58:17Z</time>
      </trkpt>
      <trkpt lat="42.73946" lon="-0.02254">
        <ele>1506.5231933594</ele>
        <time>2015-09-10T10:58:31Z</time>
      </trkpt>
      <trkpt lat="42.73943" lon="-0.0224">
        <ele>1506.5231933594</ele>
        <time>2015-09-10T10:58:42Z</time>
      </trkpt>
      <trkpt lat="42.73936" lon="-0.02235">
        <ele>1506.5231933594</ele>
        <time>2015-09-10T10:58:52Z</time>
      </trkpt>
      <trkpt lat="42.73935" lon="-0.0223">
        <ele>1506.5231933594</ele>
        <time>2015-09-10T10:59:05Z</time>
      </trkpt>
      <trkpt lat="42.73937" lon="-0.02232">
        <ele>1506.5231933594</ele>
        <time>2015-09-10T10:59:26Z</time>
      </trkpt>
      <trkpt lat="42.73938" lon="-0.02226">
        <ele>1507.00390625</ele>
        <time>2015-09-10T10:59:44Z</time>
      </trkpt>
      <trkpt lat="42.73938" lon="-0.02226">
        <ele>1506.0424804688</ele>
        <time>2015-09-10T11:00:07Z</time>
      </trkpt>
      <trkpt lat="42.73936" lon="-0.02225">
        <ele>1505.0812988281</ele>
        <time>2015-09-10T11:00:28Z</time>
      </trkpt>
      <trkpt lat="42.73938" lon="-0.02228">
        <ele>1505.5620117188</ele>
        <time>2015-09-10T11:01:10Z</time>
      </trkpt>
      <trkpt lat="42.73938" lon="-0.02225">
        <ele>1504.6005859375</ele>
        <time>2015-09-10T11:01:32Z</time>
      </trkpt>
      <trkpt lat="42.7393" lon="-0.02212">
        <ele>1503.1586914062</ele>
        <time>2015-09-10T11:01:44Z</time>
      </trkpt>
      <trkpt lat="42.73928" lon="-0.0219">
        <ele>1501.2360839844</ele>
        <time>2015-09-10T11:02:00Z</time>
      </trkpt>
      <trkpt lat="42.73929" lon="-0.02181">
        <ele>1500.7553710938</ele>
        <time>2015-09-10T11:02:06Z</time>
      </trkpt>
      <trkpt lat="42.7393" lon="-0.02177">
        <ele>1500.2749023438</ele>
        <time>2015-09-10T11:02:08Z</time>
      </trkpt>
      <trkpt lat="42.73933" lon="-0.02172">
        <ele>1499.7939453125</ele>
        <time>2015-09-10T11:02:13Z</time>
      </trkpt>
      <trkpt lat="42.73938" lon="-0.02152">
        <ele>1498.3518066406</ele>
        <time>2015-09-10T11:02:31Z</time>
      </trkpt>
      <trkpt lat="42.73939" lon="-0.02139">
        <ele>1497.390625</ele>
        <time>2015-09-10T11:02:45Z</time>
      </trkpt>
      <trkpt lat="42.73941" lon="-0.02118">
        <ele>1494.0261230469</ele>
        <time>2015-09-10T11:02:59Z</time>
      </trkpt>
      <trkpt lat="42.73939" lon="-0.02106">
        <ele>1493.0646972656</ele>
        <time>2015-09-10T11:03:07Z</time>
      </trkpt>
      <trkpt lat="42.7393" lon="-0.02082">
        <ele>1492.103515625</ele>
        <time>2015-09-10T11:03:25Z</time>
      </trkpt>
      <trkpt lat="42.73914" lon="-0.02078">
        <ele>1492.103515625</ele>
        <time>2015-09-10T11:03:39Z</time>
      </trkpt>
      <trkpt lat="42.73901" lon="-0.02072">
        <ele>1491.6228027344</ele>
        <time>2015-09-10T11:03:53Z</time>
      </trkpt>
      <trkpt lat="42.73889" lon="-0.0204">
        <ele>1491.1420898438</ele>
        <time>2015-09-10T11:04:15Z</time>
      </trkpt>
      <trkpt lat="42.7388" lon="-0.02004">
        <ele>1490.1809082031</ele>
        <time>2015-09-10T11:04:37Z</time>
      </trkpt>
      <trkpt lat="42.73873" lon="-0.01979">
        <ele>1488.2583007812</ele>
        <time>2015-09-10T11:04:54Z</time>
      </trkpt>
      <trkpt lat="42.73863" lon="-0.01962">
        <ele>1487.7775878906</ele>
        <time>2015-09-10T11:05:11Z</time>
      </trkpt>
      <trkpt lat="42.7386" lon="-0.01966">
        <ele>1489.7001953125</ele>
        <time>2015-09-10T11:05:31Z</time>
      </trkpt>
      <trkpt lat="42.73854" lon="-0.01964">
        <ele>1487.296875</ele>
        <time>2015-09-10T11:05:39Z</time>
      </trkpt>
      <trkpt lat="42.73847" lon="-0.0196">
        <ele>1486.3356933594</ele>
        <time>2015-09-10T11:05:55Z</time>
      </trkpt>
      <trkpt lat="42.7385" lon="-0.0195">
        <ele>1485.3742675781</ele>
        <time>2015-09-10T11:06:01Z</time>
      </trkpt>
      <trkpt lat="42.73854" lon="-0.01924">
        <ele>1483.9321289062</ele>
        <time>2015-09-10T11:06:18Z</time>
      </trkpt>
      <trkpt lat="42.73848" lon="-0.01902">
        <ele>1484.4130859375</ele>
        <time>2015-09-10T11:06:32Z</time>
      </trkpt>
      <trkpt lat="42.73845" lon="-0.01897">
        <ele>1484.8937988281</ele>
        <time>2015-09-10T11:06:36Z</time>
      </trkpt>
      <trkpt lat="42.73843" lon="-0.01894">
        <ele>1482.970703125</ele>
        <time>2015-09-10T11:06:38Z</time>
      </trkpt>
      <trkpt lat="42.73838" lon="-0.01889">
        <ele>1481.5288085938</ele>
        <time>2015-09-10T11:06:43Z</time>
      </trkpt>
      <trkpt lat="42.73825" lon="-0.01875">
        <ele>1477.203125</ele>
        <time>2015-09-10T11:06:57Z</time>
      </trkpt>
      <trkpt lat="42.73813" lon="-0.01867">
        <ele>1477.203125</ele>
        <time>2015-09-10T11:07:09Z</time>
      </trkpt>
      <trkpt lat="42.73805" lon="-0.01863">
        <ele>1476.7224121094</ele>
        <time>2015-09-10T11:07:17Z</time>
      </trkpt>
      <trkpt lat="42.73795" lon="-0.01849">
        <ele>1475.7609863281</ele>
        <time>2015-09-10T11:07:31Z</time>
      </trkpt>
      <trkpt lat="42.73784" lon="-0.01836">
        <ele>1473.8383789062</ele>
        <time>2015-09-10T11:07:42Z</time>
      </trkpt>
      <trkpt lat="42.73769" lon="-0.0182">
        <ele>1472.396484375</ele>
        <time>2015-09-10T11:07:57Z</time>
      </trkpt>
      <trkpt lat="42.7376" lon="-0.01808">
        <ele>1471.4350585938</ele>
        <time>2015-09-10T11:08:07Z</time>
      </trkpt>
      <trkpt lat="42.73757" lon="-0.01799">
        <ele>1469.9931640625</ele>
        <time>2015-09-10T11:08:12Z</time>
      </trkpt>
      <trkpt lat="42.7375" lon="-0.01766">
        <ele>1468.5512695312</ele>
        <time>2015-09-10T11:08:31Z</time>
      </trkpt>
      <trkpt lat="42.73749" lon="-0.01736">
        <ele>1466.1477050781</ele>
        <time>2015-09-10T11:08:50Z</time>
      </trkpt>
      <trkpt lat="42.73751" lon="-0.01703">
        <ele>1463.7443847656</ele>
        <time>2015-09-10T11:09:10Z</time>
      </trkpt>
      <trkpt lat="42.7375" lon="-0.01695">
        <ele>1462.783203125</ele>
        <time>2015-09-10T11:09:15Z</time>
      </trkpt>
      <trkpt lat="42.73748" lon="-0.0169">
        <ele>1462.783203125</ele>
        <time>2015-09-10T11:09:18Z</time>
      </trkpt>
      <trkpt lat="42.73751" lon="-0.01679">
        <ele>1461.8220214844</ele>
        <time>2015-09-10T11:09:27Z</time>
      </trkpt>
      <trkpt lat="42.73753" lon="-0.0168">
        <ele>1462.3024902344</ele>
        <time>2015-09-10T11:09:41Z</time>
      </trkpt>
      <trkpt lat="42.73742" lon="-0.01683">
        <ele>1462.3024902344</ele>
        <time>2015-09-10T11:09:54Z</time>
      </trkpt>
      <trkpt lat="42.7374" lon="-0.01679">
        <ele>1461.8220214844</ele>
        <time>2015-09-10T11:10:08Z</time>
      </trkpt>
      <trkpt lat="42.73736" lon="-0.01679">
        <ele>1463.2639160156</ele>
        <time>2015-09-10T11:10:11Z</time>
      </trkpt>
      <trkpt lat="42.73728" lon="-0.01677">
        <ele>1463.7443847656</ele>
        <time>2015-09-10T11:10:18Z</time>
      </trkpt>
      <trkpt lat="42.7372" lon="-0.01666">
        <ele>1462.3024902344</ele>
        <time>2015-09-10T11:10:28Z</time>
      </trkpt>
      <trkpt lat="42.73708" lon="-0.01657">
        <ele>1462.3024902344</ele>
        <time>2015-09-10T11:10:41Z</time>
      </trkpt>
      <trkpt lat="42.73708" lon="-0.01656">
        <ele>1462.3024902344</ele>
        <time>2015-09-10T11:10:42Z</time>
      </trkpt>
      <trkpt lat="42.73705" lon="-0.01649">
        <ele>1462.783203125</ele>
        <time>2015-09-10T11:10:47Z</time>
      </trkpt>
      <trkpt lat="42.737" lon="-0.01634">
        <ele>1461.3413085938</ele>
        <time>2015-09-10T11:10:57Z</time>
      </trkpt>
      <trkpt lat="42.73696" lon="-0.01618">
        <ele>1459.4187011719</ele>
        <time>2015-09-10T11:11:08Z</time>
      </trkpt>
      <trkpt lat="42.73688" lon="-0.016">
        <ele>1457.9768066406</ele>
        <time>2015-09-10T11:11:24Z</time>
      </trkpt>
      <trkpt lat="42.73685" lon="-0.0158">
        <ele>1457.49609375</ele>
        <time>2015-09-10T11:11:38Z</time>
      </trkpt>
      <trkpt lat="42.73682" lon="-0.01569">
        <ele>1456.5346679688</ele>
        <time>2015-09-10T11:11:46Z</time>
      </trkpt>
      <trkpt lat="42.73674" lon="-0.01543">
        <ele>1455.0927734375</ele>
        <time>2015-09-10T11:12:03Z</time>
      </trkpt>
      <trkpt lat="42.7367" lon="-0.01535">
        <ele>1453.1701660156</ele>
        <time>2015-09-10T11:12:12Z</time>
      </trkpt>
      <trkpt lat="42.73667" lon="-0.01516">
        <ele>1453.6508789062</ele>
        <time>2015-09-10T11:12:25Z</time>
      </trkpt>
      <trkpt lat="42.7366" lon="-0.01496">
        <ele>1452.689453125</ele>
        <time>2015-09-10T11:12:39Z</time>
      </trkpt>
      <trkpt lat="42.73653" lon="-0.01483">
        <ele>1451.2473144531</ele>
        <time>2015-09-10T11:12:52Z</time>
      </trkpt>
      <trkpt lat="42.73642" lon="-0.01475">
        <ele>1450.7666015625</ele>
        <time>2015-09-10T11:13:04Z</time>
      </trkpt>
      <trkpt lat="42.73632" lon="-0.01458">
        <ele>1447.4020996094</ele>
        <time>2015-09-10T11:13:18Z</time>
      </trkpt>
      <trkpt lat="42.73623" lon="-0.01443">
        <ele>1445.9602050781</ele>
        <time>2015-09-10T11:13:31Z</time>
      </trkpt>
      <trkpt lat="42.73605" lon="-0.01431">
        <ele>1445.9602050781</ele>
        <time>2015-09-10T11:13:48Z</time>
      </trkpt>
      <trkpt lat="42.73589" lon="-0.01422">
        <ele>1445.4794921875</ele>
        <time>2015-09-10T11:14:06Z</time>
      </trkpt>
      <trkpt lat="42.73571" lon="-0.01416">
        <ele>1443.5568847656</ele>
        <time>2015-09-10T11:14:26Z</time>
      </trkpt>
      <trkpt lat="42.73567" lon="-0.01414">
        <ele>1442.595703125</ele>
        <time>2015-09-10T11:14:30Z</time>
      </trkpt>
      <trkpt lat="42.7355" lon="-0.01406">
        <ele>1442.595703125</ele>
        <time>2015-09-10T11:14:45Z</time>
      </trkpt>
      <trkpt lat="42.73535" lon="-0.01396">
        <ele>1442.1149902344</ele>
        <time>2015-09-10T11:14:59Z</time>
      </trkpt>
      <trkpt lat="42.73531" lon="-0.01391">
        <ele>1441.1535644531</ele>
        <time>2015-09-10T11:15:04Z</time>
      </trkpt>
      <trkpt lat="42.7352" lon="-0.01378">
        <ele>1439.7116699219</ele>
        <time>2015-09-10T11:15:17Z</time>
      </trkpt>
      <trkpt lat="42.73516" lon="-0.01373">
        <ele>1439.7116699219</ele>
        <time>2015-09-10T11:15:21Z</time>
      </trkpt>
      <trkpt lat="42.7351" lon="-0.01369">
        <ele>1440.1923828125</ele>
        <time>2015-09-10T11:15:26Z</time>
      </trkpt>
      <trkpt lat="42.73491" lon="-0.01349">
        <ele>1440.6728515625</ele>
        <time>2015-09-10T11:15:46Z</time>
      </trkpt>
      <trkpt lat="42.73487" lon="-0.01344">
        <ele>1440.1923828125</ele>
        <time>2015-09-10T11:15:51Z</time>
      </trkpt>
      <trkpt lat="42.73478" lon="-0.0133">
        <ele>1440.1923828125</ele>
        <time>2015-09-10T11:16:07Z</time>
      </trkpt>
      <trkpt lat="42.73472" lon="-0.01323">
        <ele>1440.1923828125</ele>
        <time>2015-09-10T11:16:22Z</time>
      </trkpt>
      <trkpt lat="42.73451" lon="-0.01311">
        <ele>1439.7116699219</ele>
        <time>2015-09-10T11:16:39Z</time>
      </trkpt>
      <trkpt lat="42.73446" lon="-0.0131">
        <ele>1439.7116699219</ele>
        <time>2015-09-10T11:16:43Z</time>
      </trkpt>
      <trkpt lat="42.73429" lon="-0.01306">
        <ele>1438.7504882812</ele>
        <time>2015-09-10T11:16:59Z</time>
      </trkpt>
      <trkpt lat="42.73424" lon="-0.01304">
        <ele>1438.7504882812</ele>
        <time>2015-09-10T11:17:03Z</time>
      </trkpt>
      <trkpt lat="42.7341" lon="-0.01297">
        <ele>1438.7504882812</ele>
        <time>2015-09-10T11:17:15Z</time>
      </trkpt>
      <trkpt lat="42.73406" lon="-0.01295">
        <ele>1438.2697753906</ele>
        <time>2015-09-10T11:17:18Z</time>
      </trkpt>
      <trkpt lat="42.734" lon="-0.01293">
        <ele>1437.7890625</ele>
        <time>2015-09-10T11:17:22Z</time>
      </trkpt>
      <trkpt lat="42.73387" lon="-0.01288">
        <ele>1436.8276367188</ele>
        <time>2015-09-10T11:17:30Z</time>
      </trkpt>
      <trkpt lat="42.73374" lon="-0.01276">
        <ele>1436.3471679688</ele>
        <time>2015-09-10T11:17:42Z</time>
      </trkpt>
      <trkpt lat="42.7336" lon="-0.01264">
        <ele>1436.8276367188</ele>
        <time>2015-09-10T11:17:56Z</time>
      </trkpt>
      <trkpt lat="42.73347" lon="-0.01255">
        <ele>1437.7890625</ele>
        <time>2015-09-10T11:18:10Z</time>
      </trkpt>
      <trkpt lat="42.73333" lon="-0.01241">
        <ele>1437.3083496094</ele>
        <time>2015-09-10T11:18:24Z</time>
      </trkpt>
      <trkpt lat="42.73325" lon="-0.01236">
        <ele>1436.8276367188</ele>
        <time>2015-09-10T11:18:34Z</time>
      </trkpt>
      <trkpt lat="42.73322" lon="-0.01234">
        <ele>1436.3471679688</ele>
        <time>2015-09-10T11:18:37Z</time>
      </trkpt>
      <trkpt lat="42.73309" lon="-0.01225">
        <ele>1436.3471679688</ele>
        <time>2015-09-10T11:18:50Z</time>
      </trkpt>
      <trkpt lat="42.73295" lon="-0.01219">
        <ele>1435.8662109375</ele>
        <time>2015-09-10T11:19:02Z</time>
      </trkpt>
      <trkpt lat="42.73279" lon="-0.01215">
        <ele>1436.3471679688</ele>
        <time>2015-09-10T11:19:15Z</time>
      </trkpt>
      <trkpt lat="42.73261" lon="-0.01212">
        <ele>1435.3854980469</ele>
        <time>2015-09-10T11:19:28Z</time>
      </trkpt>
      <trkpt lat="42.7325" lon="-0.01207">
        <ele>1434.4243164062</ele>
        <time>2015-09-10T11:19:38Z</time>
      </trkpt>
      <trkpt lat="42.73241" lon="-0.01203">
        <ele>1432.5017089844</ele>
        <time>2015-09-10T11:19:48Z</time>
      </trkpt>
      <trkpt lat="42.73233" lon="-0.01199">
        <ele>1429.1369628906</ele>
        <time>2015-09-10T11:19:59Z</time>
      </trkpt>
      <trkpt lat="42.73223" lon="-0.01196">
        <ele>1426.2531738281</ele>
        <time>2015-09-10T11:20:12Z</time>
      </trkpt>
      <trkpt lat="42.73216" lon="-0.0119">
        <ele>1425.2917480469</ele>
        <time>2015-09-10T11:20:18Z</time>
      </trkpt>
      <trkpt lat="42.73197" lon="-0.01173">
        <ele>1423.3693847656</ele>
        <time>2015-09-10T11:20:34Z</time>
      </trkpt>
      <trkpt lat="42.73181" lon="-0.01155">
        <ele>1422.4079589844</ele>
        <time>2015-09-10T11:20:49Z</time>
      </trkpt>
      <trkpt lat="42.73169" lon="-0.01148">
        <ele>1420.4853515625</ele>
        <time>2015-09-10T11:21:04Z</time>
      </trkpt>
      <trkpt lat="42.73159" lon="-0.01138">
        <ele>1419.5239257812</ele>
        <time>2015-09-10T11:21:15Z</time>
      </trkpt>
      <trkpt lat="42.73156" lon="-0.01134">
        <ele>1419.5239257812</ele>
        <time>2015-09-10T11:21:17Z</time>
      </trkpt>
      <trkpt lat="42.73145" lon="-0.01127">
        <ele>1418.5625</ele>
        <time>2015-09-10T11:21:30Z</time>
      </trkpt>
      <trkpt lat="42.73132" lon="-0.01113">
        <ele>1417.1206054688</ele>
        <time>2015-09-10T11:21:45Z</time>
      </trkpt>
      <trkpt lat="42.73125" lon="-0.01102">
        <ele>1415.6787109375</ele>
        <time>2015-09-10T11:21:54Z</time>
      </trkpt>
      <trkpt lat="42.73121" lon="-0.01102">
        <ele>1415.1979980469</ele>
        <time>2015-09-10T11:22:16Z</time>
      </trkpt>
      <trkpt lat="42.73108" lon="-0.01099">
        <ele>1415.6787109375</ele>
        <time>2015-09-10T11:22:28Z</time>
      </trkpt>
      <trkpt lat="42.73098" lon="-0.01094">
        <ele>1416.1591796875</ele>
        <time>2015-09-10T11:22:37Z</time>
      </trkpt>
      <trkpt lat="42.73079" lon="-0.01085">
        <ele>1417.6010742188</ele>
        <time>2015-09-10T11:22:53Z</time>
      </trkpt>
      <trkpt lat="42.73064" lon="-0.01073">
        <ele>1418.0817871094</ele>
        <time>2015-09-10T11:23:08Z</time>
      </trkpt>
      <trkpt lat="42.73063" lon="-0.01069">
        <ele>1416.1591796875</ele>
        <time>2015-09-10T11:23:11Z</time>
      </trkpt>
      <trkpt lat="42.73065" lon="-0.01055">
        <ele>1413.755859375</ele>
        <time>2015-09-10T11:23:24Z</time>
      </trkpt>
      <trkpt lat="42.73067" lon="-0.01049">
        <ele>1411.8334960938</ele>
        <time>2015-09-10T11:23:33Z</time>
      </trkpt>
      <trkpt lat="42.73085" lon="-0.0105">
        <ele>1407.98828125</ele>
        <time>2015-09-10T11:23:49Z</time>
      </trkpt>
      <trkpt lat="42.73101" lon="-0.01057">
        <ele>1406.5461425781</ele>
        <time>2015-09-10T11:24:03Z</time>
      </trkpt>
      <trkpt lat="42.73109" lon="-0.01059">
        <ele>1406.0654296875</ele>
        <time>2015-09-10T11:24:10Z</time>
      </trkpt>
      <trkpt lat="42.73119" lon="-0.01062">
        <ele>1405.1042480469</ele>
        <time>2015-09-10T11:24:25Z</time>
      </trkpt>
      <trkpt lat="42.73126" lon="-0.01064">
        <ele>1405.1042480469</ele>
        <time>2015-09-10T11:24:30Z</time>
      </trkpt>
      <trkpt lat="42.73154" lon="-0.01072">
        <ele>1402.2199707031</ele>
        <time>2015-09-10T11:24:52Z</time>
      </trkpt>
      <trkpt lat="42.73178" lon="-0.01073">
        <ele>1400.2976074219</ele>
        <time>2015-09-10T11:25:10Z</time>
      </trkpt>
      <trkpt lat="42.73199" lon="-0.0107">
        <ele>1398.85546875</ele>
        <time>2015-09-10T11:25:27Z</time>
      </trkpt>
      <trkpt lat="42.73206" lon="-0.01068">
        <ele>1398.85546875</ele>
        <time>2015-09-10T11:25:41Z</time>
      </trkpt>
      <trkpt lat="42.73223" lon="-0.01055">
        <ele>1397.4135742188</ele>
        <time>2015-09-10T11:25:58Z</time>
      </trkpt>
      <trkpt lat="42.73238" lon="-0.01035">
        <ele>1395.9716796875</ele>
        <time>2015-09-10T11:26:14Z</time>
      </trkpt>
      <trkpt lat="42.73243" lon="-0.01031">
        <ele>1395.4909667969</ele>
        <time>2015-09-10T11:26:19Z</time>
      </trkpt>
      <trkpt lat="42.73266" lon="-0.01017">
        <ele>1393.0876464844</ele>
        <time>2015-09-10T11:26:40Z</time>
      </trkpt>
      <trkpt lat="42.73285" lon="-0.00999">
        <ele>1391.1650390625</ele>
        <time>2015-09-10T11:26:58Z</time>
      </trkpt>
      <trkpt lat="42.73287" lon="-0.00997">
        <ele>1390.6843261719</ele>
        <time>2015-09-10T11:27:00Z</time>
      </trkpt>
      <trkpt lat="42.73291" lon="-0.00986">
        <ele>1390.2038574219</ele>
        <time>2015-09-10T11:27:07Z</time>
      </trkpt>
      <trkpt lat="42.73292" lon="-0.00976">
        <ele>1388.7619628906</ele>
        <time>2015-09-10T11:27:12Z</time>
      </trkpt>
      <trkpt lat="42.73295" lon="-0.00966">
        <ele>1388.7619628906</ele>
        <time>2015-09-10T11:27:23Z</time>
      </trkpt>
      <trkpt lat="42.73273" lon="-0.00959">
        <ele>1386.3583984375</ele>
        <time>2015-09-10T11:27:43Z</time>
      </trkpt>
      <trkpt lat="42.73251" lon="-0.00952">
        <ele>1386.3583984375</ele>
        <time>2015-09-10T11:28:00Z</time>
      </trkpt>
      <trkpt lat="42.73237" lon="-0.00943">
        <ele>1386.8388671875</ele>
        <time>2015-09-10T11:28:19Z</time>
      </trkpt>
      <trkpt lat="42.73231" lon="-0.00941">
        <ele>1386.8388671875</ele>
        <time>2015-09-10T11:28:34Z</time>
      </trkpt>
      <trkpt lat="42.73232" lon="-0.00944">
        <ele>1386.3583984375</ele>
        <time>2015-09-10T11:28:55Z</time>
      </trkpt>
      <trkpt lat="42.73235" lon="-0.00943">
        <ele>1386.3583984375</ele>
        <time>2015-09-10T11:29:20Z</time>
      </trkpt>
      <trkpt lat="42.73235" lon="-0.00941">
        <ele>1385.8776855469</ele>
        <time>2015-09-10T11:29:59Z</time>
      </trkpt>
      <trkpt lat="42.73235" lon="-0.00941">
        <ele>1386.3583984375</ele>
        <time>2015-09-10T11:30:00Z</time>
      </trkpt>
    </trkseg>
  </trk>
</gpx>